[[{"header":{"parameterUnit":"m.s-1","parameterCategory":1,"la1":30.6,"la2":29.2853,"lo1":-89.7004,"lo2":-87.6739,"dy":0.0162,"dx":0.0183,"nx":112,"ny":82,"refTime":"2023-10-03T06:00:00:Z","depth":0,"parameterNumber":2,"parameterNumberName":"U-component_of_WINDS"},"data":[0.0,0.0,0.0,0.0,0.0,0.0,0.0,0.0,0.0,0.0,0.0,0.0,0.0,0.0,0.0,0.0,0.0,0.0,0.0,0.0,0.0,0.0,0.0,0.0,0.0,0.0,0.0,0.0,0.0,0.0,0.0,0.0,0.0,0.0,0.0,0.0,0.0,0.0,0.0,0.0,0.0,0.0,0.0,0.0,0.0,0.0,0.0,0.0,0.0,0.0,0.0,0.0,0.0,0.0,0.0,0.0,0.0,0.0,0.0,0.0,0.0,0.0,0.0,0.0,0.0,0.0,0.0,0.0,0.0,0.0,0.0,0.0,0.0,0.0,0.0,0.0,0.0,0.0,0.0,0.0,0.0,0.0,0.0,0.0,0.0,0.0,0.0,0.0,0.0,0.0,0.0,-4.3561,-4.7371,-5.0694,-5.3175,-5.2698,-4.9332,-4.2403,0.0,0.0,0.0,0.0,0.0,0.0,0.0,0.0,0.0,0.0,0.0,0.0,0.0,0.0,0.0,0.0,0.0,0.0,0.0,0.0,0.0,0.0,0.0,0.0,0.0,0.0,0.0,0.0,0.0,0.0,0.0,0.0,0.0,0.0,0.0,0.0,0.0,0.0,0.0,0.0,0.0,0.0,0.0,0.0,0.0,0.0,0.0,0.0,0.0,0.0,0.0,0.0,0.0,0.0,0.0,0.0,0.0,0.0,0.0,0.0,0.0,0.0,0.0,0.0,0.0,0.0,0.0,0.0,0.0,0.0,0.0,0.0,0.0,0.0,0.0,0.0,0.0,0.0,0.0,0.0,0.0,0.0,0.0,0.0,0.0,0.0,0.0,0.0,0.0,0.0,0.0,0.0,0.0,0.0,0.0,0.0,0.0,0.0,0.0,0.0,0.0,0.0,0.0,0.0,-4.0799,-4.6473,-4.7768,-4.9099,-5.1302,-5.275,-5.1851,-4.7907,0.0,0.0,0.0,0.0,0.0,0.0,0.0,0.0,0.0,0.0,0.0,0.0,0.0,0.0,0.0,0.0,0.0,0.0,0.0,0.0,0.0,0.0,0.0,0.0,0.0,0.0,0.0,0.0,0.0,0.0,0.0,0.0,0.0,0.0,0.0,0.0,0.0,0.0,0.0,0.0,0.0,0.0,0.0,0.0,0.0,0.0,0.0,0.0,0.0,0.0,0.0,0.0,0.0,0.0,0.0,0.0,0.0,0.0,0.0,0.0,0.0,0.0,0.0,0.0,0.0,0.0,0.0,0.0,0.0,0.0,0.0,0.0,0.0,0.0,0.0,0.0,0.0,0.0,0.0,0.0,0.0,0.0,0.0,0.0,0.0,0.0,0.0,0.0,0.0,0.0,0.0,0.0,0.0,0.0,0.0,0.0,0.0,0.0,0.0,0.0,0.0,0.0,0.0,-3.8881,-4.1848,-4.6695,-4.7306,-4.8771,-5.2287,-5.0691,-4.8509,-4.611,-4.0277,0.0,0.0,0.0,0.0,0.0,0.0,0.0,0.0,0.0,0.0,0.0,0.0,0.0,0.0,0.0,0.0,0.0,0.0,0.0,0.0,0.0,0.0,0.0,0.0,0.0,0.0,0.0,0.0,0.0,0.0,0.0,0.0,0.0,0.0,0.0,0.0,0.0,0.0,0.0,0.0,0.0,0.0,0.0,0.0,0.0,0.0,0.0,0.0,0.0,0.0,0.0,0.0,0.0,0.0,0.0,0.0,0.0,0.0,0.0,0.0,0.0,0.0,0.0,0.0,0.0,0.0,0.0,0.0,0.0,0.0,0.0,0.0,0.0,0.0,0.0,0.0,0.0,0.0,0.0,0.0,0.0,0.0,0.0,0.0,0.0,0.0,0.0,0.0,0.0,0.0,0.0,0.0,0.0,0.0,0.0,0.0,0.0,0.0,0.0,0.0,0.0,0.0,-4.0352,-4.2481,-4.5827,-4.5745,-4.6907,-5.0461,-4.693,-4.392,-4.2446,-3.8217,0.0,0.0,0.0,0.0,0.0,0.0,0.0,0.0,0.0,0.0,0.0,0.0,0.0,0.0,0.0,0.0,0.0,0.0,0.0,0.0,0.0,0.0,0.0,0.0,0.0,0.0,0.0,0.0,0.0,0.0,0.0,0.0,0.0,0.0,0.0,0.0,0.0,0.0,0.0,0.0,0.0,0.0,0.0,0.0,0.0,0.0,0.0,0.0,0.0,0.0,0.0,0.0,0.0,0.0,0.0,0.0,0.0,0.0,0.0,0.0,0.0,0.0,0.0,0.0,0.0,0.0,0.0,0.0,0.0,0.0,0.0,0.0,0.0,0.0,0.0,0.0,0.0,0.0,0.0,0.0,0.0,0.0,0.0,0.0,0.0,0.0,0.0,0.0,0.0,0.0,0.0,0.0,0.0,0.0,0.0,0.0,0.0,0.0,0.0,0.0,0.0,0.0,-3.9565,-4.1905,-4.4383,-4.2669,-4.1454,-4.1768,-4.102,-4.0092,-3.91,-3.5867,0.0,0.0,0.0,0.0,0.0,0.0,0.0,0.0,0.0,0.0,0.0,0.0,0.0,0.0,0.0,0.0,0.0,0.0,0.0,0.0,0.0,0.0,0.0,0.0,0.0,0.0,0.0,0.0,0.0,0.0,0.0,0.0,0.0,0.0,0.0,0.0,0.0,0.0,0.0,0.0,0.0,0.0,0.0,0.0,0.0,0.0,0.0,0.0,0.0,0.0,0.0,0.0,0.0,0.0,0.0,0.0,0.0,0.0,0.0,0.0,0.0,0.0,0.0,0.0,0.0,0.0,0.0,0.0,0.0,0.0,0.0,0.0,0.0,0.0,0.0,0.0,0.0,0.0,0.0,0.0,0.0,0.0,0.0,0.0,0.0,0.0,0.0,0.0,0.0,0.0,0.0,0.0,0.0,0.0,0.0,0.0,0.0,0.0,0.0,0.0,0.0,0.0,-3.8005,-4.0241,0.0,-4.1929,-4.1492,-4.0962,-4.0446,-3.8512,-3.4637,0.0,0.0,0.0,0.0,0.0,0.0,0.0,0.0,0.0,0.0,0.0,0.0,0.0,0.0,0.0,0.0,0.0,0.0,0.0,0.0,0.0,0.0,0.0,0.0,0.0,0.0,0.0,0.0,0.0,0.0,0.0,0.0,0.0,0.0,0.0,0.0,0.0,0.0,0.0,0.0,0.0,0.0,0.0,0.0,0.0,0.0,0.0,0.0,0.0,0.0,0.0,0.0,0.0,0.0,0.0,0.0,0.0,0.0,0.0,0.0,0.0,0.0,0.0,0.0,0.0,0.0,0.0,0.0,0.0,0.0,0.0,0.0,0.0,0.0,0.0,0.0,0.0,0.0,0.0,0.0,0.0,0.0,0.0,0.0,0.0,0.0,0.0,0.0,0.0,0.0,0.0,0.0,0.0,0.0,0.0,0.0,0.0,0.0,0.0,0.0,0.0,0.0,-3.4499,-3.7411,-3.9742,0.0,-4.1305,-4.1407,-4.0788,-3.9792,-3.7536,-3.3606,0.0,0.0,0.0,0.0,0.0,0.0,0.0,0.0,0.0,0.0,0.0,0.0,0.0,0.0,0.0,0.0,0.0,0.0,0.0,0.0,0.0,0.0,0.0,0.0,0.0,0.0,0.0,0.0,0.0,0.0,0.0,0.0,0.0,0.0,0.0,0.0,0.0,0.0,0.0,0.0,0.0,0.0,0.0,0.0,0.0,0.0,0.0,0.0,0.0,0.0,0.0,0.0,0.0,0.0,0.0,0.0,0.0,0.0,0.0,0.0,0.0,0.0,0.0,0.0,0.0,0.0,0.0,0.0,0.0,0.0,0.0,0.0,0.0,0.0,0.0,0.0,0.0,0.0,0.0,0.0,0.0,0.0,0.0,0.0,0.0,0.0,0.0,0.0,0.0,0.0,0.0,0.0,0.0,0.0,0.0,0.0,0.0,0.0,0.0,0.0,0.0,0.0,-3.4225,-3.81,-4.0756,-4.0512,-4.0468,-4.0451,-4.0375,-3.8361,-3.6994,0.0,0.0,0.0,0.0,0.0,0.0,0.0,0.0,0.0,0.0,0.0,0.0,0.0,0.0,0.0,0.0,0.0,0.0,0.0,0.0,0.0,0.0,0.0,0.0,0.0,0.0,0.0,0.0,0.0,0.0,0.0,0.0,0.0,0.0,0.0,0.0,0.0,0.0,0.0,0.0,0.0,0.0,0.0,0.0,0.0,0.0,0.0,0.0,0.0,0.0,0.0,0.0,0.0,0.0,0.0,0.0,0.0,0.0,0.0,0.0,0.0,0.0,0.0,0.0,0.0,0.0,0.0,0.0,0.0,0.0,0.0,0.0,0.0,0.0,0.0,0.0,0.0,0.0,0.0,0.0,0.0,0.0,0.0,0.0,0.0,0.0,0.0,0.0,0.0,0.0,0.0,0.0,0.0,0.0,0.0,0.0,0.0,0.0,0.0,0.0,0.0,0.0,0.0,-3.4107,-3.7177,-3.9265,-3.8984,-3.8815,-3.9,-3.9651,-3.7843,-3.6346,-3.5555,0.0,0.0,0.0,0.0,0.0,0.0,0.0,0.0,0.0,0.0,0.0,0.0,0.0,0.0,0.0,0.0,0.0,0.0,0.0,0.0,0.0,0.0,0.0,0.0,0.0,0.0,0.0,0.0,0.0,0.0,0.0,0.0,0.0,0.0,0.0,0.0,0.0,0.0,0.0,0.0,0.0,0.0,0.0,0.0,0.0,0.0,0.0,0.0,0.0,0.0,0.0,0.0,0.0,0.0,0.0,0.0,0.0,0.0,0.0,0.0,0.0,0.0,0.0,0.0,0.0,0.0,0.0,0.0,0.0,0.0,0.0,0.0,0.0,0.0,0.0,0.0,0.0,0.0,0.0,0.0,0.0,0.0,0.0,0.0,0.0,0.0,0.0,0.0,0.0,0.0,0.0,0.0,0.0,0.0,0.0,0.0,0.0,0.0,0.0,0.0,0.0,0.0,-3.2348,-3.5576,-3.7768,-3.7598,-3.7739,-3.8093,-3.8678,-3.7296,-3.5901,-3.4751,0.0,0.0,0.0,0.0,0.0,0.0,0.0,0.0,0.0,0.0,0.0,0.0,0.0,0.0,0.0,0.0,0.0,0.0,0.0,0.0,0.0,0.0,0.0,0.0,0.0,0.0,0.0,0.0,0.0,0.0,0.0,0.0,0.0,0.0,0.0,0.0,0.0,0.0,0.0,0.0,0.0,0.0,0.0,0.0,0.0,0.0,0.0,0.0,0.0,0.0,0.0,0.0,0.0,0.0,0.0,0.0,0.0,0.0,0.0,0.0,0.0,0.0,0.0,0.0,0.0,0.0,0.0,0.0,0.0,0.0,0.0,0.0,0.0,0.0,0.0,0.0,0.0,0.0,0.0,0.0,0.0,0.0,0.0,0.0,0.0,0.0,0.0,0.0,0.0,0.0,0.0,0.0,0.0,0.0,0.0,0.0,0.0,0.0,0.0,0.0,0.0,0.0,-2.9985,-3.3853,-3.6508,-3.6495,-3.7137,-3.7584,-3.7584,-3.6699,-3.5523,-3.4099,0.0,0.0,0.0,0.0,0.0,0.0,0.0,0.0,0.0,0.0,0.0,0.0,0.0,0.0,0.0,0.0,0.0,0.0,0.0,0.0,0.0,0.0,0.0,0.0,0.0,0.0,0.0,0.0,0.0,0.0,0.0,0.0,0.0,0.0,0.0,0.0,0.0,0.0,0.0,0.0,0.0,0.0,0.0,0.0,0.0,0.0,0.0,0.0,0.0,0.0,0.0,0.0,0.0,0.0,0.0,0.0,0.0,0.0,0.0,0.0,-3.4326,0.0,0.0,0.0,0.0,0.0,0.0,0.0,0.0,0.0,0.0,0.0,0.0,0.0,0.0,0.0,0.0,0.0,0.0,0.0,0.0,0.0,0.0,0.0,0.0,0.0,0.0,0.0,0.0,0.0,0.0,0.0,0.0,0.0,0.0,0.0,0.0,0.0,0.0,0.0,0.0,0.0,-3.1579,-3.4576,-3.6505,-3.6505,-3.6645,-3.6768,-3.6768,-3.6068,-3.4754,-3.2696,-3.1813,0.0,0.0,0.0,0.0,0.0,0.0,0.0,0.0,0.0,0.0,0.0,0.0,0.0,0.0,0.0,0.0,0.0,0.0,0.0,0.0,0.0,0.0,0.0,0.0,0.0,0.0,0.0,0.0,0.0,0.0,0.0,0.0,0.0,0.0,0.0,0.0,0.0,0.0,0.0,0.0,0.0,0.0,0.0,0.0,0.0,0.0,0.0,0.0,0.0,0.0,0.0,0.0,0.0,0.0,0.0,0.0,0.0,0.0,0.0,0.0,-3.4453,0.0,0.0,0.0,0.0,0.0,0.0,0.0,0.0,0.0,0.0,0.0,0.0,0.0,0.0,0.0,0.0,0.0,0.0,0.0,0.0,0.0,0.0,0.0,0.0,0.0,0.0,0.0,0.0,0.0,0.0,0.0,0.0,0.0,0.0,0.0,0.0,0.0,0.0,0.0,0.0,-2.9868,-3.2139,-3.4013,-3.5043,-3.4931,-3.4741,-3.4712,-3.4379,-3.3382,-3.1602,-3.063,0.0,0.0,0.0,0.0,0.0,0.0,0.0,0.0,0.0,0.0,0.0,0.0,0.0,0.0,0.0,0.0,0.0,0.0,0.0,0.0,0.0,0.0,0.0,0.0,0.0,0.0,0.0,0.0,0.0,0.0,0.0,0.0,0.0,0.0,0.0,0.0,0.0,0.0,0.0,0.0,0.0,0.0,0.0,0.0,0.0,0.0,0.0,0.0,0.0,0.0,0.0,0.0,0.0,-4.0271,-4.0654,-4.0463,-4.0937,-4.0602,-3.9486,-3.7978,-3.6632,-3.5424,0.0,0.0,0.0,0.0,0.0,0.0,0.0,0.0,0.0,0.0,0.0,0.0,0.0,0.0,0.0,0.0,0.0,0.0,0.0,0.0,0.0,0.0,0.0,0.0,0.0,-3.0558,-3.0841,0.0,0.0,0.0,0.0,0.0,0.0,0.0,0.0,0.0,0.0,0.0,0.0,-2.8019,-2.948,-3.1236,-3.3204,-3.3015,-3.2706,-3.2679,-3.2715,-3.2212,-3.1013,-2.9889,-2.8708,0.0,0.0,0.0,0.0,0.0,0.0,0.0,0.0,0.0,0.0,0.0,0.0,0.0,0.0,0.0,0.0,0.0,0.0,0.0,0.0,0.0,0.0,0.0,0.0,0.0,0.0,0.0,0.0,0.0,0.0,0.0,0.0,-3.095,-3.0459,0.0,0.0,0.0,0.0,0.0,0.0,0.0,0.0,0.0,0.0,0.0,0.0,0.0,-3.7944,-3.7909,-3.9946,-4.0447,-3.9491,-4.2099,-4.281,-4.1854,-4.1931,-4.1879,-4.1673,-4.0963,0.0,-3.5731,-3.5641,0.0,0.0,0.0,0.0,0.0,0.0,0.0,0.0,0.0,0.0,0.0,0.0,0.0,0.0,0.0,0.0,0.0,0.0,0.0,0.0,0.0,0.0,-3.0956,-2.9985,-3.0565,-3.1054,0.0,-3.0118,-3.026,-2.9474,-2.9268,0.0,0.0,0.0,0.0,0.0,0.0,0.0,-3.0054,-3.0353,-3.0962,-3.2119,-3.2177,-3.2112,-3.2123,-3.2577,-3.2464,-3.1555,-3.0796,-2.9803,-2.8531,-2.74,0.0,0.0,0.0,0.0,0.0,0.0,0.0,0.0,0.0,0.0,0.0,0.0,0.0,0.0,0.0,0.0,0.0,0.0,0.0,0.0,0.0,0.0,0.0,0.0,0.0,0.0,0.0,0.0,0.0,-2.9292,-3.0362,-3.0331,-3.0963,-3.0888,0.0,0.0,0.0,0.0,0.0,0.0,0.0,0.0,0.0,-3.5988,-3.7526,-3.8621,-3.9184,-4.1247,-4.2343,-4.2462,-4.3704,-4.3678,-4.2481,-4.2481,-4.196,-4.0971,-4.0739,-3.9253,-3.7061,-3.7364,-3.6311,-3.4507,0.0,0.0,0.0,0.0,-3.1591,-3.1332,-3.1696,-3.1836,0.0,-3.0883,0.0,0.0,0.0,0.0,0.0,0.0,0.0,0.0,0.0,0.0,0.0,-3.0374,-3.087,-3.126,-3.0472,-2.9998,-2.9526,0.0,-2.9019,-2.8918,-2.7818,0.0,0.0,0.0,0.0,0.0,-2.8797,-2.8816,-2.9114,-2.99,-2.9968,-3.0118,-3.046,-3.0713,-3.0583,-2.9835,-2.8926,-2.7999,-2.7101,-2.5966,-2.5093,0.0,0.0,0.0,0.0,0.0,0.0,0.0,0.0,0.0,0.0,0.0,0.0,0.0,0.0,0.0,0.0,0.0,0.0,0.0,0.0,0.0,0.0,0.0,0.0,0.0,0.0,0.0,0.0,-2.9149,-3.0078,-2.9951,-3.1043,-3.1004,0.0,0.0,0.0,0.0,0.0,0.0,-3.3946,-3.404,-3.4595,-3.5784,-3.7675,-3.9136,-4.0158,-4.1742,-4.2955,-4.3846,-4.3983,-4.3481,-4.2466,-4.2333,-4.1445,-4.006,-3.9931,-3.9279,-3.8316,-3.8322,-3.7232,-3.5503,-3.4649,-3.3302,-3.1894,-3.2114,-3.1587,-3.0916,-3.1619,-3.1871,-3.172,-3.0795,0.0,-2.9963,-2.7836,0.0,0.0,0.0,0.0,-2.8012,-2.9224,-2.9966,-3.0411,-3.0376,-3.0767,-3.0997,-3.0386,-2.9417,-2.8629,0.0,-2.854,-2.8379,-2.7631,0.0,0.0,0.0,0.0,-2.7496,-2.7482,-2.7492,-2.7659,-2.8111,-2.8164,-2.8347,-2.8791,-2.9104,-2.8926,-2.8031,-2.733,-2.6486,-2.5472,-2.4494,-2.371,-2.321,0.0,0.0,0.0,0.0,0.0,0.0,0.0,0.0,0.0,0.0,0.0,0.0,0.0,0.0,0.0,0.0,0.0,0.0,0.0,0.0,0.0,0.0,0.0,0.0,0.0,0.0,0.0,0.0,0.0,-2.9183,-3.2059,0.0,0.0,0.0,0.0,-3.1667,-3.2594,-3.3928,-3.566,-3.6065,-3.6974,-3.8648,-3.9336,-3.9994,-4.0594,-4.1188,-4.1514,-4.1572,-4.2045,-4.2085,-4.1538,-4.1053,-4.0508,-3.9965,-3.9494,-3.9193,-3.9021,-3.7785,-3.6008,-3.3984,-3.3825,-3.2704,-3.1344,-3.2081,-3.2116,-3.1628,-3.1069,-3.091,-3.0887,-3.0221,-2.9782,-2.9354,-2.8762,-2.8644,0.0,0.0,-2.8634,-2.8746,-2.9291,-2.9762,-2.9991,-2.9569,-2.9902,-3.0,-2.9025,-2.811,-2.7801,0.0,-2.7794,-2.6912,-2.7407,0.0,-2.6913,-2.743,-2.7484,-2.7484,-2.7497,-2.751,-2.7503,-2.7529,-2.7542,-2.7555,-2.7581,-2.8634,-2.8616,-2.6999,-2.7369,-2.6692,-2.4546,-2.3882,-2.3238,-2.2647,-2.2622,0.0,0.0,0.0,0.0,0.0,0.0,0.0,0.0,0.0,0.0,0.0,0.0,0.0,0.0,0.0,0.0,0.0,0.0,0.0,0.0,0.0,0.0,0.0,0.0,0.0,0.0,0.0,0.0,-3.1784,-3.3741,0.0,-3.2614,-3.2679,-3.3166,-3.4128,-3.3956,-3.4611,-3.6531,-3.6637,-3.7076,-3.7963,-3.9314,-4.0151,-4.0329,-4.1364,-4.1776,-4.1443,-4.1306,-4.0603,-3.9389,-3.8764,-3.7967,-3.7011,-3.6549,-3.6344,-3.6312,-3.5843,-3.5896,-3.6225,-3.5817,-3.4434,-3.2757,-3.2727,-3.2038,-3.1062,-3.084,-3.0747,-3.0674,-3.0193,-2.9097,-2.8074,-2.8142,-2.8023,-2.796,-2.846,-2.8636,-2.8737,-2.9197,-2.9442,-2.9408,-2.8638,-2.8363,-2.8148,-2.7492,-2.6847,-2.653,-2.6947,-2.6587,-2.622,-2.6142,-2.6189,-2.6207,-2.6094,-2.6299,-2.6483,-2.6483,-2.6483,-2.6483,-2.6483,-2.6483,-2.66,-2.6882,-2.6735,-2.6396,-2.5871,-2.513,-2.4226,-2.3163,-2.2583,-2.2024,-2.151,-2.151,-2.1353,0.0,0.0,0.0,0.0,0.0,0.0,0.0,0.0,0.0,0.0,0.0,0.0,0.0,0.0,0.0,0.0,0.0,0.0,0.0,0.0,0.0,0.0,0.0,0.0,0.0,0.0,-3.2301,-3.2448,-3.4514,-3.5312,-3.3901,-3.4361,-3.505,-3.5936,-3.5837,-3.6186,-3.7316,-3.7451,-3.756,-3.7726,-3.8908,-3.9506,-3.9506,-4.0222,-4.0482,-4.0137,-3.9648,-3.8748,-3.7496,-3.7111,-3.6249,-3.519,-3.5045,-3.4807,-3.4598,-3.4754,-3.5412,-3.6387,-3.6164,-3.4915,-3.3228,-3.2747,-3.1865,-3.0895,-3.0739,-3.0584,-3.0398,-3.0098,-2.9063,-2.8028,-2.8483,-2.8307,-2.8079,-2.868,-2.8731,-2.868,-2.899,-2.9073,-2.8835,-2.7924,-2.7479,-2.7133,-2.6511,-2.6009,-2.5651,-2.5651,-2.5678,-2.5627,-2.5399,-2.5429,-2.5393,-2.5159,-2.5334,-2.5487,-2.5487,-2.5487,-2.5487,-2.5487,-2.5487,-2.5632,-2.5912,-2.5523,-2.4962,-2.4353,-2.3548,-2.2674,-2.1659,-2.1273,-2.0953,-2.0634,-2.0634,-2.053,-2.0347,0.0,0.0,0.0,0.0,0.0,0.0,0.0,0.0,0.0,0.0,0.0,0.0,0.0,0.0,0.0,0.0,0.0,0.0,0.0,0.0,0.0,0.0,0.0,-2.8115,-3.0748,-3.2344,-3.1019,-3.4414,-3.5987,-3.3741,-3.5966,-3.7363,-3.6887,-3.8088,-3.8657,-3.8212,-3.8595,-3.8626,-3.8202,-3.8171,-3.8171,-3.8171,-3.7705,-3.7467,-3.7446,-3.7001,-3.6535,-3.607,-3.607,-3.5583,-3.4816,-3.518,-3.4859,-3.4142,-3.4588,-3.4515,-3.4093,-3.4598,-3.3906,-3.2618,-3.2153,-3.1764,-3.1329,-3.0864,-3.0398,-2.9994,-3.0015,-2.9684,-2.9373,-2.9849,-2.9673,-2.9301,-2.9301,-2.897,-2.8607,-2.8597,-2.8587,-2.8349,-2.7496,-2.7268,-2.6998,-2.6051,-2.5513,-2.5168,-2.5168,-2.5147,-2.5132,-2.5239,-2.4837,-2.4542,-2.4622,-2.4648,0.0,-2.4636,-2.466,-2.466,-2.466,-2.466,-2.4636,-2.4684,-2.5119,-2.4539,-2.2503,-2.289,-2.2252,-2.0161,-2.0085,-2.0096,-2.0096,-2.0096,-2.0325,-2.076,0.0,0.0,0.0,0.0,0.0,0.0,0.0,0.0,0.0,0.0,0.0,0.0,0.0,0.0,0.0,0.0,0.0,0.0,0.0,0.0,0.0,0.0,-2.7563,-2.9158,-3.2697,-3.5045,-3.4662,-3.6794,-3.7912,-3.6949,-3.815,-3.8657,-3.786,-3.845,-3.8657,-3.8212,-3.8295,-3.8316,-3.8191,-3.786,-3.7684,-3.7684,-3.7229,-3.6825,-3.6494,-3.6359,-3.5894,-3.5128,-3.5128,-3.4807,-3.4308,-3.4031,-3.3793,-3.3575,-3.3699,-3.3689,-3.3634,-3.371,-3.3337,-3.2618,-3.2153,-3.1905,-3.1795,-3.134,-3.0667,-3.0056,-3.0387,-2.9735,-2.8949,-2.9746,-2.9673,-2.9301,-2.9301,-2.897,-2.8535,-2.8204,-2.7872,-2.7537,-2.6946,-2.6258,-2.572,-2.5461,-2.5003,-2.4683,-2.4683,-2.469,-2.4577,-2.432,-2.4363,-2.4227,-2.3624,-2.3807,0.0,-2.3494,-2.3449,-2.3449,-2.3449,-2.3449,-2.3631,-2.4026,-2.3449,-2.2778,-2.1998,-2.1444,-2.0588,-1.9417,-1.9689,-1.9868,-1.9868,-1.9868,-1.9965,0.0,0.0,0.0,0.0,0.0,0.0,0.0,0.0,0.0,0.0,0.0,0.0,0.0,0.0,0.0,0.0,0.0,0.0,0.0,0.0,0.0,0.0,-2.5718,-2.7653,-2.9122,-3.2597,-3.5251,-3.5912,-3.7278,-3.8187,-3.8212,-3.8623,-3.8677,-3.8243,-3.8749,-3.8854,-3.8222,-3.8357,-3.8378,-3.8191,-3.7922,-3.7695,-3.7498,-3.7032,-3.6566,-3.6111,-3.5914,-3.5449,-3.4816,-3.4816,-3.4463,0.0,-3.3758,-3.3451,-3.312,-3.3296,-3.3265,0.0,0.0,0.0,0.0,0.0,-3.174,-3.1464,-3.1402,-3.0646,-2.9777,-3.0243,-2.9591,-2.8752,-2.9487,-2.9384,-2.897,-2.8783,-2.84,-2.7986,-2.7717,-2.7314,-2.6895,-2.6438,-2.574,-2.5137,-2.4941,-2.4683,-2.4497,-2.4497,-2.4497,0.0,-2.396,-2.3908,-2.3643,-2.2948,-2.2868,-2.2798,-2.251,-2.2515,-2.2515,-2.2515,-2.2515,-2.2622,-2.2938,-2.2382,0.0,0.0,0.0,-2.0247,-1.9419,-1.9407,0.0,0.0,0.0,-1.9198,-1.9567,0.0,0.0,0.0,-2.0052,-1.9895,0.0,0.0,0.0,0.0,0.0,0.0,0.0,0.0,0.0,0.0,0.0,0.0,0.0,0.0,0.0,0.0,-2.6667,-2.8451,-2.851,-3.1127,-3.3612,-3.5138,-3.621,-3.7006,-3.7584,-3.7609,-3.7629,-3.7614,-3.842,-3.8593,-3.7878,0.0,0.0,0.0,0.0,-3.7829,-3.7425,-3.6908,-3.6442,-3.6028,-3.5614,-3.5159,-3.4743,-3.4743,-3.4235,-3.3327,-3.3741,-3.3345,-3.2461,-3.2899,-3.2711,-3.2221,-3.2973,-3.2996,-3.2545,-3.2132,-3.1502,-3.0784,-3.1158,0.0,0.0,-2.9473,-2.9044,-2.85,-2.8901,-2.8777,-2.8415,-2.7961,-2.7476,-2.7084,-2.7132,-2.6702,-2.6115,-2.5805,-2.5338,-2.4861,-2.4364,-2.4272,-2.4272,-2.4272,-2.4229,-2.4086,-2.3824,-2.3536,-2.3163,-2.2656,-2.2221,-2.1942,-2.189,-2.1838,-2.1807,-2.1807,0.0,0.0,-2.1693,-2.1645,-2.1374,-2.0923,-2.0841,-2.0483,-1.976,-1.9189,-1.8872,-1.886,-1.8378,-1.8486,-1.9193,-1.9164,-1.9192,-1.9182,-1.8826,-1.8826,0.0,0.0,0.0,0.0,0.0,0.0,0.0,0.0,0.0,0.0,0.0,0.0,0.0,0.0,0.0,-2.3509,-2.4675,-2.5991,-2.7563,-2.9151,-3.0737,-3.2444,-3.3451,-3.3955,-3.3696,-3.4919,-3.512,-3.3793,-3.4762,-3.5417,-3.5471,-3.587,-3.6578,-3.7693,-3.7326,-3.7032,-3.6939,-3.6101,-3.5645,-3.5552,0.0,0.0,-3.4266,-3.4266,-3.371,-3.2861,-3.2944,-3.2102,-3.0752,-3.0889,-3.0089,-2.9033,-3.1388,-3.2194,-3.2112,-3.2019,-3.163,-3.1114,-3.0569,-2.9208,-2.7708,-2.7283,-2.7227,-2.7306,-2.7211,-2.7572,0.0,-2.7429,-2.648,-2.567,-2.6245,-2.5119,-2.3894,-2.4401,-2.4151,-2.3636,-2.295,-2.2921,-2.3008,-2.2843,-2.2492,-2.2412,-2.2909,-2.3705,-2.4002,-2.3174,-2.2977,-2.278,-2.2408,-2.2035,-2.1807,-2.1807,-2.1367,-2.1059,-2.1059,-2.0576,-2.0082,-1.9601,-1.9256,-1.915,-1.9323,-1.8896,-1.8803,-1.9108,-1.9033,-1.9033,-1.9193,-1.9075,-1.9043,-1.9043,-1.8961,-1.8758,0.0,0.0,0.0,0.0,0.0,0.0,0.0,0.0,0.0,0.0,0.0,-2.0252,0.0,0.0,-2.2579,-2.3874,-2.4766,-2.5717,-2.6881,-2.7692,-2.8972,-3.1104,-3.1789,-3.2165,-3.2254,-3.2729,-3.28,-3.2333,-3.3044,-3.3469,-3.3472,-3.3659,-3.3984,-3.4595,-3.4316,-3.4064,-3.3861,-3.3364,-3.3046,-3.2771,-3.2771,-3.2435,-3.1831,-3.1671,-3.1238,-3.0563,-3.0352,-2.9837,-2.912,-2.912,-2.8637,-2.8015,-2.9425,-2.9815,-2.9623,-2.9623,-2.9193,-2.8643,-2.8512,-2.7419,-2.6125,-2.59,-2.5757,-2.5633,-2.5384,-2.5563,-2.573,-2.5163,-2.4494,-2.3983,-2.4202,-2.3288,-2.2455,-2.2819,-2.2553,-2.2076,-2.1712,-2.1747,-2.1791,-2.1667,-2.1445,-2.1371,-2.1543,-2.2197,-2.2673,-2.2644,-2.22,-2.1769,-2.1511,-2.1491,-2.1313,-2.0906,-2.0781,-2.0624,-2.044,-1.9904,-1.9496,-1.9262,-1.9057,-1.8955,-1.8907,-1.8457,-1.8381,-1.8735,-1.8264,-1.8091,-1.8294,-1.8218,-1.8072,-1.787,-1.787,-1.7969,0.0,0.0,0.0,0.0,0.0,0.0,0.0,0.0,-1.9945,-2.0647,-2.1006,-2.1467,-2.2389,-2.2959,-2.364,-2.4679,-2.5505,-2.6157,-2.6544,-2.6771,-2.7662,-2.9827,-3.0097,-3.0326,-3.0896,-3.0593,-3.0564,-3.0997,-3.1474,-3.1669,-3.1565,-3.1547,-3.1568,-3.1598,-3.1497,-3.1274,-3.0914,-3.0834,-3.0564,-3.0189,-3.0189,-2.9986,-2.9605,-2.9279,-2.8818,-2.8359,-2.7729,-2.7434,-2.7443,-2.7073,-2.6961,-2.6961,-2.6961,-2.673,-2.6388,-2.7035,-2.6712,-2.6044,-2.6338,-2.559,-2.4527,-2.4527,-2.4322,-2.3992,-2.36,-2.3563,-2.3503,-2.2846,-2.2496,-2.2263,-2.2126,-2.1567,-2.1092,-2.123,-2.0993,-2.0674,-2.0539,-2.0531,-2.0531,-2.0494,-2.0404,-2.0257,-2.0027,-2.0157,-2.0624,-2.1623,-2.0993,-2.0447,-2.0447,-2.068,-2.0545,-1.9928,-1.9999,-1.9915,-1.9421,-1.9065,-1.8869,-1.8789,-1.8789,-1.8646,-1.8246,-1.7826,-1.7717,-1.797,-1.7175,-1.6926,-1.727,-1.727,-1.7066,-1.6689,-1.6689,-1.7066,-1.8394,-1.8277,-1.8628,-1.9687,-1.9616,-1.974,0.0,0.0,-2.1686,-2.2601,-2.282,-2.3054,-2.3742,-2.3925,-2.4386,-2.5652,-2.5944,-2.623,-2.6852,-2.672,-2.6623,-2.6974,-2.7234,-2.7366,-2.7147,-2.7882,-2.8202,-2.7623,-2.8194,-2.8883,-2.9464,-2.9574,-3.0207,-3.1554,-3.1207,-3.095,-3.0905,-3.0494,-3.0234,-3.0189,-3.0189,-2.9986,-2.9605,-2.9279,-2.8818,-2.8298,-2.6516,-2.5757,-2.5635,-2.4255,-2.3651,-2.3651,-2.3651,-2.3449,-2.3445,-2.6329,-2.6598,-2.5524,-2.5284,-2.4346,-2.3111,-2.2605,-2.2702,-2.2835,-2.2253,-2.2409,-2.2709,-2.2235,-2.1304,-2.0597,-2.1191,-2.0222,-1.9282,-1.9953,-2.0056,-1.9849,-1.918,-1.9155,-1.9231,-1.9088,-1.8719,-1.8506,-1.8831,-1.8452,-1.869,-2.0261,-2.0391,-2.033,-2.033,-2.0011,-1.9747,-1.9658,-1.9135,-1.8472,-1.7594,-1.7443,-1.7306,-1.6992,-1.7009,-1.6952,-1.6911,-1.683,-1.6838,-1.6879,-1.6756,-1.6731,-1.6779,-1.6779,-1.6738,-1.6689,-1.6689,-1.6738,-1.9455,-1.9425,-1.9696,-2.0808,-2.1028,-2.1306,-2.2608,-2.2703,-2.274,-2.3515,-2.383,-2.4101,-2.4562,-2.4803,-2.5162,0.0,-2.6171,-2.6464,-2.6925,-2.6713,-2.6361,-2.5981,-2.6222,-2.6449,-2.65,-2.6735,-2.6932,-2.6961,-2.6919,-2.7064,-2.7602,-2.7313,-2.7362,-2.8037,-2.7689,-2.7493,-2.7493,-2.735,-2.7203,-2.7203,-2.7203,-2.7132,-2.6972,-2.6415,-2.585,-2.5246,-2.444,-2.407,-2.407,-2.3347,-2.2996,-2.2828,-2.2828,-2.252,-2.2304,-2.3954,-2.4055,-2.3216,-2.2923,-2.2305,-2.1589,-2.0983,-2.0878,-2.0978,-2.0514,-2.0369,-2.0353,-1.9956,-1.9363,-1.8799,-1.8918,-1.8443,-1.7978,-1.8295,-1.838,-1.8288,-1.7978,-1.7971,-1.801,-1.7932,-1.7753,-1.7702,-1.7864,-1.7689,-1.7743,-1.8451,-1.8705,-1.8837,-1.8837,-1.8991,-1.8999,-1.8611,-1.8079,-1.753,-1.6943,-1.6711,-1.6482,-1.6343,-1.6368,-1.6368,-1.6368,-1.6368,-1.6451,-1.6689,-1.6451,-1.6368,-1.6368,-1.6368,-1.6203,-1.5955,-1.5955,-1.5955,-1.9296,-1.9464,-1.9794,-2.0903,-2.1346,-2.1758,-2.2455,-2.2801,-2.3214,-2.3766,-2.4333,-2.4841,-2.5083,-2.5249,-2.5535,-2.5944,-2.6215,-2.6486,-2.6808,-2.65,-2.6061,-2.5586,-2.5505,-2.5681,-2.6186,-2.6105,-2.6208,-2.6683,-2.6281,-2.612,-2.6354,-2.5835,-2.5527,-2.5527,-2.522,-2.5083,-2.4987,-2.4987,-2.4943,-2.4788,-2.4788,-2.4788,-2.4766,-2.4203,-2.364,-2.3106,-2.3106,-2.3054,-2.2981,-2.3069,-2.2871,-2.2513,-2.2593,-2.2242,-2.1752,-2.2198,-2.203,-2.1511,-2.1189,-2.0918,-2.0633,-2.0077,-1.9835,-1.9757,-1.9426,-1.8986,-1.8584,-1.8262,-1.7933,-1.7625,-1.7344,-1.7279,-1.7279,-1.7279,-1.7279,-1.7279,-1.7279,-1.7279,-1.7279,-1.7279,-1.7279,-1.7304,-1.7216,-1.7201,-1.7165,-1.7077,-1.7326,-1.7601,-1.7642,-1.8093,-1.8217,-1.7712,-1.7363,-1.6978,-1.6629,-1.6278,-1.6027,-1.5888,-1.5922,-1.5922,-1.5922,-1.5922,-1.6046,-1.6327,-1.6046,-1.5922,-1.5922,-1.5922,-1.5722,-1.5389,-1.5389,-1.5389,-1.7306,-1.7654,-1.8191,-1.9506,-1.9858,-2.0143,-2.1111,-2.217,-2.2996,-2.3379,-2.4278,-2.5112,-2.5127,-2.5134,-2.5279,-2.5915,-2.6025,-2.6149,-2.6471,-2.5966,-2.5549,-2.5535,-2.4708,-2.451,0.0,-2.5842,-2.6025,-2.6047,-2.6025,-2.6018,-2.6032,-2.571,-2.5527,-2.5527,-2.522,-2.4973,-2.465,-2.465,-2.4423,-2.4108,-2.4108,-2.4108,-2.4101,-2.3764,-2.3427,-2.3106,-2.3106,-2.293,-2.2659,-2.2981,-2.2747,-2.2228,-2.2513,-2.2242,-2.1701,-2.1715,-2.1511,-2.1181,-2.0852,-2.0728,-2.0669,-2.0278,-2.0018,-1.9757,-1.9426,-1.8825,-1.8247,-1.7918,-1.7549,-1.7293,-1.7286,-1.7279,-1.7279,-1.7279,-1.7279,-1.7279,-1.7279,-1.7279,-1.7279,-1.7279,-1.7279,-1.723,-1.6969,-1.6917,-1.6807,-1.6492,-1.669,-1.6998,-1.726,-1.7318,-1.7318,-1.7296,-1.7057,-1.6786,-1.6455,-1.611,-1.5767,-1.5445,-1.5431,-1.5431,-1.5431,-1.5431,-1.5431,-1.5431,-1.5431,-1.5431,-1.5431,-1.5431,-1.5431,-1.5389,-1.5389,-1.5389,-1.7355,-1.8191,-1.9214,-2.0238,-2.0636,-2.1019,-2.1728,-2.2003,-2.2115,-2.2098,-2.2578,-2.2979,-2.2841,-2.3314,-2.3976,-2.4627,-2.5271,-2.5886,-2.6427,-2.631,-2.6018,-2.5579,-2.5242,0.0,0.0,0.0,0.0,-2.5952,-2.5418,-2.5337,-2.5981,-2.5505,-2.5315,-2.552,-2.5008,-2.4679,-2.4569,-2.4357,-2.4188,-2.4086,-2.4086,-2.3969,-2.3757,-2.3647,-2.342,-2.3098,-2.2879,-2.2725,-2.2615,-2.2528,-2.2242,-2.1869,-2.1972,-2.1745,-2.135,-2.113,-2.0984,-2.0837,-2.0453,-2.0259,-2.0033,-1.9703,-1.9528,-1.9434,-1.9052,-1.865,-1.8233,-1.7911,-1.7582,-1.7279,-1.7279,-1.7279,-1.7279,-1.7279,-1.7279,-1.7279,-1.7279,-1.7279,-1.7279,-1.7279,-1.7279,-1.7296,-1.7186,-1.7172,-1.6989,-1.6492,-1.669,-1.7013,-1.7289,-1.7279,-1.7165,-1.674,-1.6639,-1.6316,-1.5789,-1.5608,-1.5506,-1.5396,-1.5389,-1.5389,-1.5389,-1.5389,-1.5389,-1.5389,-1.5389,-1.5389,-1.5389,-1.5389,-1.5389,-1.5389,-1.5389,-1.5173,-1.7044,-1.8021,-1.8916,-1.9681,-2.0061,-2.0277,-2.0678,-2.0814,-2.0811,-2.0611,-2.0986,-2.1346,-2.1058,-2.1568,-2.2292,-2.3142,-2.3888,-2.4553,-2.5234,-2.5149,-2.4881,-2.4498,-2.4488,-2.4535,0.0,0.0,0.0,-2.56,-2.5096,-2.5015,-2.5644,-2.5279,-2.5096,-2.5183,-2.4788,-2.4459,-2.4225,-2.4013,-2.3852,-2.3735,-2.3735,-2.3625,-2.342,-2.3303,-2.3135,-2.2915,-2.2601,-2.2396,-2.2286,-2.2213,-2.192,-2.1525,-2.1525,-2.132,-2.0998,-2.0613,-2.0479,-2.0347,-2.0142,-1.993,-1.9764,-1.9434,-1.9199,-1.9038,-1.8716,-1.8386,-1.8057,-1.7735,-1.7494,-1.7279,-1.7279,-1.7279,-1.7279,-1.7279,-1.7279,-1.7279,-1.7279,-1.7279,-1.7279,-1.7279,-1.7279,-1.7279,-1.7279,-1.7279,-1.7186,-1.6769,-1.6887,-1.6974,-1.6843,-1.6916,-1.6828,-1.6455,-1.6272,-1.6045,-1.5635,-1.5455,-1.5389,-1.5389,-1.5173,-1.5041,-1.5041,-1.479,-1.4797,-1.5041,-1.479,-1.479,-1.5041,-1.479,-1.4706,-1.4706,-1.4706,-1.4447,-1.638,-1.6996,-1.7491,-1.7959,-1.8073,-1.8073,-1.8073,-1.8682,-1.9211,-1.8923,-1.9548,-2.0085,0.0,-1.9895,-2.0322,-2.1595,-2.2009,-2.2428,-2.3202,-2.2781,-2.2444,0.0,0.0,0.0,0.0,0.0,0.0,-2.4924,0.0,-2.5105,-2.5127,-2.5105,-2.4958,-2.4576,-2.454,-2.4218,-2.3603,-2.3581,-2.3413,-2.3106,-2.3106,-2.3098,-2.3069,-2.2762,-2.2615,-2.2579,-2.2286,-2.1986,-2.1723,-2.2015,-2.1767,-2.1211,-2.1189,-2.0998,-2.0684,-2.0285,-2.0025,-1.9815,-1.9793,-1.9793,-1.9742,-1.936,-1.9038,-1.8723,-1.8379,-1.8064,-1.7743,-1.7374,-1.7279,-1.7279,-1.7279,-1.7279,-1.7279,-1.7279,-1.7279,-1.7279,-1.7279,-1.7279,-1.7279,-1.7279,-1.7279,-1.7279,-1.7232,-1.7225,-1.721,-1.7163,-1.7149,-1.6868,-1.6053,-1.6221,-1.6433,-1.6367,-1.6053,-1.582,-1.5763,-1.548,-1.5305,-1.5305,-1.4699,-1.4356,-1.4356,-1.373,-1.3688,-1.4356,-1.3743,-1.3701,-1.4356,-1.3701,-1.3411,-1.3398,-1.3398,-1.3398,-1.6109,-1.6806,-1.7448,-1.7739,-1.7814,-1.7814,-1.7814,-1.7832,-1.7752,-1.7144,-1.7413,-1.7619,-1.7216,-1.8089,-1.9123,-2.0022,-2.1084,0.0,-2.2911,-2.3092,0.0,-2.2806,0.0,-2.2924,-2.2937,-2.283,0.0,0.0,-2.4003,-2.487,-2.5112,-2.4892,-2.4723,-2.4576,-2.4101,-2.3764,-2.3596,-2.3354,-2.3186,-2.3106,-2.3106,-2.2981,-2.274,-2.2659,-2.2506,-2.2279,-2.1957,-2.1774,-2.1686,-2.1525,-2.1357,-2.1189,-2.094,-2.0794,-2.0655,-2.0091,-1.9835,-1.9779,-1.9536,-1.9456,-1.9345,-1.9023,-1.8855,-1.8686,-1.8108,-1.7882,-1.7743,-1.7374,-1.7279,-1.7279,-1.7279,-1.7279,-1.7279,-1.7279,-1.7279,-1.7279,-1.7279,-1.7279,-1.7279,-1.7279,-1.7279,-1.7138,-1.6567,-1.6285,-1.5894,-1.5385,-1.5061,-1.5413,-1.6755,-1.6828,-1.6503,-1.573,-1.5341,-1.4854,-1.4117,-1.3946,-1.3906,-1.3906,-1.373,-1.3646,-1.3646,-1.3476,-1.3476,-1.3646,-1.3632,-1.3638,-1.3646,-1.3638,-1.3552,-1.3398,-1.3398,-1.3137,-1.6355,-1.6958,-1.7534,-1.7561,-1.7566,-1.7486,-1.7173,-1.7001,-1.6678,-1.586,-1.5884,-1.5919,-1.553,-1.6309,-1.7303,0.0,0.0,0.0,-2.1438,-2.1622,-2.1661,0.0,-2.1976,0.0,-2.2074,-2.2228,-2.23,0.0,-2.2853,-2.3356,-2.3472,-2.3313,-2.3098,-2.2828,-2.2482,-2.224,-2.2045,-2.1872,-2.1783,-2.1783,-2.1645,-2.1493,-2.132,-2.1105,-2.0898,-2.0732,0.0,-2.023,-2.0216,-2.0044,-1.9975,-1.9934,-1.9492,-1.9326,-1.925,-1.8643,-1.8422,-1.8395,-1.8222,-1.816,-1.8237,-1.8854,-1.8811,-1.8503,-1.8138,-1.783,-1.756,-1.733,-1.7279,-1.7279,-1.7279,-1.7279,-1.7232,-1.6904,-1.681,-1.6716,-1.6379,-1.6332,-1.6332,-1.6332,-1.6332,-1.619,-1.5812,-1.5577,-1.5284,-1.4863,-1.4682,-1.4968,-1.6189,-1.5952,-1.5434,-1.4912,-1.465,-1.4315,-1.3767,-1.371,-1.371,-1.371,-1.333,-1.309,-1.309,-1.2685,-1.2625,-1.296,-1.2769,-1.278,-1.309,-1.2893,-1.2762,-1.2669,-1.2669,-1.2394,-1.6894,-1.7308,-1.7583,-1.7421,-1.733,-1.7103,-1.642,-1.6242,-1.5946,-1.4988,-1.4815,-1.4767,-1.4536,-1.4823,-1.5538,-1.669,0.0,-1.8347,-1.9525,-1.9594,-1.9541,-1.9864,-2.0603,-2.1121,-2.1331,-2.177,-2.2,-2.1745,-2.1439,-2.1283,-2.135,-2.1299,-2.1044,-2.0527,-2.0508,-2.0393,-2.0081,-2.0075,-2.0062,-2.0017,-1.9838,-1.9685,-1.9596,-1.9098,-1.8909,-1.8799,0.0,0.0,-1.8389,-1.8389,-1.8364,-1.8165,-1.7704,-1.7482,-1.7331,-1.6813,-1.6624,-1.6677,-1.6677,-1.6677,-1.6929,-1.8383,-1.8448,-1.7987,-1.7901,-1.7484,-1.6998,-1.6998,-1.6951,-1.6897,-1.6897,-1.685,-1.6608,-1.5994,-1.5852,-1.5663,-1.5045,-1.4902,-1.4908,-1.5003,-1.4956,-1.4854,-1.486,-1.4758,-1.4711,-1.4615,-1.4567,-1.4567,-1.4567,-1.4263,-1.4037,-1.4043,-1.3915,-1.3832,-1.3795,-1.3795,-1.3783,-1.3746,-1.2942,-1.251,-1.2422,-1.1706,-1.1559,-1.2149,-1.1635,-1.1734,-1.251,-1.1987,-1.1682,-1.1655,-1.1593,-1.1503,-1.698,-1.7066,-1.7168,-1.7335,-1.7082,-1.6715,-1.619,-1.586,0.0,-1.4509,-1.4466,-1.4525,-1.4299,-1.4632,-1.5277,-1.6237,-1.6861,-1.7691,0.0,0.0,-1.9327,0.0,0.0,0.0,0.0,0.0,0.0,0.0,0.0,-1.9397,-2.0997,-2.0833,-2.0553,-2.0227,-2.0215,-2.0189,-2.0075,-2.0075,-1.9966,-1.98,-1.9687,-1.9475,-1.9015,-1.8913,-1.8741,-1.8459,-1.8409,0.0,-1.8389,-1.8389,-1.8012,-1.7367,-1.6992,-1.6735,-1.6508,-1.6137,-1.6299,-1.6677,-1.6677,-1.6677,-1.6706,-1.6535,-1.6415,-1.6238,-1.5774,-1.5558,-1.548,-1.548,-1.5181,-1.4841,-1.4841,-1.4501,-1.4106,-1.4016,-1.3968,-1.392,-1.3824,-1.3776,-1.3926,-1.4364,-1.407,-1.3686,-1.3505,-1.3065,-1.2587,-1.1965,-1.1873,-1.1873,-1.1873,-1.3006,-1.3809,-1.3694,-1.3032,-1.2456,-1.2126,-1.2115,-1.2026,-1.1783,-1.1646,-1.1354,-1.0996,-1.1192,-1.117,-1.0939,-1.14,-1.1608,-1.1538,-1.1646,-1.1602,-1.1375,-1.112,-1.1227,-1.72,-1.7287,-1.7378,-1.7378,-1.7109,-1.6619,-1.5779,0.0,0.0,-1.4196,-1.4191,-1.4326,-1.4213,-1.4573,-1.5074,-1.5666,-1.6151,-1.6958,0.0,0.0,0.0,0.0,0.0,0.0,0.0,0.0,0.0,0.0,0.0,-1.8188,-1.925,-1.8941,-1.8671,-1.8477,-1.8477,-1.8477,-1.8477,-1.8349,-1.8283,-1.816,-1.789,-1.7442,-1.6891,-1.6754,-1.6391,-1.5924,-1.5924,0.0,-1.5972,-1.584,-1.5602,-1.5171,-1.481,-1.46,-1.4471,-1.4185,-1.4261,-1.4482,-1.4482,-1.4482,-1.4415,-1.4047,-1.4816,-1.5777,-1.5258,-1.4928,-1.4609,-1.4364,-1.407,-1.3872,-1.3872,-1.368,-1.3392,-1.2958,-1.2576,-1.2296,-1.2296,-1.2296,-1.2393,-1.2635,-1.249,-1.2247,-1.2106,-1.1917,-1.1624,-1.1243,-1.1194,-1.1194,-1.1194,-1.1676,-1.2086,-1.2342,-1.2004,-1.1659,-1.1458,-1.1453,-1.1361,-1.1256,-1.11,-1.089,-1.0586,-1.0662,-1.0592,-1.0294,-1.0835,-1.1028,-1.0774,-1.1151,-1.1146,-1.0779,-1.078,-1.082,-1.7378,-1.7545,-1.7663,-1.7437,-1.7114,-1.656,-1.537,-1.5076,-1.4786,-1.3933,-1.3986,-1.4175,-1.4126,-1.4412,-1.4751,-1.499,-1.5408,-1.6161,-1.7653,0.0,0.0,0.0,0.0,0.0,0.0,0.0,0.0,0.0,0.0,0.0,-1.7561,-1.708,-1.6807,-1.6807,-1.6618,-1.6553,-1.6553,-1.6328,-1.6255,-1.6202,-1.5782,-1.5252,-1.472,-1.4475,-1.4157,-1.3688,-1.3688,0.0,0.0,-1.3457,-1.3285,-1.3089,-1.2777,-1.2604,-1.2492,-1.2334,-1.2273,-1.2387,-1.2387,-1.2387,-1.2358,-1.2243,-1.3466,-1.4951,-1.4488,-1.4002,-1.3547,-1.3108,-1.2909,-1.2861,-1.2861,-1.2764,-1.2522,-1.1853,-1.1282,-1.0855,-1.0855,-1.0855,-1.0904,-1.0998,-1.0953,-1.0904,-1.0998,-1.0949,-1.0855,-1.0855,-1.0855,-1.0855,-1.0855,-1.0511,-1.0413,-1.0806,-1.0949,-1.1028,-1.1132,-1.1127,-1.109,-1.1,-1.0796,-1.0571,-1.0315,-1.0241,-1.0077,-0.9868,-1.025,-1.0372,-1.0232,-1.0598,-1.0598,-1.0236,-1.0313,-1.0351,-1.7378,-1.7545,-1.7663,-1.7437,-1.6877,-1.6118,-1.5138,0.0,-1.439,-1.3663,-1.3873,-1.4126,-1.3895,-1.389,-1.4067,-1.4469,-1.4638,-1.5235,-1.6872,0.0,0.0,0.0,0.0,0.0,0.0,0.0,0.0,0.0,0.0,0.0,-1.7012,-1.6449,-1.6099,-1.6099,-1.5453,-1.5062,-1.5062,-1.4981,-1.4779,-1.4524,-1.4284,-1.4074,-1.3837,-1.3818,-1.3748,-1.3688,-1.3688,0.0,0.0,-1.3457,-1.2968,-1.2267,-1.2046,-1.1855,-1.17,-1.1682,-1.2001,-1.2387,-1.2387,-1.2387,-1.2382,-1.2363,-1.2298,-1.214,-1.1899,-1.1671,-1.1482,-1.1433,-1.1042,-1.0699,-1.0699,-1.031,-0.992,-0.9871,-0.9772,-0.9723,-0.9723,-0.9723,-0.9875,-1.0364,-1.0068,-0.992,-1.0413,-1.0068,-0.9723,-0.9723,-0.9723,-0.9723,-0.9723,-0.9723,-0.9677,-0.9723,-1.0167,-1.0587,-1.0838,-1.0824,-1.066,-1.0331,-1.0288,-1.0006,-0.9451,-0.9818,-0.98,-0.9388,-0.982,-1.0047,-1.0023,-1.0067,-1.0067,-1.0028,-0.9741,-0.9967,-1.6696,-1.67,-1.6403,-1.6261,-1.5609,-1.4821,-1.4136,0.0,-1.3167,-1.282,-1.2933,-1.3136,-1.3282,-1.3407,-1.3623,-1.4046,-1.4234,-1.4644,-1.5491,0.0,0.0,0.0,0.0,0.0,0.0,0.0,0.0,0.0,0.0,0.0,-1.5714,-1.5453,-1.5323,-1.5323,-1.5062,-1.487,-1.4807,-1.4598,-1.4326,-1.4114,-1.3906,-1.3583,-1.3084,-1.3084,-1.2909,-1.2552,-1.2552,0.0,0.0,-1.2162,-1.1861,-1.145,-1.1257,-1.1139,-1.1076,-1.1076,-1.1185,-1.14,-1.14,-1.1276,-1.1181,-1.1181,-1.0975,-1.0715,-1.1071,-1.1047,-1.0816,-1.0349,-1.0068,-0.992,-0.992,-0.9776,-0.9579,-0.9579,-0.9579,-0.9579,-0.9579,-0.9579,-0.9677,-0.9871,-0.9723,-0.9677,-0.9871,-0.9723,-0.9579,-0.9579,-0.9579,-0.9579,-0.9579,-0.9579,-0.9579,-0.9579,-0.9772,-0.994,-1.0059,-1.0104,-0.9991,-0.9841,-0.9832,-0.9699,-0.9368,-0.9545,-0.9493,-0.9204,-0.9531,-0.9558,-0.9291,-0.949,-0.949,-0.9295,-0.9262,-0.9439,-1.5756,-1.5808,-1.559,-1.5474,-1.4718,-1.3943,-1.3462,0.0,-1.2434,-1.222,-1.229,-1.2483,-1.2694,-1.2836,-1.2998,-1.3261,-1.3481,-1.3727,-1.4151,-1.4376,0.0,0.0,0.0,0.0,0.0,0.0,0.0,0.0,0.0,0.0,0.0,-1.4218,-1.4344,-1.46,-1.4349,-1.4184,-1.4102,-1.3784,-1.3522,-1.3435,-1.3244,-1.2909,-1.2427,-1.2427,-1.2191,-1.1776,0.0,0.0,0.0,-1.1244,-1.1078,-1.1008,-1.0765,-1.0692,-1.0692,-1.0692,-1.0692,-1.0692,-1.0692,-1.0611,-1.0505,-1.0399,-1.0257,-1.0154,-1.0535,-1.0518,-1.0255,-0.9825,-0.9665,-0.9579,-0.9579,-0.9579,-0.9579,-0.9579,-0.9579,-0.9579,-0.9579,-0.9579,-0.9579,-0.9579,-0.9579,-0.9579,-0.9579,-0.9579,-0.9579,-0.9579,-0.9579,-0.9579,-0.9579,-0.9579,-0.9579,-0.9579,-0.9579,-0.9579,-0.9579,-0.9579,-0.9604,-0.9551,-0.9547,-0.9466,-0.9335,-0.9326,-0.9222,-0.91,-0.9229,-0.9132,-0.882,-0.9,-0.8979,-0.8751,-0.893,-0.9043,-1.4695,-1.5139,-1.5556,-1.5357,-1.4674,-1.3877,-1.3398,-1.2824,-1.2321,-1.2162,-1.2236,-1.2316,-1.2157,-1.212,-1.212,-1.212,-1.212,-1.2342,-1.3041,-1.3595,0.0,0.0,0.0,0.0,0.0,0.0,0.0,0.0,0.0,0.0,0.0,-1.2731,-1.3034,-1.387,-1.3047,-1.2628,-1.2628,-1.2211,-1.2032,-1.2028,-1.1857,-1.1837,-1.1837,-1.1837,-1.1837,0.0,0.0,0.0,0.0,-1.1118,-1.1028,-1.1008,-1.0765,-1.0692,-1.0692,-1.0692,-1.0692,-1.0692,-1.0692,-1.0688,-1.0664,-1.0435,-1.0379,-1.0306,-0.9998,-0.9766,-0.9665,-0.9835,-0.9758,-0.9579,-0.9579,-0.9579,-0.9579,-0.9579,-0.9579,-0.9579,-0.9579,-0.9579,-0.9579,-0.9579,-0.9579,-0.9579,-0.9579,-0.9579,-0.9579,-0.9579,-0.9579,-0.9579,-0.9579,-0.9579,-0.9579,-0.9579,-0.9579,-0.9579,-0.9579,-0.9579,-0.9551,-0.9416,-0.9404,-0.9326,-0.9108,-0.91,-0.91,-0.9096,-0.8913,-0.882,-0.882,-0.8649,-0.8612,-0.8616,-0.8743,-0.8922,-1.3141,-1.3199,-1.2981,-1.3045,-1.2496,-1.1908,-1.1784,-1.1364,-1.1035,-1.0975,-1.1108,-1.1289,-1.1474,-1.1652,-1.1805,-1.2032,-1.2243,-1.2245,0.0,0.0,0.0,0.0,0.0,0.0,0.0,0.0,0.0,0.0,0.0,0.0,0.0,-1.2661,-1.2775,-1.3157,-1.2672,-1.2389,-1.2389,-1.215,-1.1971,-1.1857,-1.1801,-1.1776,-1.1776,-1.1776,0.0,0.0,0.0,0.0,0.0,-1.1066,-1.0895,-1.0773,-1.0716,-1.0692,-1.0692,-1.0692,-1.0692,-1.0692,-1.0692,-1.0615,-1.0455,-1.0399,-1.0351,-1.0225,-1.0163,-0.9945,-0.9791,-0.9726,-0.9669,-0.9579,-0.9579,-0.9579,-0.9579,-0.9579,-0.9579,-0.9579,-0.9579,-0.9579,-0.9579,-0.9579,-0.9579,-0.9579,-0.9579,-0.9579,-0.9579,-0.9579,-0.9579,-0.9579,-0.9579,-0.9579,-0.9579,-0.9579,-0.9579,-0.9579,-0.9579,-0.9579,-0.9604,-0.9547,-0.9543,-0.9514,-0.9462,-0.9462,-0.9462,-0.9462,-0.9279,-0.9233,-0.9233,-0.9015,-0.8991,-0.9151,-0.9208,-0.9265,-1.1806,-1.1921,-1.1715,-1.189,-1.1496,-1.1066,-1.1066,-1.0789,-1.053,-1.053,-1.0615,-1.0748,-1.0894,-1.1116,-1.1285,-1.1465,-1.1652,-1.1645,0.0,0.0,0.0,0.0,0.0,0.0,0.0,0.0,0.0,0.0,0.0,0.0,0.0,-1.2564,-1.2519,-1.2633,-1.2357,-1.2203,-1.2203,-1.2024,-1.1882,-1.1776,-1.1776,-1.1776,-1.1776,-1.1776,0.0,0.0,0.0,0.0,0.0,-1.0936,-1.0798,-1.0692,-1.0692,-1.0692,-1.0692,-1.0692,-1.0651,-1.0595,-1.0595,-1.0477,-1.0322,-1.0249,-1.0107,-0.9961,-0.9961,-0.9925,-0.9847,-0.9677,-0.9579,-0.9579,-0.9579,-0.9579,-0.9579,-0.9579,-0.9579,-0.9579,-0.9579,-0.9579,-0.9579,-0.9579,-0.9579,-0.9579,-0.9579,-0.9579,-0.9579,-0.9579,-0.9579,-0.9579,-0.9579,-0.9579,-0.9579,-0.9579,-0.9579,-0.9579,-0.9579,-0.9579,-0.9579,-0.9579,-0.9579,-0.9579,-0.9579,-0.9579,-0.9579,-0.9579,-0.9445,-0.9404,-0.9404,-0.9181,-0.9185,-0.94,-0.9335,-0.9339,0.0,-1.1179,-1.148,-1.1642,-1.1419,-1.1167,-1.1167,-1.0911,0.0,-1.0688,-1.068,-1.0627,-1.0427,-1.0574,-1.0627,-1.0423,-1.0586,-1.0757,0.0,0.0,0.0,0.0,0.0,0.0,0.0,0.0,0.0,0.0,0.0,0.0,0.0,-1.2389,-1.2288,-1.2288,-1.2109,-1.2016,-1.2028,-1.1861,-1.1776,-1.1776,-1.1776,-1.1776,-1.1776,-1.1776,0.0,0.0,0.0,0.0,0.0,-1.0769,-1.0692,-1.0692,-1.0692,-1.0692,-1.0688,-1.068,-1.057,-1.0379,-1.0366,-1.0306,-1.0188,-0.9961,-0.9786,-0.9599,-0.9599,-0.975,-0.9835,-0.9673,-0.9579,-0.9579,-0.9579,-0.9579,-0.9579,-0.9579,-0.9579,-0.9579,-0.9579,-0.9579,-0.9579,-0.9579,-0.9579,-0.9579,-0.9579,-0.9579,-0.9579,-0.9579,-0.9579,-0.9579,-0.9579,-0.9579,-0.9579,-0.9579,-0.9579,-0.9579,-0.9529,-0.9579,-0.9579,-0.9579,-0.9579,-0.9579,-0.9579,-0.9529,-0.9529,-0.9579,-0.9462,-0.942,-0.942,-0.9214,-0.9218,-0.9416,-0.9163,-0.9171,-1.0448,0.0,-1.0858,-1.0773,-1.0684,-1.0564,0.0,-1.0554,-1.0534,-1.0664,-1.0586,-1.0521,-1.0615,-1.0558,-1.0526,-1.0615,-1.0668,-1.0757,0.0,0.0,0.0,0.0,0.0,0.0,0.0,0.0,0.0,0.0,0.0,-1.2609,0.0,-1.2264,-1.2097,-1.2097,-1.1926,-1.1898,-1.2028,-1.1861,-1.1776,-1.1776,-1.1776,-1.1776,-1.1776,-1.1776,0.0,0.0,0.0,0.0,-1.0956,-1.0769,-1.0692,-1.0692,-1.0692,-1.0692,-1.0676,-1.0546,-1.0415,-1.0416,-1.0274,-1.0249,-1.0208,-1.0163,-0.9973,-0.9823,-0.9823,-0.9762,-0.9681,-0.9591,-0.9579,-0.9579,-0.9579,-0.9579,-0.9579,-0.9579,-0.9579,-0.9579,-0.9579,-0.9579,-0.9579,-0.9579,-0.9579,-0.9579,-0.9579,-0.9579,-0.9579,-0.9579,-0.9579,-0.9579,-0.9579,-0.9579,-0.9579,-0.9579,-0.9579,-0.9327,-0.873,-0.9229,-0.9579,-0.9579,-0.9579,-0.9579,-0.9579,-0.9031,-0.8977,-0.9579,-0.9587,-0.9563,-0.9563,-0.9522,-0.9522,-0.9514,-0.8882,-0.8588,-1.0233,-1.044,-1.057,-1.0558,-1.0554,-1.053,-1.0399,-1.0383,-1.0383,-1.0448,-1.0375,-1.0339,-1.0432,-1.044,-1.0465,-1.0558,-1.0712,0.0,0.0,0.0,0.0,0.0,0.0,0.0,0.0,0.0,0.0,0.0,0.0,-1.2491,0.0,-1.2134,-1.1996,-1.1914,-1.1825,-1.1821,-1.1914,-1.1825,-1.1776,-1.1776,-1.1776,-1.1732,-1.165,-1.165,-1.1508,0.0,0.0,0.0,-1.0834,-1.0733,-1.0692,-1.0684,-1.0603,-1.0574,-1.0554,-1.0375,-1.0257,-1.0168,-1.0071,-0.9981,-0.9916,-0.9916,-0.9595,-0.921,-0.921,-0.8898,-0.8721,-0.9401,-0.9685,-0.973,-0.9599,-0.9685,-0.9726,-0.9599,-0.9579,-0.9579,-0.9579,-0.9579,-0.9579,-0.9579,-0.9579,-0.9652,-0.9734,-0.9681,-0.9657,-0.9734,-0.9681,-0.9476,-0.908,-0.9031,-0.8931,-0.8531,-0.8482,-0.8333,-0.7885,-0.8233,-0.8482,-0.8482,-0.8482,-0.8482,-0.8482,-0.8084,-0.8035,-0.8482,-0.8482,-0.8482,-0.8482,-0.8482,-0.8482,-0.8482,-0.8035,-0.7836,-1.0233,-1.0355,-1.0505,-1.0623,-1.0672,-1.0647,-1.0473,-1.0358,-1.0363,-1.0314,-1.0253,-1.0233,-1.0286,-1.0371,0.0,0.0,0.0,0.0,0.0,0.0,0.0,0.0,0.0,0.0,0.0,0.0,0.0,0.0,0.0,-1.2381,0.0,-1.2004,-1.1922,-1.178,-1.1776,-1.1776,-1.1776,-1.1776,-1.1776,-1.1776,-1.1748,-1.165,-1.15,-1.1468,-1.1277,-1.1024,0.0,0.0,-1.0692,-1.0692,-1.0692,-1.0676,-1.0339,-1.0218,-1.0194,-0.9882,-0.9658,-0.9521,-0.9497,-0.9395,-0.9229,-0.9229,-0.8779,-0.8233,-0.8233,-0.7818,-0.7633,-0.8896,-0.9469,-0.9657,-0.9538,-0.9694,-0.9797,-0.9502,-0.9569,-0.9661,-0.9583,-0.9529,-0.9426,-0.9426,-0.9351,-0.931,-0.9501,-0.9361,-0.9314,-0.9505,-0.9334,-0.8981,-0.8283,-0.8233,-0.7932,-0.7288,-0.7188,-0.7138,-0.7039,-0.6936,-0.6836,-0.6736,-0.7036,-0.7138,-0.7039,-0.7138,-0.7138,-0.7039,-0.7138,-0.7188,-0.7188,-0.7188,-0.7135,-0.7086,-0.6936,-0.6836,-1.0477,-1.0631,-1.0623,-1.0505,-1.0586,-1.0647,-1.0473,-1.0314,-1.0335,-1.0554,-1.0424,-1.0306,-1.0554,-1.0635,-1.0704,0.0,0.0,0.0,0.0,0.0,0.0,0.0,0.0,0.0,0.0,0.0,0.0,0.0,0.0,0.0,-1.204,-1.1894,-1.1805,-1.1776,-1.1776,-1.1776,-1.1776,-1.1776,-1.1776,-1.1776,-1.1618,-1.1529,-1.1492,-1.1338,-1.1159,-1.1024,0.0,-1.0867,-1.0692,-1.0692,-1.0692,-1.0621,-0.9742,-0.9409,-0.9265,-0.8284,-0.791,-0.7824,-0.7657,-0.7603,-0.7587,-0.7587,-0.7484,-0.7388,-0.7388,-0.73,-0.7284,-0.7626,-0.8235,-0.8794,-0.8898,-0.9413,-0.9728,-0.8943,-0.9341,-0.9807,-0.9661,-0.908,-0.8581,-0.8581,-0.813,-0.776,-0.7782,-0.7769,-0.7763,-0.7782,-0.767,-0.7537,-0.7388,-0.7388,-0.7338,-0.7238,-0.7188,-0.6939,-0.6242,-0.5784,-0.5231,-0.4533,-0.6187,-0.6889,-0.6189,-0.6839,-0.6889,-0.6192,-0.6839,-0.7188,-0.7188,-0.7188,-0.6983,-0.6523,-0.5829,-0.5279,-1.0164,-1.04,-1.0558,-1.057,-1.0777,-1.0936,-1.0761,-1.066,-1.0586,-1.0558,-1.0424,-1.0227,0.0,0.0,-0.9993,0.0,0.0,0.0,0.0,0.0,0.0,0.0,0.0,0.0,0.0,0.0,0.0,0.0,0.0,0.0,-1.1902,-1.1817,-1.1732,-1.163,-1.1626,-1.1577,-1.148,-1.148,-1.1529,-1.1626,-1.1439,-1.1301,-1.1212,-1.1122,-1.0988,-1.0822,0.0,-1.0548,-0.997,-0.997,-0.9698,-0.9117,-0.8531,-0.8319,-0.8223,-0.755,-0.7327,-0.7318,-0.721,-0.7188,-0.7188,-0.7188,-0.6889,-0.6539,-0.6539,-0.6326,-0.6179,-0.6695,-0.744,-0.8079,-0.8089,-0.843,-0.8609,-0.8087,-0.8248,-0.8533,-0.8416,-0.8096,-0.787,-0.7897,-0.7653,-0.751,-0.7583,-0.7534,-0.751,-0.7586,-0.7483,-0.7169,-0.6743,-0.643,-0.6053,-0.5541,-0.5236,-0.4885,-0.4537,-0.4282,-0.3982,-0.3581,-0.4483,-0.4985,-0.4937,-0.5286,-0.5286,-0.4937,-0.5286,-0.5334,-0.5035,-0.5035,-0.4933,-0.468,-0.428,-0.3981,-0.9892,-1.0188,-1.0415,-1.0599,-1.0899,-1.1151,-1.1106,-1.0887,-1.0566,-1.0339,-1.0076,0.0,0.0,-0.9127,0.0,0.0,0.0,0.0,0.0,0.0,0.0,0.0,0.0,0.0,0.0,0.0,0.0,0.0,0.0,0.0,-1.1111,-1.1065,-1.098,-1.0846,-1.0804,-1.072,-1.0586,-1.0544,-1.0844,-1.1431,-1.1017,-1.0785,-1.0619,-1.0412,-1.0185,-1.0023,-1.0062,-0.9672,-0.904,-0.9054,-0.8593,-0.7836,-0.7464,-0.7116,-0.6867,-0.6754,-0.6662,-0.6637,-0.6637,-0.6637,-0.6637,-0.6637,-0.6239,-0.5744,-0.577,-0.5431,-0.5238,-0.5891,-0.6442,-0.6889,-0.7239,-0.757,-0.7678,-0.7261,-0.7208,-0.7251,-0.7222,-0.6955,-0.6725,-0.6766,-0.6651,-0.6592,-0.6791,-0.6677,-0.6594,-0.6794,-0.6627,-0.6294,-0.5592,-0.5152,-0.4612,-0.391,-0.3452,-0.3149,-0.3048,-0.3036,-0.2978,-0.2827,-0.3079,-0.3381,-0.3783,-0.3831,-0.3831,-0.3831,-0.3831,-0.3632,-0.318,-0.318,-0.313,-0.3027,-0.3027,-0.2928,-1.005,-1.0286,-1.0383,-1.0395,-1.0724,-1.107,-1.139,-1.0507,-0.9675,-0.997,-0.917,0.0,0.0,0.0,0.0,0.0,0.0,0.0,0.0,0.0,0.0,0.0,0.0,0.0,0.0,0.0,0.0,0.0,0.0,0.0,-0.9028,-0.8957,-0.8944,-0.8932,-0.8815,-0.8803,-0.8794,-0.8603,-0.9407,-1.1183,-1.0205,-0.9704,-0.9599,-0.858,-0.8066,-0.7992,-0.8069,-0.805,-0.7952,-0.8038,-0.7988,-0.7703,-0.6851,-0.5876,-0.5004,-0.5137,-0.5061,-0.4985,-0.4985,-0.4985,-0.4985,-0.4985,-0.4935,-0.4901,-0.5039,-0.5023,-0.5052,-0.5136,-0.4895,-0.4864,-0.6383,-0.7273,-0.7564,-0.6681,-0.6724,-0.6902,-0.669,-0.5611,-0.4714,-0.472,-0.4199,-0.3817,-0.3822,-0.3819,-0.3817,-0.3822,-0.3713,-0.3578,-0.3522,-0.3421,-0.3356,-0.3354,-0.3308,-0.3103,-0.2588,-0.2497,-0.2221,-0.1768,-0.2625,-0.323,-0.3281,-0.3281,-0.3281,-0.3281,-0.3281,-0.323,-0.318,-0.318,-0.2927,-0.2472,-0.2472,-0.217,-0.9593,-0.9815,-1.0057,-0.9946,-1.0227,-1.0466,-1.001,-0.9566,-0.9,-0.813,-0.7586,0.0,0.0,0.0,0.0,0.0,0.0,0.0,0.0,0.0,0.0,0.0,0.0,0.0,0.0,0.0,0.0,0.0,0.0,0.0,0.0,-0.8722,-0.8617,-0.8451,-0.8399,-0.816,-0.7678,-0.7943,-0.8232,-0.8605,-0.8592,-0.8595,-0.8512,-0.8081,-0.7874,-0.7806,-0.7889,-0.755,-0.6965,-0.708,-0.6685,-0.6009,-0.5645,-0.5289,-0.4924,-0.4959,-0.4949,-0.4912,-0.4804,-0.4784,-0.4784,-0.4784,-0.4784,-0.475,-0.4534,-0.4492,-0.4443,-0.4199,-0.3998,-0.4046,-0.4964,-0.5194,-0.5086,-0.4704,-0.4691,-0.4789,-0.4705,-0.4268,-0.3903,-0.3946,-0.3756,-0.3553,-0.3553,-0.3553,-0.3553,-0.3553,-0.3481,-0.3414,-0.3376,-0.304,-0.2815,-0.2801,-0.2513,-0.2204,-0.2026,-0.196,-0.1841,-0.1618,-0.197,-0.2373,-0.2674,-0.2724,-0.2724,-0.2724,-0.2724,-0.2523,-0.2222,-0.2222,-0.2121,-0.1919,-0.1919,-0.1818,-0.9133,-0.9362,-0.9656,-0.9545,-0.9898,-0.9883,-0.8319,-0.831,-0.8157,-0.6726,-0.6119,-0.5615,-0.4972,0.0,0.0,0.0,0.0,0.0,0.0,0.0,0.0,0.0,0.0,0.0,0.0,0.0,0.0,0.0,0.0,0.0,0.0,-0.7136,-0.7026,-0.6876,-0.6835,-0.6554,-0.5975,-0.6317,-0.6317,-0.5877,-0.6354,-0.6753,-0.7127,-0.6861,-0.6582,-0.6375,-0.6434,-0.6052,-0.5391,-0.5574,-0.5265,-0.4767,-0.492,-0.4953,-0.4932,-0.4961,-0.485,-0.4665,-0.4554,-0.4435,-0.4284,-0.4284,-0.4284,-0.4252,-0.3943,-0.3901,-0.3901,-0.3588,-0.343,-0.3406,-0.3675,-0.3707,-0.3576,-0.3536,-0.3361,-0.3251,-0.3251,-0.3085,-0.2985,-0.3021,-0.3027,-0.3027,-0.3027,-0.3027,-0.3027,-0.3027,-0.2984,-0.2938,-0.2902,-0.2565,-0.2285,-0.227,-0.1973,-0.1711,-0.1745,-0.1733,-0.1667,-0.1646,-0.1636,-0.1779,-0.212,-0.217,-0.217,-0.217,-0.217,-0.1969,-0.1617,-0.1617,-0.1617,-0.1617,-0.1617,-0.1617,-0.8878,-0.9024,-0.9279,-0.9283,-0.9772,-0.9527,-0.6652,-0.6759,-0.7187,-0.6019,-0.475,-0.3903,-0.3899,0.0,0.0,0.0,0.0,0.0,0.0,0.0,0.0,0.0,0.0,0.0,0.0,0.0,0.0,0.0,0.0,0.0,0.0,-0.38,-0.3679,-0.3677,-0.3619,-0.3587,-0.3586,-0.3526,-0.3495,-0.3495,-0.3487,-0.4213,-0.5431,-0.461,-0.385,-0.3183,-0.3342,-0.3333,-0.324,-0.3408,-0.3791,-0.425,-0.4765,-0.4916,-0.4796,-0.4939,-0.4559,-0.3984,-0.3982,-0.3632,-0.318,-0.318,-0.318,-0.3201,-0.3369,-0.3405,-0.3418,-0.348,-0.31,-0.2683,-0.2583,-0.3101,-0.3587,-0.3587,-0.3141,-0.2693,-0.2693,-0.2244,-0.1795,-0.1795,-0.1795,-0.1795,-0.1795,-0.1795,-0.1795,-0.1795,-0.1824,-0.1804,-0.1804,-0.1723,-0.1716,-0.1802,-0.1804,-0.1804,-0.1804,-0.1722,-0.1705,-0.1704,-0.1678,-0.1649,-0.1619,-0.1617,-0.1617,-0.1617,-0.1617,-0.1617,-0.1617,-0.1617,-0.1617,-0.1617,-0.1617,-0.1617,-0.8805,-0.8934,-0.9176,-0.9233,-0.8871,-0.8058,-0.6383,-0.6381,-0.6055,-0.3744,-0.2987,-0.2677,-0.2635,0.0,0.0,0.0,0.0,0.0,0.0,0.0,0.0,0.0,0.0,0.0,0.0,0.0,0.0,0.0,0.0,0.0,0.0,-0.3698,-0.3658,-0.3616,-0.3597,-0.34,-0.2921,-0.3247,-0.3199,-0.2792,-0.3156,-0.355,-0.4038,-0.378,-0.349,-0.3183,-0.3342,-0.3333,-0.3183,-0.3268,-0.3375,-0.3515,-0.3763,-0.3871,-0.3803,-0.3877,-0.3768,-0.354,-0.3446,-0.3331,-0.318,-0.318,-0.318,-0.3151,-0.2846,-0.2769,-0.268,-0.2374,-0.2179,-0.2073,-0.2062,-0.2179,-0.2355,-0.2355,-0.2188,-0.2076,-0.2076,-0.1908,-0.1795,-0.1795,-0.1795,-0.1795,-0.1795,-0.1795,-0.1795,-0.1795,-0.1824,-0.1804,-0.1804,-0.1796,-0.1802,-0.1778,-0.1781,-0.1773,-0.1806,-0.1795,-0.1727,-0.1705,-0.1697,-0.1679,-0.165,-0.1628,-0.1617,-0.1617,-0.1617,-0.1617,-0.1617,-0.1617,-0.1617,-0.1617,-0.1617,-0.1617,-0.8623,-0.879,-0.8924,-0.8533,-0.8079,-0.7323,-0.568,0.0,0.0,0.0,-0.2153,-0.2129,-0.217,0.0,0.0,0.0,0.0,0.0,0.0,0.0,0.0,0.0,0.0,0.0,0.0,0.0,0.0,0.0,0.0,0.0,0.0,-0.2971,-0.2937,-0.2888,-0.2886,-0.2697,-0.2274,-0.2552,-0.2517,-0.2179,-0.2445,-0.2589,-0.2666,-0.2922,-0.2854,-0.2577,-0.2654,-0.2651,-0.2575,-0.2775,-0.2876,-0.293,-0.3216,-0.3332,-0.3332,-0.3332,-0.3178,-0.2969,-0.2887,-0.2726,-0.2575,-0.2575,-0.2575,-0.2542,-0.2267,-0.2184,-0.2146,-0.1889,-0.1795,-0.1795,-0.1795,-0.1795,-0.1795,-0.1795,-0.1795,-0.1795,-0.1795,-0.1795,-0.1795,-0.1795,-0.1795,-0.1795,-0.1795,-0.1795,-0.1795,-0.1795,-0.1779,-0.1823,-0.1823,-0.1823,-0.1775,-0.1793,-0.1795,-0.1788,-0.1824,-0.1823,-0.176,-0.1742,-0.1729,-0.1714,-0.175,-0.1657,-0.1629,-0.1617,-0.1617,-0.1617,-0.1617,-0.1617,-0.1617,-0.1617,-0.1617,-0.1617,-0.8409,-0.8518,-0.8469,-0.7486,-0.7446,0.0,-0.4656,-0.3093,-0.2187,-0.2187,0.0,-0.2117,0.0,0.0,0.0,0.0,0.0,0.0,0.0,0.0,0.0,0.0,0.0,0.0,0.0,0.0,0.0,0.0,0.0,0.0,0.0,-0.1806,-0.1777,-0.1801,-0.18,-0.1785,-0.1701,-0.1675,-0.1713,-0.171,-0.163,-0.1617,-0.1617,-0.212,-0.207,-0.1617,-0.1617,-0.1617,-0.1617,-0.2119,-0.2321,-0.2371,-0.2876,-0.3029,-0.3029,-0.3029,-0.2725,-0.2321,-0.2321,-0.2019,-0.1617,-0.1617,-0.1619,-0.1632,-0.1687,-0.1706,-0.172,-0.1778,-0.1795,-0.1795,-0.1795,-0.1795,-0.1795,-0.1795,-0.1795,-0.1795,-0.1795,-0.1795,-0.1795,-0.1795,-0.1795,-0.1795,-0.1795,-0.1795,-0.1795,-0.1795,-0.1795,-0.1795,-0.1795,-0.1795,-0.1795,-0.1795,-0.1795,-0.1795,-0.1795,-0.1795,-0.1795,-0.1795,-0.1824,-0.1807,-0.1804,-0.1749,-0.1652,-0.1622,-0.1621,-0.162,-0.1617,-0.1617,-0.1617,-0.1617,-0.162,-0.162,-0.8584,-0.8029,-0.7451,-0.7694,-0.6415,-0.466,-0.3044,-0.2402,-0.2093,-0.2093,-0.2101,0.0,0.0,0.0,0.0,0.0,0.0,0.0,0.0,0.0,0.0,0.0,0.0,0.0,0.0,0.0,0.0,0.0,0.0,0.0,-0.1825,-0.1818,-0.18,-0.1715,-0.1714,-0.17,-0.1724,-0.1717,-0.165,0.0,-0.162,-0.1617,-0.1617,-0.1718,-0.1718,-0.1617,-0.1617,-0.1617,-0.1617,-0.1717,-0.1768,-0.1768,-0.192,-0.192,-0.192,-0.192,-0.1869,-0.1768,-0.1768,-0.1718,-0.1617,-0.1617,-0.1633,-0.1659,-0.1694,-0.1721,-0.1802,-0.1785,-0.1795,-0.1795,-0.1795,-0.1795,-0.1795,-0.1795,-0.1795,-0.1795,-0.1795,-0.1795,-0.1795,-0.1795,-0.1795,-0.1795,-0.1795,-0.1795,-0.1795,-0.1795,-0.1795,-0.1795,-0.1795,-0.1795,-0.1795,-0.1795,-0.1795,-0.1795,-0.1795,-0.1795,-0.1795,-0.1795,-0.1789,-0.1774,-0.1805,-0.1714,-0.1682,-0.1705,-0.1652,-0.1641,-0.1617,-0.1617,-0.1617,-0.1618,-0.1641,-0.1639,-0.788,-0.7476,-0.7001,-0.6258,0.0,-0.3067,-0.2354,-0.2108,-0.206,-0.2045,0.0,0.0,0.0,0.0,0.0,0.0,0.0,0.0,0.0,0.0,0.0,0.0,0.0,0.0,0.0,0.0,0.0,0.0,0.0,-0.1782,-0.1806,-0.1804,-0.1783,-0.1686,-0.1684,-0.167,-0.1641,-0.1641,-0.1633,-0.1617,-0.1617,-0.1617,-0.1617,-0.1617,-0.1617,-0.1617,-0.1617,-0.1617,-0.1617,-0.1617,-0.1617,-0.1617,-0.1617,-0.1617,-0.1617,-0.1617,-0.1617,-0.1617,-0.1617,-0.1617,-0.1617,-0.1617,-0.1637,-0.1719,-0.1696,-0.1725,-0.1811,-0.1787,-0.1795,-0.1795,-0.1795,-0.1795,-0.1795,-0.1795,-0.1795,-0.1795,-0.1795,-0.1795,-0.1795,-0.1795,-0.1795,-0.1795,-0.1795,-0.1795,-0.1795,-0.1795,-0.1795,-0.1795,-0.1795,-0.1795,-0.1795,-0.1795,-0.1795,-0.1795,-0.1795,-0.1795,-0.1795,-0.1795,-0.1795,-0.1788,-0.1828,-0.1756,-0.1727,-0.1683,-0.1721,-0.1706,-0.1639,-0.1624,-0.1617,-0.1617,-0.1633,-0.164,-0.7048,-0.6763,-0.6279,-0.4201,-0.2887,0.0,-0.2112,-0.2078,-0.2043,-0.2022,0.0,0.0,0.0,0.0,0.0,0.0,0.0,0.0,0.0,0.0,0.0,0.0,0.0,0.0,0.0,0.0,0.0,0.0,0.0,-0.1774,-0.1798,-0.1791,-0.1763,-0.1707,-0.1706,-0.1642,-0.1617,-0.1617,-0.1617,-0.1617,-0.1617,-0.1617,-0.1617,-0.1617,-0.1617,-0.1617,-0.1617,-0.1617,-0.1617,-0.1617,-0.1617,-0.1617,-0.1617,-0.1617,-0.1617,-0.1617,-0.1617,-0.1617,-0.1617,-0.1617,-0.1618,-0.1623,-0.1645,-0.1727,-0.1703,-0.1733,-0.1818,-0.1788,-0.1795,-0.1795,-0.1795,-0.1795,-0.1795,-0.1795,-0.1795,-0.1795,-0.1795,-0.1795,-0.1795,-0.1795,-0.1795,-0.1795,-0.1795,-0.1795,-0.1795,-0.1795,-0.1795,-0.1795,-0.1795,-0.1795,-0.1795,-0.1795,-0.1795,-0.1795,-0.1795,-0.1795,-0.1795,-0.1795,-0.1795,-0.1795,-0.1795,-0.1795,-0.1771,-0.1721,-0.1692,-0.1727,-0.1721,-0.1644,-0.1632,-0.1633,-0.1637,-0.165,-0.713,-0.5643,-0.402,-0.2719,-0.2199,-0.205,0.0,0.0,-0.1994,0.0,0.0,0.0,0.0,0.0,0.0,0.0,0.0,0.0,0.0,0.0,0.0,0.0,0.0,0.0,0.0,0.0,0.0,0.0,-0.1825,-0.1797,-0.1712,-0.1687,-0.1658,-0.1624,-0.1623,-0.1621,-0.1617,-0.1617,-0.1617,-0.1617,-0.1617,-0.1617,-0.1617,-0.1617,-0.1617,-0.1617,-0.1617,-0.1617,-0.1617,-0.1617,-0.1617,-0.1617,-0.1617,-0.1617,-0.1617,-0.1617,-0.1617,-0.1617,-0.1617,-0.1617,-0.1621,-0.1647,-0.1675,-0.1704,-0.1788,-0.182,-0.179,-0.1794,-0.1795,-0.1795,-0.1795,-0.1795,-0.1795,-0.1795,-0.1795,-0.1795,-0.1795,-0.1795,-0.1795,-0.1795,-0.1795,-0.1795,-0.1795,-0.1795,-0.1795,-0.1795,-0.1795,-0.1795,-0.1795,-0.1795,-0.1795,-0.1795,-0.1795,-0.1795,-0.1795,-0.1795,-0.1795,-0.1795,-0.1795,-0.1795,-0.1795,-0.1795,-0.1791,-0.1783,-0.1808,-0.1778,-0.1699,-0.1695,-0.1692,-0.1693,-0.172,-0.1773,-0.5473,-0.3907,-0.2587,-0.2129,-0.2015,-0.2002,-0.2029,0.0,-0.1994,0.0,0.0,0.0,0.0,0.0,0.0,0.0,0.0,0.0,0.0,0.0,0.0,0.0,0.0,0.0,0.0,0.0,0.0,0.0,-0.1822,-0.179,-0.1706,-0.1677,-0.1648,-0.1618,-0.1617,-0.1617,-0.1617,-0.1617,-0.1617,-0.1617,-0.1617,-0.1617,-0.1617,-0.1617,-0.1617,-0.1617,-0.1617,-0.1617,-0.1617,-0.1617,-0.1617,-0.1617,-0.1617,-0.1617,-0.1617,-0.1617,-0.1617,-0.1617,-0.1617,-0.1617,-0.1622,-0.1652,-0.1681,-0.171,-0.1795,-0.1826,-0.1795,-0.1795,-0.1795,-0.1795,-0.1795,-0.1795,-0.1795,-0.1795,-0.1795,-0.1795,-0.1795,-0.1795,-0.1795,-0.1795,-0.1795,-0.1795,-0.1795,-0.1795,-0.1801,-0.1818,-0.1821,-0.1826,-0.1844,-0.1846,-0.1839,-0.1822,-0.1821,-0.1813,-0.1796,-0.1795,-0.1795,-0.1795,-0.1795,-0.1795,-0.1795,-0.1795,-0.1795,-0.1795,-0.182,-0.1797,-0.173,-0.1712,-0.1704,-0.1705,-0.1557,-0.151,-0.3932,-0.2689,-0.1809,-0.1915,-0.1948,-0.1954,0.0,0.0,0.0,0.0,0.0,0.0,0.0,0.0,0.0,0.0,0.0,0.0,0.0,0.0,0.0,0.0,0.0,0.0,0.0,0.0,0.0,0.0,-0.181,-0.1779,-0.1695,-0.1667,-0.164,-0.1618,-0.1617,-0.1617,-0.1617,-0.1617,-0.1617,-0.1617,-0.1617,-0.1617,-0.1617,-0.1617,-0.1617,-0.1617,-0.1617,-0.1617,-0.1617,-0.1617,-0.1617,-0.1617,-0.1617,-0.1617,-0.1617,-0.1617,-0.1617,-0.1617,-0.1617,-0.1617,-0.1622,-0.1652,-0.1681,-0.171,-0.1795,-0.1826,-0.1795,-0.1795,-0.1795,-0.1795,-0.1795,-0.1795,-0.1795,-0.1795,-0.1795,-0.1795,-0.1795,-0.1801,-0.1806,-0.1806,-0.1812,-0.1818,-0.1818,-0.1818,-0.1825,-0.1849,-0.1852,-0.186,-0.1883,-0.1879,-0.1866,-0.1785,-0.1776,-0.182,-0.1797,-0.1795,-0.1795,-0.1795,-0.1739,-0.1683,-0.1683,-0.1627,-0.157,-0.157,-0.1551,-0.1596,-0.1651,-0.163,-0.1565,-0.1511,-0.1295,-0.1196,-0.3331,-0.2595,-0.1823,-0.1832,-0.1869,-0.1891,0.0,0.0,0.0,0.0,0.0,0.0,0.0,0.0,0.0,0.0,0.0,0.0,0.0,0.0,0.0,0.0,0.0,0.0,0.0,0.0,0.0,0.0,-0.1724,-0.1694,-0.1718,-0.1636,-0.1619,-0.1617,-0.1617,-0.1617,-0.1617,-0.1617,-0.1617,-0.1617,-0.1617,-0.1617,-0.1617,-0.1617,-0.1617,-0.1617,-0.1617,-0.1617,-0.1617,-0.1617,-0.1617,-0.1617,-0.1617,-0.1617,-0.1617,-0.1617,-0.1617,-0.1617,-0.1617,-0.1617,-0.1622,-0.1652,-0.1681,-0.171,-0.1795,-0.1826,-0.1795,-0.1795,-0.1795,-0.1795,-0.1795,-0.1795,-0.1795,-0.1795,-0.1795,-0.1795,-0.1795,-0.1818,-0.178,-0.178,-0.1862,-0.1881,-0.1881,-0.1881,-0.1881,-0.1883,-0.1883,-0.1884,-0.1885,-0.1861,-0.1784,-0.1783,-0.1814,-0.1797,-0.1795,-0.1795,-0.1795,-0.1795,-0.1514,-0.1346,-0.1346,-0.1065,-0.0953,-0.0953,-0.0953,-0.1064,-0.1344,-0.1343,-0.1174,-0.0951,-0.0951,-0.0895,-0.2237,-0.1984,-0.1683,-0.1763,-0.1791,-0.186,-0.1823,0.0,0.0,0.0,0.0,0.0,0.0,0.0,0.0,0.0,0.0,0.0,0.0,0.0,0.0,0.0,0.0,0.0,0.0,0.0,0.0,0.0,0.0,-0.1725,-0.1715,-0.1633,-0.1617,-0.1617,-0.1617,-0.1617,-0.1617,-0.1617,-0.1617,-0.1617,-0.1617,-0.1617,-0.1617,-0.1617,-0.1617,-0.1617,-0.1617,-0.1617,-0.1617,-0.1617,-0.1617,-0.1617,-0.1617,-0.1617,-0.1617,-0.1617,-0.1617,-0.1617,-0.1617,-0.1617,-0.1622,-0.1652,-0.1721,-0.1739,-0.1789,-0.1812,-0.1825,-0.1789,-0.1795,-0.1795,-0.1795,-0.181,-0.1829,-0.1849,-0.1838,-0.1829,-0.1849,-0.1847,-0.1789,-0.1866,-0.1879,-0.1886,-0.1886,-0.1886,-0.1892,-0.1912,-0.1915,-0.1922,-0.1941,-0.1917,-0.1891,-0.1871,-0.1842,-0.1817,-0.1797,-0.1627,-0.1465,-0.1481,-0.1185,-0.1071,-0.1025,-0.0959,-0.0897,-0.0897,-0.0897,-0.0953,-0.1065,-0.1065,-0.1009,-0.0897,-0.0673,-0.0561,-0.1613,0.0,0.0,0.0,-0.1766,-0.1782,-0.1757,0.0,0.0,0.0,0.0,0.0,0.0,0.0,0.0,0.0,0.0,0.0,0.0,0.0,0.0,0.0,0.0,0.0,0.0,0.0,0.0,0.0,0.0,0.0,-0.1647,-0.1628,-0.1617,-0.1617,-0.1617,-0.1617,-0.1617,-0.1617,-0.1617,-0.1617,-0.1617,-0.1617,-0.1617,-0.1617,-0.1617,-0.1617,-0.1617,-0.1617,-0.1617,-0.1617,-0.1617,-0.1617,-0.1617,-0.1617,-0.1617,-0.1617,-0.1617,-0.1617,-0.1617,-0.1617,-0.1622,-0.1652,-0.1721,-0.1738,-0.1789,-0.1811,-0.1824,-0.1789,-0.1795,-0.1795,-0.1795,-0.1818,-0.179,-0.1879,-0.187,-0.1864,-0.1894,-0.1885,-0.1818,-0.1897,-0.1909,-0.1916,-0.1916,-0.1916,-0.1923,-0.1943,-0.1947,-0.1954,-0.1974,-0.1819,-0.1729,-0.1711,-0.1618,-0.1476,-0.1516,-0.129,-0.1186,-0.1149,-0.091,-0.0741,-0.0753,-0.0631,-0.0626,-0.0622,-0.0622,-0.062,-0.0617,-0.0673,-0.0673,-0.0617,-0.0393,-0.0056,0.0,0.0,0.0,0.0,0.0,0.0,-0.1695,0.0,0.0,0.0,0.0,0.0,0.0,0.0,0.0,0.0,0.0,0.0,0.0,0.0,0.0,0.0,0.0,0.0,0.0,0.0,0.0,0.0,-0.1714,-0.1648,-0.1619,-0.1617,-0.1617,-0.1617,-0.1617,-0.1617,-0.1617,-0.1617,-0.1617,-0.1617,-0.1617,-0.1617,-0.1617,-0.1617,-0.1617,-0.1617,-0.1617,-0.1617,-0.1617,-0.1617,-0.1617,-0.1617,-0.1617,-0.1617,-0.1617,-0.1617,-0.1617,-0.1617,-0.1617,-0.1618,-0.1623,-0.1705,-0.1681,-0.171,-0.1795,-0.1825,-0.1794,-0.1795,-0.1795,-0.1795,-0.1797,-0.1819,-0.1791,-0.1881,-0.1888,-0.1896,-0.1926,-0.1932,-0.1932,-0.1932,-0.1956,-0.1977,-0.1977,-0.1977,-0.1977,-0.1977,-0.1977,-0.1977,-0.1977,-0.1623,-0.1356,-0.1356,-0.1088,-0.0899,-0.0899,-0.0899,-0.0905,-0.0863,-0.0575,-0.0406,-0.0412,-0.0118,0.0,0.0,0.0,0.0,0.0056,-0.0224,-0.0224,0.0056,0.0112,0.0728,-0.1534,0.0,0.0,0.0,0.0,0.0,0.0,0.0,0.0,0.0,0.0,0.0,0.0,0.0,0.0,0.0,0.0,0.0,0.0,0.0,0.0,0.0,0.0,0.0,0.0,0.0,0.0,0.0,-0.1642,-0.1626,-0.1617,-0.1617,-0.1617,-0.1617,-0.1617,-0.1617,-0.1617,-0.1617,-0.1617,-0.1617,-0.1617,-0.1617,-0.1617,-0.1617,-0.1617,-0.1617,-0.1617,-0.1617,-0.1617,-0.1617,-0.1617,-0.1617,-0.1617,-0.1617,-0.1617,-0.1617,-0.1617,-0.1617,-0.1617,-0.1631,-0.1651,-0.1712,-0.1681,-0.171,-0.1795,-0.181,-0.1822,-0.1789,-0.1795,-0.1805,-0.1849,-0.1867,-0.1887,-0.1939,-0.1934,-0.1927,-0.1958,-0.1964,-0.1964,-0.1964,-0.1971,-0.1977,-0.1977,-0.1791,-0.1667,-0.1667,-0.142,-0.1297,-0.1297,-0.1153,-0.1019,-0.1019,-0.0941,-0.0872,-0.0872,-0.0697,-0.0527,-0.0535,-0.0294,-0.0118,-0.012,-0.0059,0.0,0.0,0.0,0.0467,0.1451,0.0397,0.0392,0.1344,0.2183,0.2798,0.0,0.0,0.0,0.0,0.0,0.0,-0.1614,-0.1633,0.0,0.0,0.0,0.0,0.0,0.0,0.0,0.0,0.0,0.0,0.0,0.0,0.0,0.0,0.0,0.0,0.0,-0.175,-0.1714,-0.1714,-0.1634,-0.1617,-0.1617,-0.1617,-0.1617,-0.1617,-0.1617,-0.1617,-0.1617,-0.1617,-0.1617,-0.1617,-0.1617,-0.1617,-0.1617,-0.1617,-0.1617,-0.1617,-0.1617,-0.1617,-0.1617,-0.1617,-0.1617,-0.1617,-0.1617,-0.1617,-0.1618,-0.1631,-0.1628,-0.1619,-0.1632,-0.1639,-0.1647,-0.1671,-0.1691,-0.1712,-0.1755,-0.1713,-0.1606,-0.1734,-0.1804,-0.1768,-0.1698,-0.1777,-0.1857,-0.1781,-0.1778,-0.1711,-0.1602,-0.1606,-0.1606,-0.1791,-0.1791,-0.1729,-0.1606,-0.142,-0.1297,-0.1297,-0.1111,-0.0988,-0.0988,-0.0853,-0.0724,-0.0724,-0.0595,-0.053,-0.053,-0.0353,-0.0237,-0.0241,-0.006,0.0,0.0,0.0,0.024,0.0832,0.0832,0.1481,0.2762,0.1433,0.1353,0.2574,0.3325,0.3956,0.0,0.0,0.0,0.0,0.0,0.0,-0.1551,-0.1539,-0.157,0.0,0.0,0.0,0.0,0.0,0.0,0.0,0.0,0.0,0.0,0.0,0.0,0.0,0.0,0.0,-0.1804,-0.1752,-0.1718,-0.1714,-0.1634,-0.1617,-0.1617,-0.1617,-0.1617,-0.1617,-0.1617,-0.1617,-0.1617,-0.1613,-0.1613,-0.1617,-0.1613,-0.1613,-0.1617,-0.1617,-0.1617,-0.1617,-0.1617,-0.1617,-0.1617,-0.1617,-0.1617,-0.1617,-0.1617,-0.1617,-0.162,-0.1647,-0.1642,-0.1625,-0.1649,-0.1643,-0.1635,-0.1631,-0.165,-0.1665,-0.1718,-0.1512,-0.1346,-0.1627,-0.1703,-0.1616,-0.1408,-0.155,-0.1757,-0.1477,-0.142,-0.1359,-0.105,-0.0988,-0.105,-0.1359,-0.142,-0.1359,-0.105,-0.0988,-0.0926,-0.0926,-0.0926,-0.0864,-0.0864,-0.061,-0.0423,-0.0423,-0.0179,0.0,0.0,0.0,0.0,0.0,0.0,0.0,0.0,0.0,0.0613,0.1993,0.2295,0.2993,0.4118,0.284,0.2798,0.3826,0.4111,0.4772,0.0,0.0,0.0,0.0,0.0,0.0,-0.1161,-0.1217,-0.132,0.0,0.0,0.0,0.0,0.0,0.0,0.0,0.0,0.0,0.0,0.0,0.0,0.0,0.0,0.0,-0.1807,-0.1717,-0.1686,-0.1716,-0.1634,-0.1617,-0.1617,-0.1617,-0.1617,-0.1617,-0.1617,-0.1617,-0.1617,-0.1592,-0.1593,-0.1616,-0.1592,-0.1593,-0.1617,-0.1617,-0.1617,-0.1617,-0.1617,-0.1617,-0.1617,-0.1617,-0.1617,-0.1617,-0.1617,-0.1617,-0.1618,-0.1624,-0.1637,-0.1651,-0.1633,-0.1653,-0.1632,-0.1465,-0.1383,-0.1361,-0.1151,-0.1054,-0.1009,-0.1065,-0.1079,-0.1039,-0.0997,-0.1073,-0.1151,-0.1107,-0.1111,-0.105,-0.0988,-0.0988,-0.0926,-0.0741,-0.0926,-0.105,-0.0988,-0.0803,-0.0617,-0.0617,-0.037,-0.0185,-0.0185,-0.0123,-0.0123,-0.0123,-0.0061,0.0,0.0,0.0,0.0,0.0,0.0,0.0,0.0,0.0,0.0616,0.1964,0.4045,0.5227,0.5324,0.5064,0.5075,0.5292,0.6302,0.6897,0.0,0.0,0.0,-0.0799,0.0,0.0,0.0,-0.0975,-0.1025,-0.1101,0.0,0.0,0.0,0.0,0.0,0.0,0.0,0.0,0.0,0.0,0.0,0.0,0.0,0.0,-0.1804,-0.1763,-0.1671,-0.1641,-0.1626,-0.1617,-0.1617,-0.1617,-0.1617,-0.1617,-0.1617,-0.1617,-0.1617,-0.1602,-0.1602,-0.1616,-0.1601,-0.1602,-0.1617,-0.1617,-0.1617,-0.1617,-0.1617,-0.1617,-0.1617,-0.1617,-0.1516,-0.1415,-0.1566,-0.1617,-0.1568,-0.1481,-0.1443,-0.1454,-0.1298,-0.1261,-0.1226,-0.1119,-0.1078,-0.1095,-0.0939,-0.0891,-0.0841,-0.0561,-0.0685,-0.0875,-0.0764,-0.084,-0.0979,-0.0801,-0.0741,-0.0679,-0.0556,-0.0494,-0.0432,-0.0309,-0.037,-0.0494,-0.0494,-0.037,-0.0247,-0.0247,-0.0123,0.0,0.0,0.0,0.0,0.0,0.0,0.0,0.0,0.0,0.0,0.0,0.0,0.0,0.0,0.0617,0.1911,0.3879,0.5906,0.6862,0.6808,0.6815,0.6736,0.6635,0.7284,0.7611,0.0,0.0,0.0,0.0,0.0,-0.0653,0.0,0.0,0.0,-0.0718,0.0,0.0,0.0,0.0,0.0,0.0,0.0,0.0,0.0,0.0,0.0,0.0,0.0,0.0,0.0,-0.175,-0.1704,-0.1627,-0.162,-0.1617,-0.1617,-0.1617,-0.1617,-0.1617,-0.1617,-0.1617,-0.1617,-0.1611,-0.1611,-0.1617,-0.1611,-0.1611,-0.1617,-0.1617,-0.1617,-0.1617,-0.1566,-0.1516,-0.1516,-0.1465,-0.1314,-0.1162,-0.1415,-0.1516,-0.1417,-0.1285,-0.1194,-0.1097,-0.0948,-0.085,-0.0805,-0.081,-0.0761,-0.0713,-0.0725,-0.0729,-0.0617,-0.0112,-0.0344,-0.0704,-0.0471,-0.0602,-0.0738,-0.0494,-0.0432,-0.0309,-0.0062,0.0,0.0,0.0,0.0,0.0,0.0,0.0,0.0,0.0,0.0,0.0,0.0,0.0,0.0,0.0,0.0,0.0,0.0,0.0,0.0,0.0,0.0,0.0123,0.037,0.1911,0.3757,0.5845,0.7194,0.7872,0.7872,0.7872,0.7771,0.7589,0.7687,0.7733,0.0,0.0,0.0,0.0,-0.0101,0.0,0.0,0.0,-0.0498,-0.0673,0.0,0.0,0.0,0.0,0.0,0.0,0.0,0.0,0.0,0.0,0.0,0.0,0.0,0.0,0.0,-0.175,-0.1713,-0.1709,-0.1633,-0.1617,-0.1617,-0.1617,-0.1617,-0.1617,-0.1617,-0.1617,-0.1617,-0.159,-0.159,-0.1616,-0.159,-0.1591,-0.1617,-0.1617,-0.1617,-0.1566,-0.1364,-0.1263,-0.1212,-0.101,-0.0859,-0.0859,-0.1162,-0.1111,-0.091,-0.0861,-0.088,-0.09,-0.0822,-0.0839,-0.0814,-0.0527,-0.032,-0.011,-0.0112,-0.0112,-0.0112,0.0,-0.0057,-0.0116,-0.0059,-0.006,-0.0121,-0.0062,-0.0062,-0.0062,0.0,0.0,0.0,0.0,0.0,0.0,0.0,0.0,0.0,0.0,0.0,0.0,0.0,0.0,0.0,0.0,0.0,0.0,0.0,0.0,0.0,0.0,0.0,0.0555,0.1727,0.4125,0.56,0.5906,0.7194,0.7872,0.7872,0.7872,0.7856,0.7831,0.7845,0.785,0.0,0.0,0.0,0.0,0.0,0.0,-0.0145,0.0,-0.0198,0.0,0.0,0.0,0.0,0.0,0.0,0.0,-0.0956,0.0,0.0,0.0,0.0,0.0,0.0,0.0,0.0,0.0,0.0,0.0,-0.1624,-0.1617,-0.1617,-0.1617,-0.1617,-0.1617,-0.1617,-0.1617,-0.1617,-0.1605,-0.1605,-0.1617,-0.1454,-0.1354,-0.1364,-0.1212,-0.1111,-0.1111,-0.101,-0.096,-0.096,-0.0859,-0.0707,-0.0556,-0.0707,-0.0758,-0.0758,-0.0606,-0.0569,-0.0586,-0.0419,-0.0375,-0.0332,-0.0218,-0.011,0.0,0.0,0.0,0.0,0.0,0.0,0.0,0.0,0.0,0.0,0.0,0.0,0.0,0.0,0.0,0.0,0.0,0.0,0.0,0.0,0.0,0.0,0.0,0.0,0.0,0.0,0.0,0.0,0.0,0.0,0.0,0.0,0.0,0.0,0.0,0.0746,0.2184,0.43,0.553,0.6502,0.72,0.7762,0.8037,0.8037,0.7969,0.7872,0.7872,0.7872,0.7872,0.0,0.0,0.0,0.0,0.0,0.0,0.0,0.0,0.0,0.0,0.0,0.0,0.0,0.0,0.0,0.0,0.0,-0.0708,0.0,0.0,0.0,0.0,0.0,0.0,0.0,0.0,0.0,0.0,0.0,-0.1617,-0.1617,-0.1617,-0.1617,-0.1617,-0.1617,-0.1617,-0.1617,-0.1617,-0.1566,-0.1465,-0.1313,-0.1162,-0.1061,-0.0909,-0.0808,-0.0808,-0.0707,-0.0707,-0.0707,-0.0606,-0.0455,-0.0303,-0.0303,-0.0404,-0.0556,-0.0356,-0.0312,-0.0267,-0.0053,0.0,0.0,0.0,0.0,0.0,0.0,0.0,0.0,0.0,0.0,0.0,0.0,0.0,0.0,0.0,0.0,0.0,0.0,0.0,0.0,0.0,0.0,0.0,0.0,0.0,0.0,0.0,0.0,0.0,0.0,0.0,0.0,0.0,0.0,0.0,0.0,0.0,0.0186,0.0559,0.1886,0.3671,0.6072,0.6583,0.7267,0.817,0.8149,0.8087,0.8117,0.8026,0.7966,0.7872,0.7872,0.7872,0.0,0.0,0.0,0.0,0.0,0.0,0.0,0.0,0.0,0.0,0.0,0.0,0.0,0.0,0.0,-0.0287,0.0,0.0,0.0,0.0,0.0,0.0,0.0,0.0,0.0,0.0,0.0,0.0,0.0,0.0,-0.1617,-0.1617,-0.1617,-0.1617,-0.1617,-0.1617,-0.1617,-0.1617,-0.1465,-0.1212,-0.1212,-0.1061,-0.0808,-0.0808,-0.0808,-0.0808,-0.0505,-0.0404,-0.0404,-0.0152,0.0,0.0,0.0,0.0,0.0,0.0,0.0,0.0,0.0,0.0,0.0,0.0,0.0,0.0,0.0,0.0,0.0,0.0,0.0,0.0,0.0,0.0,0.0,0.0,0.0,0.0,0.0,0.0,0.0,0.0,0.0,0.0,0.0,0.0,0.0,0.0,0.0,0.0,0.0,0.0,0.0,0.0,0.0,0.0,0.0,0.0,0.0559,0.1949,0.3317,0.4692,0.623,0.7459,0.817,0.8172,0.8167,0.8171,0.8117,0.8111,0.8048,0.7872,0.7872,0.7872,0.0,0.0,0.0,0.0,0.0,0.0,0.0,0.0,0.0,0.0,0.0,0.0,0.0,0.0,0.0,-0.0099,-0.01,-0.0151,0.0,0.0,0.0,0.0,0.0,0.0,0.0,0.0,0.0,0.0,0.0,0.0,0.0,-0.1606,-0.1617,-0.1617,-0.1617,-0.1516,-0.1314,-0.1314,-0.1212,-0.0909,-0.0758,-0.0606,-0.0505,-0.0354,-0.0253,-0.0253,-0.0152,-0.0152,-0.0152,-0.0051,0.0,0.0,0.0,0.0,0.0,0.0,0.0,0.0,0.0,0.0,0.0,0.0,0.0,0.0,0.0,0.0,0.0,0.0,0.0,0.0,0.0,0.0,0.0,0.0,0.0,0.0,0.0,0.0,0.0,0.0,0.0,0.0,0.0,0.0,0.0,0.0,0.0,0.0,0.0,0.0,0.0,0.0,0.0,0.0,0.0,0.0884,0.1972,0.3321,0.4791,0.6264,0.7634,0.8162,0.8467,0.8467,0.8394,0.8296,0.8174,0.8092,0.8054,0.7872,0.7872,0.7872,0.0,0.0,0.0,0.0,0.0,0.0,0.0,0.0,0.0,0.0,0.0,0.0,0.0,0.0,0.0,0.0,0.0,0.0,0.0,0.0,0.0,0.0,0.0,0.0,0.0,0.0,0.0,0.0,0.0,0.0,0.0,0.0,-0.1415,-0.1314,-0.1314,-0.1212,-0.1061,-0.1061,-0.0909,-0.0657,-0.0505,-0.0354,-0.0253,-0.0101,0.0,0.0,0.0,0.0,0.0,0.0,0.0,0.0,0.0,0.0,0.0,0.0,0.0,0.0,0.0,0.0,0.0,0.0,0.0,0.0,0.0,0.0,0.0,0.0,0.0,0.0,0.0,0.0,0.0,0.0,0.0,0.0,0.0,0.0,0.0,0.0,0.0,0.0,0.0,0.0,0.0,0.0,0.0,0.0,0.0,0.0,0.0,0.0,0.0,0.0191,0.07,0.1609,0.2918,0.4797,0.5846,0.7017,0.8412,0.8549,0.8587,0.8587,0.8516,0.8418,0.8299,0.8179,0.8054,0.7996,0.7952,0.7872]},{"header":{"parameterUnit":"m.s-1","parameterCategory":1,"la1":30.6,"la2":29.2853,"lo1":-89.7004,"lo2":-87.6739,"dy":0.0162,"dx":0.0183,"nx":112,"ny":82,"refTime":"2023-10-03T06:00:00:Z","depth":0,"parameterNumber":3,"parameterNumberName":"V-component_of_WINDS"},"data":[0.0,0.0,0.0,0.0,0.0,0.0,0.0,0.0,0.0,0.0,0.0,0.0,0.0,0.0,0.0,0.0,0.0,0.0,0.0,0.0,0.0,0.0,0.0,0.0,0.0,0.0,0.0,0.0,0.0,0.0,0.0,0.0,0.0,0.0,0.0,0.0,0.0,0.0,0.0,0.0,0.0,0.0,0.0,0.0,0.0,0.0,0.0,0.0,0.0,0.0,0.0,0.0,0.0,0.0,0.0,0.0,0.0,0.0,0.0,0.0,0.0,0.0,0.0,0.0,0.0,0.0,0.0,0.0,0.0,0.0,0.0,0.0,0.0,0.0,0.0,0.0,0.0,0.0,0.0,0.0,0.0,0.0,0.0,0.0,0.0,0.0,0.0,0.0,0.0,0.0,0.0,1.6721,1.6717,1.7147,1.7857,1.7059,1.5851,1.4291,0.0,0.0,0.0,0.0,0.0,0.0,0.0,0.0,0.0,0.0,0.0,0.0,0.0,0.0,0.0,0.0,0.0,0.0,0.0,0.0,0.0,0.0,0.0,0.0,0.0,0.0,0.0,0.0,0.0,0.0,0.0,0.0,0.0,0.0,0.0,0.0,0.0,0.0,0.0,0.0,0.0,0.0,0.0,0.0,0.0,0.0,0.0,0.0,0.0,0.0,0.0,0.0,0.0,0.0,0.0,0.0,0.0,0.0,0.0,0.0,0.0,0.0,0.0,0.0,0.0,0.0,0.0,0.0,0.0,0.0,0.0,0.0,0.0,0.0,0.0,0.0,0.0,0.0,0.0,0.0,0.0,0.0,0.0,0.0,0.0,0.0,0.0,0.0,0.0,0.0,0.0,0.0,0.0,0.0,0.0,0.0,0.0,0.0,0.0,0.0,0.0,0.0,0.0,0.0,1.7846,1.8072,1.78,1.7628,1.7602,1.6379,1.5236,1.4247,0.0,0.0,0.0,0.0,0.0,0.0,0.0,0.0,0.0,0.0,0.0,0.0,0.0,0.0,0.0,0.0,0.0,0.0,0.0,0.0,0.0,0.0,0.0,0.0,0.0,0.0,0.0,0.0,0.0,0.0,0.0,0.0,0.0,0.0,0.0,0.0,0.0,0.0,0.0,0.0,0.0,0.0,0.0,0.0,0.0,0.0,0.0,0.0,0.0,0.0,0.0,0.0,0.0,0.0,0.0,0.0,0.0,0.0,0.0,0.0,0.0,0.0,0.0,0.0,0.0,0.0,0.0,0.0,0.0,0.0,0.0,0.0,0.0,0.0,0.0,0.0,0.0,0.0,0.0,0.0,0.0,0.0,0.0,0.0,0.0,0.0,0.0,0.0,0.0,0.0,0.0,0.0,0.0,0.0,0.0,0.0,0.0,0.0,0.0,0.0,0.0,0.0,0.0,1.8337,1.7979,1.9044,1.7864,1.7151,1.7495,1.6409,1.5411,1.4705,1.3379,0.0,0.0,0.0,0.0,0.0,0.0,0.0,0.0,0.0,0.0,0.0,0.0,0.0,0.0,0.0,0.0,0.0,0.0,0.0,0.0,0.0,0.0,0.0,0.0,0.0,0.0,0.0,0.0,0.0,0.0,0.0,0.0,0.0,0.0,0.0,0.0,0.0,0.0,0.0,0.0,0.0,0.0,0.0,0.0,0.0,0.0,0.0,0.0,0.0,0.0,0.0,0.0,0.0,0.0,0.0,0.0,0.0,0.0,0.0,0.0,0.0,0.0,0.0,0.0,0.0,0.0,0.0,0.0,0.0,0.0,0.0,0.0,0.0,0.0,0.0,0.0,0.0,0.0,0.0,0.0,0.0,0.0,0.0,0.0,0.0,0.0,0.0,0.0,0.0,0.0,0.0,0.0,0.0,0.0,0.0,0.0,0.0,0.0,0.0,0.0,0.0,0.0,1.9518,1.8969,2.0045,1.8424,1.748,1.8055,1.6965,1.5985,1.5292,1.3721,0.0,0.0,0.0,0.0,0.0,0.0,0.0,0.0,0.0,0.0,0.0,0.0,0.0,0.0,0.0,0.0,0.0,0.0,0.0,0.0,0.0,0.0,0.0,0.0,0.0,0.0,0.0,0.0,0.0,0.0,0.0,0.0,0.0,0.0,0.0,0.0,0.0,0.0,0.0,0.0,0.0,0.0,0.0,0.0,0.0,0.0,0.0,0.0,0.0,0.0,0.0,0.0,0.0,0.0,0.0,0.0,0.0,0.0,0.0,0.0,0.0,0.0,0.0,0.0,0.0,0.0,0.0,0.0,0.0,0.0,0.0,0.0,0.0,0.0,0.0,0.0,0.0,0.0,0.0,0.0,0.0,0.0,0.0,0.0,0.0,0.0,0.0,0.0,0.0,0.0,0.0,0.0,0.0,0.0,0.0,0.0,0.0,0.0,0.0,0.0,0.0,0.0,2.0816,2.1352,2.1229,2.0467,1.9884,1.9588,1.8263,1.7018,1.5996,1.4355,0.0,0.0,0.0,0.0,0.0,0.0,0.0,0.0,0.0,0.0,0.0,0.0,0.0,0.0,0.0,0.0,0.0,0.0,0.0,0.0,0.0,0.0,0.0,0.0,0.0,0.0,0.0,0.0,0.0,0.0,0.0,0.0,0.0,0.0,0.0,0.0,0.0,0.0,0.0,0.0,0.0,0.0,0.0,0.0,0.0,0.0,0.0,0.0,0.0,0.0,0.0,0.0,0.0,0.0,0.0,0.0,0.0,0.0,0.0,0.0,0.0,0.0,0.0,0.0,0.0,0.0,0.0,0.0,0.0,0.0,0.0,0.0,0.0,0.0,0.0,0.0,0.0,0.0,0.0,0.0,0.0,0.0,0.0,0.0,0.0,0.0,0.0,0.0,0.0,0.0,0.0,0.0,0.0,0.0,0.0,0.0,0.0,0.0,0.0,0.0,0.0,0.0,1.9837,2.0228,0.0,1.9887,1.9348,1.9374,1.8539,1.7602,1.6754,0.0,0.0,0.0,0.0,0.0,0.0,0.0,0.0,0.0,0.0,0.0,0.0,0.0,0.0,0.0,0.0,0.0,0.0,0.0,0.0,0.0,0.0,0.0,0.0,0.0,0.0,0.0,0.0,0.0,0.0,0.0,0.0,0.0,0.0,0.0,0.0,0.0,0.0,0.0,0.0,0.0,0.0,0.0,0.0,0.0,0.0,0.0,0.0,0.0,0.0,0.0,0.0,0.0,0.0,0.0,0.0,0.0,0.0,0.0,0.0,0.0,0.0,0.0,0.0,0.0,0.0,0.0,0.0,0.0,0.0,0.0,0.0,0.0,0.0,0.0,0.0,0.0,0.0,0.0,0.0,0.0,0.0,0.0,0.0,0.0,0.0,0.0,0.0,0.0,0.0,0.0,0.0,0.0,0.0,0.0,0.0,0.0,0.0,0.0,0.0,0.0,0.0,1.9618,2.0207,2.0688,0.0,2.0369,2.0028,2.0225,1.9462,1.8562,1.7587,0.0,0.0,0.0,0.0,0.0,0.0,0.0,0.0,0.0,0.0,0.0,0.0,0.0,0.0,0.0,0.0,0.0,0.0,0.0,0.0,0.0,0.0,0.0,0.0,0.0,0.0,0.0,0.0,0.0,0.0,0.0,0.0,0.0,0.0,0.0,0.0,0.0,0.0,0.0,0.0,0.0,0.0,0.0,0.0,0.0,0.0,0.0,0.0,0.0,0.0,0.0,0.0,0.0,0.0,0.0,0.0,0.0,0.0,0.0,0.0,0.0,0.0,0.0,0.0,0.0,0.0,0.0,0.0,0.0,0.0,0.0,0.0,0.0,0.0,0.0,0.0,0.0,0.0,0.0,0.0,0.0,0.0,0.0,0.0,0.0,0.0,0.0,0.0,0.0,0.0,0.0,0.0,0.0,0.0,0.0,0.0,0.0,0.0,0.0,0.0,0.0,0.0,2.0666,2.2443,2.3471,2.2514,2.2432,2.2422,2.2438,2.1319,2.0034,0.0,0.0,0.0,0.0,0.0,0.0,0.0,0.0,0.0,0.0,0.0,0.0,0.0,0.0,0.0,0.0,0.0,0.0,0.0,0.0,0.0,0.0,0.0,0.0,0.0,0.0,0.0,0.0,0.0,0.0,0.0,0.0,0.0,0.0,0.0,0.0,0.0,0.0,0.0,0.0,0.0,0.0,0.0,0.0,0.0,0.0,0.0,0.0,0.0,0.0,0.0,0.0,0.0,0.0,0.0,0.0,0.0,0.0,0.0,0.0,0.0,0.0,0.0,0.0,0.0,0.0,0.0,0.0,0.0,0.0,0.0,0.0,0.0,0.0,0.0,0.0,0.0,0.0,0.0,0.0,0.0,0.0,0.0,0.0,0.0,0.0,0.0,0.0,0.0,0.0,0.0,0.0,0.0,0.0,0.0,0.0,0.0,0.0,0.0,0.0,0.0,0.0,0.0,2.1781,2.3174,2.418,2.4301,2.4313,2.4311,2.4298,2.3361,2.2327,2.1258,0.0,0.0,0.0,0.0,0.0,0.0,0.0,0.0,0.0,0.0,0.0,0.0,0.0,0.0,0.0,0.0,0.0,0.0,0.0,0.0,0.0,0.0,0.0,0.0,0.0,0.0,0.0,0.0,0.0,0.0,0.0,0.0,0.0,0.0,0.0,0.0,0.0,0.0,0.0,0.0,0.0,0.0,0.0,0.0,0.0,0.0,0.0,0.0,0.0,0.0,0.0,0.0,0.0,0.0,0.0,0.0,0.0,0.0,0.0,0.0,0.0,0.0,0.0,0.0,0.0,0.0,0.0,0.0,0.0,0.0,0.0,0.0,0.0,0.0,0.0,0.0,0.0,0.0,0.0,0.0,0.0,0.0,0.0,0.0,0.0,0.0,0.0,0.0,0.0,0.0,0.0,0.0,0.0,0.0,0.0,0.0,0.0,0.0,0.0,0.0,0.0,0.0,2.2756,2.4166,2.5176,2.536,2.5396,2.5393,2.5359,2.451,2.3538,2.2514,0.0,0.0,0.0,0.0,0.0,0.0,0.0,0.0,0.0,0.0,0.0,0.0,0.0,0.0,0.0,0.0,0.0,0.0,0.0,0.0,0.0,0.0,0.0,0.0,0.0,0.0,0.0,0.0,0.0,0.0,0.0,0.0,0.0,0.0,0.0,0.0,0.0,0.0,0.0,0.0,0.0,0.0,0.0,0.0,0.0,0.0,0.0,0.0,0.0,0.0,0.0,0.0,0.0,0.0,0.0,0.0,0.0,0.0,0.0,0.0,0.0,0.0,0.0,0.0,0.0,0.0,0.0,0.0,0.0,0.0,0.0,0.0,0.0,0.0,0.0,0.0,0.0,0.0,0.0,0.0,0.0,0.0,0.0,0.0,0.0,0.0,0.0,0.0,0.0,0.0,0.0,0.0,0.0,0.0,0.0,0.0,0.0,0.0,0.0,0.0,0.0,0.0,2.3798,2.5337,2.6342,2.6092,2.6064,2.6073,2.6073,2.5223,2.4244,2.3108,0.0,0.0,0.0,0.0,0.0,0.0,0.0,0.0,0.0,0.0,0.0,0.0,0.0,0.0,0.0,0.0,0.0,0.0,0.0,0.0,0.0,0.0,0.0,0.0,0.0,0.0,0.0,0.0,0.0,0.0,0.0,0.0,0.0,0.0,0.0,0.0,0.0,0.0,0.0,0.0,0.0,0.0,0.0,0.0,0.0,0.0,0.0,0.0,0.0,0.0,0.0,0.0,0.0,0.0,0.0,0.0,0.0,0.0,0.0,0.0,3.1316,0.0,0.0,0.0,0.0,0.0,0.0,0.0,0.0,0.0,0.0,0.0,0.0,0.0,0.0,0.0,0.0,0.0,0.0,0.0,0.0,0.0,0.0,0.0,0.0,0.0,0.0,0.0,0.0,0.0,0.0,0.0,0.0,0.0,0.0,0.0,0.0,0.0,0.0,0.0,0.0,0.0,2.5401,2.6292,2.7074,2.7822,2.7928,2.7896,2.7896,2.7364,2.6607,2.566,2.4632,0.0,0.0,0.0,0.0,0.0,0.0,0.0,0.0,0.0,0.0,0.0,0.0,0.0,0.0,0.0,0.0,0.0,0.0,0.0,0.0,0.0,0.0,0.0,0.0,0.0,0.0,0.0,0.0,0.0,0.0,0.0,0.0,0.0,0.0,0.0,0.0,0.0,0.0,0.0,0.0,0.0,0.0,0.0,0.0,0.0,0.0,0.0,0.0,0.0,0.0,0.0,0.0,0.0,0.0,0.0,0.0,0.0,0.0,0.0,0.0,3.2982,0.0,0.0,0.0,0.0,0.0,0.0,0.0,0.0,0.0,0.0,0.0,0.0,0.0,0.0,0.0,0.0,0.0,0.0,0.0,0.0,0.0,0.0,0.0,0.0,0.0,0.0,0.0,0.0,0.0,0.0,0.0,0.0,0.0,0.0,0.0,0.0,0.0,0.0,0.0,0.0,2.6193,2.7208,2.8226,2.9339,2.9441,2.9606,2.991,2.9428,2.87,2.7653,2.6568,0.0,0.0,0.0,0.0,0.0,0.0,0.0,0.0,0.0,0.0,0.0,0.0,0.0,0.0,0.0,0.0,0.0,0.0,0.0,0.0,0.0,0.0,0.0,0.0,0.0,0.0,0.0,0.0,0.0,0.0,0.0,0.0,0.0,0.0,0.0,0.0,0.0,0.0,0.0,0.0,0.0,0.0,0.0,0.0,0.0,0.0,0.0,0.0,0.0,0.0,0.0,0.0,0.0,4.107,4.146,4.1265,4.184,4.2137,4.2067,3.9241,3.7934,3.7575,0.0,0.0,0.0,0.0,0.0,0.0,0.0,0.0,0.0,0.0,0.0,0.0,0.0,0.0,0.0,0.0,0.0,0.0,0.0,0.0,0.0,0.0,0.0,0.0,0.0,3.4691,3.4177,0.0,0.0,0.0,0.0,0.0,0.0,0.0,0.0,0.0,0.0,0.0,0.0,2.6881,2.8037,2.9192,3.0227,3.0319,3.0566,3.1079,3.0842,3.0236,2.9174,2.8117,2.7006,0.0,0.0,0.0,0.0,0.0,0.0,0.0,0.0,0.0,0.0,0.0,0.0,0.0,0.0,0.0,0.0,0.0,0.0,0.0,0.0,0.0,0.0,0.0,0.0,0.0,0.0,0.0,0.0,0.0,0.0,0.0,0.0,3.7462,3.7032,0.0,0.0,0.0,0.0,0.0,0.0,0.0,0.0,0.0,0.0,0.0,0.0,0.0,3.9464,4.092,4.3213,4.4529,4.4833,4.7689,4.8495,4.7411,4.7499,4.7545,4.7519,4.6504,0.0,3.9945,3.8388,0.0,0.0,0.0,0.0,0.0,0.0,0.0,0.0,0.0,0.0,0.0,0.0,0.0,0.0,0.0,0.0,0.0,0.0,0.0,0.0,0.0,0.0,3.7888,3.6864,3.7576,3.8009,0.0,3.3303,3.0726,2.9993,2.8511,0.0,0.0,0.0,0.0,0.0,0.0,0.0,2.8396,2.8678,2.8999,2.9561,2.9614,2.9684,2.9759,3.0246,3.0339,2.9879,2.9289,2.8406,2.7193,2.6115,0.0,0.0,0.0,0.0,0.0,0.0,0.0,0.0,0.0,0.0,0.0,0.0,0.0,0.0,0.0,0.0,0.0,0.0,0.0,0.0,0.0,0.0,0.0,0.0,0.0,0.0,0.0,0.0,0.0,3.7492,3.8862,3.6631,3.7477,3.7057,0.0,0.0,0.0,0.0,0.0,0.0,0.0,0.0,0.0,4.356,4.4132,4.502,4.6388,4.7345,4.8177,4.8955,5.0386,5.1027,5.0964,5.0964,5.1015,5.1164,5.0874,4.9237,4.6488,4.3268,4.0683,3.8577,0.0,0.0,0.0,0.0,3.8579,3.939,4.0843,4.1303,0.0,4.1169,0.0,0.0,0.0,0.0,0.0,0.0,0.0,0.0,0.0,0.0,0.0,3.9495,4.005,4.0464,3.9444,3.6879,3.4191,0.0,3.1051,2.988,2.8933,0.0,0.0,0.0,0.0,0.0,2.8986,2.9516,3.0017,3.0559,3.0629,3.0783,3.1132,3.1459,3.1394,3.0895,2.9954,2.9057,2.8186,2.6947,2.6269,0.0,0.0,0.0,0.0,0.0,0.0,0.0,0.0,0.0,0.0,0.0,0.0,0.0,0.0,0.0,0.0,0.0,0.0,0.0,0.0,0.0,0.0,0.0,0.0,0.0,0.0,0.0,0.0,3.9392,4.0648,3.7319,3.9644,3.9773,0.0,0.0,0.0,0.0,0.0,0.0,4.414,4.6002,4.7725,4.9252,4.977,5.0545,5.1632,5.1547,5.1993,5.2954,5.3119,5.3455,5.3868,5.3699,5.3648,5.3646,5.3474,5.2961,5.19,4.7855,4.4965,4.2973,4.2032,4.1216,4.0639,4.1012,4.1445,4.1972,4.3321,4.3766,4.3658,4.3073,0.0,4.1241,3.8489,0.0,0.0,0.0,0.0,3.8555,4.0594,4.1625,4.205,4.181,4.225,4.2469,4.1537,3.9484,3.7141,0.0,3.3416,3.2289,3.1231,0.0,0.0,0.0,0.0,2.9293,2.96,3.02,3.0786,3.1221,3.1279,3.1482,3.1975,3.2324,3.2196,3.1476,3.0688,2.9871,2.9046,2.793,2.7395,2.7539,0.0,0.0,0.0,0.0,0.0,0.0,0.0,0.0,0.0,0.0,0.0,0.0,0.0,0.0,0.0,0.0,0.0,0.0,0.0,0.0,0.0,0.0,0.0,0.0,0.0,0.0,0.0,0.0,0.0,4.2462,4.5362,0.0,0.0,0.0,0.0,4.3189,4.5484,4.7675,4.9534,5.0445,5.1836,5.3809,5.4516,5.5174,5.5873,5.6431,5.6748,5.6827,5.7473,5.7396,5.678,5.6118,5.55,5.4881,5.4234,5.3945,5.3708,5.1297,4.8773,4.6455,4.645,4.4705,4.2359,4.3854,4.3901,4.3532,4.51,4.5611,4.5791,4.721,4.575,4.3315,4.2442,4.0719,0.0,0.0,4.0798,4.1244,4.3121,4.4123,4.4464,4.3735,4.4123,4.4269,4.283,4.0521,3.8442,0.0,3.4942,3.2792,3.2303,0.0,3.1028,3.0598,3.0524,3.0524,3.0539,3.0553,3.0612,3.0641,3.0656,3.067,3.0699,3.1801,3.2132,3.1264,3.1693,3.1322,2.9909,2.9165,2.8505,2.7904,2.7874,0.0,0.0,0.0,0.0,0.0,0.0,0.0,0.0,0.0,0.0,0.0,0.0,0.0,0.0,0.0,0.0,0.0,0.0,0.0,0.0,0.0,0.0,0.0,0.0,0.0,0.0,0.0,0.0,4.5816,4.9093,0.0,4.5829,4.7216,4.8256,4.7845,5.0341,5.2416,5.3527,5.5221,5.6686,5.7903,5.8012,5.8149,5.8406,5.799,5.75,5.7042,5.6852,5.6661,5.6515,5.5878,5.5762,5.6051,5.535,5.504,5.4991,5.4154,5.2352,5.009,4.9638,4.861,4.7328,4.7396,4.7276,4.7153,4.7718,4.7917,4.7917,4.7968,4.6004,4.3645,4.3857,4.305,4.2344,4.3721,4.4096,4.4356,4.55,4.5993,4.5829,4.4629,4.4202,4.376,4.2742,4.0949,3.9424,3.9117,3.6427,3.4017,3.3385,3.2924,3.2435,3.1796,3.1551,3.1422,3.1422,3.1422,3.1422,3.1422,3.1422,3.163,3.2107,3.1721,3.1597,3.1877,3.0894,3.0118,2.9714,2.9101,2.8768,2.874,2.874,2.8857,0.0,0.0,0.0,0.0,0.0,0.0,0.0,0.0,0.0,0.0,0.0,0.0,0.0,0.0,0.0,0.0,0.0,0.0,0.0,0.0,0.0,0.0,0.0,0.0,0.0,0.0,5.0702,4.8107,5.2269,5.3989,5.0378,5.216,5.346,5.3152,5.5581,5.7212,5.7462,5.907,6.0109,6.0374,6.0201,6.0114,6.0114,5.9213,5.849,5.7992,5.7286,5.6909,5.6784,5.6336,5.6221,5.6316,5.6084,5.5703,5.5234,5.5483,5.453,5.282,5.2618,5.1885,5.0801,5.0066,4.9659,4.9442,4.9193,4.8945,4.8647,4.8166,4.651,4.4854,4.5582,4.5301,4.4937,4.5897,4.598,4.5897,4.6394,4.6527,4.6146,4.4688,4.3976,4.3317,4.2324,4.1024,4.0071,4.0071,3.7713,3.5435,3.4561,3.4053,3.3469,3.2566,3.2281,3.2185,3.2185,3.2185,3.2185,3.2185,3.2185,3.2369,3.287,3.2231,3.1878,3.1953,3.0897,3.0089,2.9675,2.9279,2.9173,2.94,2.94,2.9663,3.0166,0.0,0.0,0.0,0.0,0.0,0.0,0.0,0.0,0.0,0.0,0.0,0.0,0.0,0.0,0.0,0.0,0.0,0.0,0.0,0.0,0.0,0.0,0.0,4.5213,4.9326,5.1761,4.9641,5.5073,5.7591,5.3997,5.7558,5.9794,5.9032,6.0953,6.1864,6.1152,6.1765,6.1815,6.1136,6.1086,6.1086,6.1086,6.034,5.996,5.9926,5.9214,5.8469,5.7723,5.7723,5.6945,5.5582,5.6299,5.5786,5.4506,5.5218,5.5102,5.456,5.5234,5.4262,5.2326,5.158,5.0833,5.0137,4.9392,4.8647,4.8001,4.8034,4.7504,4.7007,4.7769,4.7487,4.6891,4.6891,4.6361,4.5781,4.5765,4.5748,4.5367,4.3896,4.3532,4.3102,4.169,4.0829,4.0376,4.0376,3.8723,3.6998,3.5879,3.5063,3.417,3.2973,3.2783,0.0,3.2768,3.2725,3.2725,3.2725,3.2725,3.2768,3.2756,3.3334,3.3011,3.1475,3.187,3.1485,2.9891,2.9848,2.9864,2.9864,2.9864,3.0204,3.0924,0.0,0.0,0.0,0.0,0.0,0.0,0.0,0.0,0.0,0.0,0.0,0.0,0.0,0.0,0.0,0.0,0.0,0.0,0.0,0.0,0.0,0.0,5.024,4.9377,5.3356,5.6084,5.5471,5.8883,6.0672,5.9131,6.1053,6.1864,6.0589,6.1533,6.1864,6.1152,6.1285,6.1318,6.1119,6.0589,6.0307,6.0307,5.9579,5.8933,5.8403,5.8187,5.7442,5.6216,5.6216,5.5703,5.4771,5.446,5.408,5.3732,5.393,5.3914,5.3695,5.3947,5.3351,5.2326,5.158,5.1183,5.0883,5.0154,4.9077,4.81,4.863,4.7587,4.6328,4.7603,4.7487,4.6891,4.6891,4.6361,4.5665,4.5135,4.4605,4.3962,4.3019,4.2021,4.116,4.0746,4.0111,3.9597,3.9597,3.9131,3.8486,3.7629,3.7159,3.643,3.5024,3.4639,0.0,3.3787,3.3723,3.3723,3.3723,3.3723,3.3906,3.4392,3.3723,3.3142,3.2845,3.2017,3.1179,3.0333,3.0831,3.1111,3.1111,3.1111,3.1188,0.0,0.0,0.0,0.0,0.0,0.0,0.0,0.0,0.0,0.0,0.0,0.0,0.0,0.0,0.0,0.0,0.0,0.0,0.0,0.0,0.0,0.0,5.1864,5.4126,5.477,5.6889,5.8523,5.9036,6.1132,6.2316,6.175,6.2873,6.3115,6.18,6.2313,6.2179,6.1169,6.1384,6.1417,6.1119,6.0688,6.0324,6.0009,5.9264,5.8518,5.779,5.7475,5.673,5.5582,5.5582,5.5019,0.0,5.3894,5.3533,5.3003,5.3284,5.3235,0.0,0.0,0.0,0.0,0.0,5.0917,5.0353,5.0253,4.9044,4.7653,4.8398,4.7355,4.6013,4.7189,4.7023,4.6361,4.6063,4.545,4.4787,4.4357,4.3711,4.2936,4.2208,4.1193,4.0326,4.0011,3.9597,3.9299,3.9299,3.9299,0.0,3.8344,3.78,3.7112,3.5934,3.5382,3.4939,3.4497,3.4423,3.4423,3.4423,3.4423,3.4587,3.4987,3.4301,0.0,0.0,0.0,3.1935,3.1002,3.1515,0.0,0.0,0.0,3.2349,3.2971,0.0,0.0,0.0,3.3705,3.3775,0.0,0.0,0.0,0.0,0.0,0.0,0.0,0.0,0.0,0.0,0.0,0.0,0.0,0.0,0.0,0.0,5.5595,5.8334,6.045,6.0114,6.0018,6.1015,6.2403,6.3138,6.2705,6.3689,6.3882,6.2755,6.3158,6.2823,6.136,0.0,0.0,0.0,0.0,6.0539,5.9893,5.9065,5.832,5.7657,5.6995,5.6266,5.5466,5.5466,5.4655,5.3334,5.3997,5.3622,5.2584,5.3164,5.3119,5.2709,5.3025,5.2804,5.221,5.1547,5.0536,4.9626,5.0106,0.0,0.0,4.7979,4.7165,4.6055,4.6817,4.6504,4.5694,4.4964,4.4185,4.3555,4.3525,4.2941,4.2202,4.1498,4.0846,4.0176,3.9565,3.9415,3.9415,3.9415,3.9441,3.9208,3.8406,3.7757,3.7069,3.6257,3.5562,3.5114,3.5032,3.4949,3.4899,3.4899,0.0,0.0,3.497,3.4977,3.4708,3.3977,3.3844,3.3262,3.2009,3.2173,3.236,3.2502,3.2733,3.3522,3.4894,3.5021,3.5073,3.5056,3.4405,3.4405,0.0,0.0,0.0,0.0,0.0,0.0,0.0,0.0,0.0,0.0,0.0,0.0,0.0,0.0,0.0,5.658,5.8844,6.1045,6.3771,6.3598,6.3021,6.249,6.3749,6.4366,6.3708,6.4649,6.4851,6.3723,6.4023,6.373,6.2535,6.2442,6.2098,6.1359,6.0025,5.9264,5.9115,5.7773,5.7044,5.6895,0.0,0.0,5.4705,5.4705,5.3947,5.2589,5.2721,5.3033,5.3399,5.3501,5.3865,5.4175,5.2368,5.1647,5.1514,5.1365,5.1742,5.2168,5.1128,4.9959,4.8974,4.9347,4.8124,4.6705,4.773,4.716,0.0,4.5313,4.4289,4.3362,4.3039,4.2326,4.1594,4.1117,4.0493,4.0026,4.0154,4.0103,4.0053,4.017,4.0368,4.0122,3.8891,3.8778,3.8411,3.7085,3.6771,3.6456,3.586,3.5263,3.4899,3.4899,3.5125,3.531,3.531,3.5549,3.5404,3.4734,3.4121,3.3934,3.424,3.3741,3.3748,3.4383,3.4425,3.4603,3.4894,3.578,3.6195,3.6195,3.6039,3.5748,0.0,0.0,0.0,0.0,0.0,0.0,0.0,0.0,0.0,0.0,0.0,5.0126,0.0,0.0,5.5884,5.909,6.1299,6.3253,6.5098,6.5436,6.5072,6.395,6.4463,6.469,6.4166,6.4757,6.4897,6.4148,6.4158,6.3783,6.2787,6.2643,6.2267,6.1459,6.0653,6.0055,5.9698,5.897,5.8409,5.8071,5.8071,5.7475,5.6404,5.5978,5.5213,5.4158,5.3784,5.3827,5.4195,5.4195,5.443,5.4687,5.3496,5.2832,5.2492,5.2492,5.2396,5.221,5.1836,5.063,4.9263,4.9359,4.8441,4.7333,4.7489,4.7082,4.6299,4.5162,4.4416,4.3828,4.3216,4.2449,4.1791,4.1593,4.1003,4.0552,4.0726,4.0685,4.0662,4.075,4.0868,4.0619,3.9575,3.9839,3.957,3.7685,3.7222,3.6956,3.6609,3.6575,3.6272,3.5492,3.5904,3.6084,3.5672,3.5907,3.5908,3.5568,3.5191,3.5002,3.5005,3.4803,3.4844,3.5142,3.5367,3.5697,3.6098,3.6639,3.695,3.7048,3.7048,3.674,0.0,0.0,0.0,0.0,0.0,0.0,0.0,0.0,4.9365,5.1104,5.1991,5.3132,5.5414,5.6826,5.851,6.1082,6.3128,6.474,6.57,6.6261,6.6169,6.5072,6.5098,6.5035,6.4593,6.4866,6.4988,6.4804,6.453,6.4043,6.3309,6.31,6.263,6.1849,6.1484,6.1049,6.0509,6.0353,5.9986,5.941,5.941,5.901,5.8261,5.7463,5.6711,5.5959,5.5314,5.5024,5.5042,5.5203,5.5279,5.5279,5.5279,5.4805,5.4103,5.3783,5.2852,5.1811,5.2253,5.1186,4.9599,4.9599,4.8916,4.7989,4.7464,4.7003,4.6377,4.4958,4.4391,4.4049,4.3308,4.2672,4.2189,4.212,4.1649,4.1241,4.1308,4.1291,4.1291,4.1331,4.1375,4.1077,4.0058,4.0429,4.0259,3.8414,3.7872,3.7659,3.7659,3.8088,3.7938,3.6607,3.7123,3.7258,3.6525,3.6624,3.6637,3.6481,3.6481,3.6203,3.5618,3.5852,3.5927,3.5846,3.6211,3.6716,3.7353,3.7353,3.7447,3.7595,3.7595,3.7447,4.5526,4.5236,4.6106,4.888,4.855,4.8858,0.0,0.0,5.3675,5.5939,5.6482,5.7062,5.8764,5.9216,6.0357,6.349,6.4215,6.4921,6.646,6.6134,6.5689,6.5524,6.6157,6.6271,6.5538,6.5886,6.6238,6.6482,6.622,6.5837,6.5408,6.4521,6.3688,6.2944,6.1412,6.0579,6.0492,5.9847,5.9497,5.941,5.941,5.901,5.8261,5.7463,5.6711,5.599,5.5905,5.5872,5.5928,5.6625,5.6923,5.6923,5.6923,5.6436,5.5569,5.4132,5.3346,5.2916,5.2273,5.1768,5.1454,5.1679,5.0396,4.8831,4.897,4.765,4.5922,4.5089,4.4044,4.3062,4.262,4.2397,4.2189,4.1833,4.1697,4.1731,4.2086,4.2032,4.1955,4.2127,4.2292,4.181,3.9814,3.9797,3.9967,3.9765,3.9698,3.9685,3.9685,3.9168,3.8755,3.8581,3.8909,3.8947,3.8494,3.8498,3.8196,3.7502,3.743,3.7413,3.7324,3.7361,3.7379,3.736,3.7415,3.7469,3.7576,3.7576,3.7594,3.7595,3.7595,3.7594,4.8152,4.8079,4.8749,5.1502,5.2045,5.2733,5.5957,5.6192,5.6283,5.8202,5.8981,5.9651,6.0792,6.139,6.2277,0.0,6.4776,6.55,6.6641,6.6116,6.5247,6.4305,6.4903,6.5464,6.5591,6.5348,6.5626,6.6732,6.58,6.5339,6.5623,6.4345,6.3496,6.3158,6.2009,6.139,6.139,6.1069,6.0921,6.0921,6.0921,6.076,6.0404,5.9155,5.7889,5.6704,5.6716,5.6704,5.6704,5.7069,5.6917,5.65,5.65,5.574,5.4689,5.4926,5.4348,5.3394,5.2563,5.1915,5.1328,5.0502,4.9636,4.8829,4.8475,4.7411,4.6119,4.5354,4.4399,4.3494,4.2867,4.2669,4.2613,4.2456,4.2398,4.2438,4.2613,4.2595,4.2557,4.2632,4.2728,4.2474,4.1579,4.1547,4.1673,4.1685,4.0692,3.9941,3.9941,4.0495,4.0512,3.9572,3.9217,3.8802,3.8166,3.8204,3.8133,3.7811,3.7757,3.7757,3.7757,3.7757,3.7721,3.7595,3.7721,3.7757,3.7757,3.7757,3.7828,3.7933,3.7933,3.7933,5.0104,5.0542,5.1398,5.4278,5.5426,5.6314,5.8117,5.8444,5.8744,6.0142,6.0799,6.129,6.1887,6.2494,6.32,6.4215,6.4885,6.5555,6.6351,6.5591,6.4504,6.3327,6.3128,6.3563,6.4812,6.4613,6.4867,6.6044,6.5048,6.4649,6.5229,6.3943,6.3182,6.3182,6.2422,6.1887,6.1652,6.1652,6.1543,6.1353,6.1353,6.1353,6.1299,5.9905,5.851,5.7188,5.7188,5.7062,5.688,5.7098,5.6609,5.5721,5.5921,5.5051,5.3838,5.4943,5.4526,5.3241,5.2444,5.1774,5.1067,4.9691,4.9094,4.8746,4.7932,4.6993,4.5997,4.52,4.4385,4.3625,4.3064,4.2901,4.2901,4.2901,4.2901,4.2901,4.2901,4.2901,4.2901,4.2901,4.2901,4.2828,4.2611,4.2574,4.2484,4.2266,4.1192,4.048,4.0696,4.1735,4.2022,4.0857,4.0051,3.9281,3.8474,3.8348,3.8221,3.8004,3.7969,3.7969,3.7969,3.7969,3.7916,3.7775,3.7916,3.7969,3.7969,3.7969,3.8073,3.8209,3.8209,3.8209,5.0619,5.1636,5.3207,5.7257,5.8292,5.8917,6.1311,6.1538,6.1506,6.2322,6.2229,6.196,6.1996,6.2014,6.2567,6.4142,6.4414,6.4722,6.5518,6.4269,6.3237,6.32,6.1154,6.0665,0.0,6.3961,6.4414,6.4468,6.4414,6.4396,6.4432,6.3635,6.3182,6.3182,6.2422,6.1616,6.0819,6.0819,6.0448,5.9669,5.9669,5.9669,5.9651,5.8818,5.7985,5.7188,5.7188,5.6754,5.6084,5.688,5.6301,5.5015,5.5721,5.5051,5.3711,5.3748,5.3241,5.2426,5.1611,5.1303,5.1158,5.0347,4.9546,4.8746,4.7932,4.6595,4.5164,4.4349,4.3571,4.2937,4.2919,4.2901,4.2901,4.2901,4.2901,4.2901,4.2901,4.2901,4.2901,4.2901,4.2901,4.2647,4.1868,4.1741,4.1469,4.0691,4.118,4.194,4.2719,4.2864,4.2864,4.281,4.2085,4.1288,4.0474,3.975,3.9025,3.8228,3.8192,3.8192,3.8192,3.8192,3.8192,3.8192,3.8192,3.8192,3.8192,3.8192,3.8192,3.8209,3.8209,3.8209,5.0582,5.3207,5.6201,5.9194,6.0359,6.126,6.3102,6.3007,6.245,6.2186,6.0994,5.9862,5.9308,5.8998,5.9343,6.0955,6.2549,6.407,6.541,6.512,6.4396,6.3309,6.2476,0.0,0.0,0.0,0.0,6.4233,6.2911,6.2712,6.4305,6.3128,6.2657,6.3164,6.1897,6.1082,6.081,6.0285,5.9868,5.9615,5.9615,5.9325,5.88,5.8528,5.7967,5.717,5.6627,5.6247,5.5975,5.5758,5.5051,5.4128,5.4381,5.382,5.2842,5.2299,5.1937,5.1574,5.0782,5.0144,4.9582,4.8768,4.8333,4.795,4.7156,4.616,4.5128,4.4331,4.3516,4.2901,4.2901,4.2901,4.2901,4.2901,4.2901,4.2901,4.2901,4.2901,4.2901,4.2901,4.2901,4.281,4.2538,4.2502,4.2049,4.0691,4.118,4.1976,4.2792,4.2901,4.2484,4.1433,4.1053,4.0383,3.9079,3.8752,3.8499,3.8227,3.8209,3.8209,3.8209,3.8209,3.8209,3.8209,3.8209,3.8209,3.8209,3.8209,3.8209,3.8209,3.8209,3.8274,5.2847,5.5877,5.8872,6.1026,6.197,6.2639,6.3639,6.3121,6.2197,6.1378,5.9886,5.845,5.7662,5.7306,5.751,5.8751,6.0451,6.2331,6.4266,6.4048,6.3775,6.4028,6.3174,6.2485,0.0,0.0,0.0,6.3363,6.2114,6.1915,6.3472,6.2567,6.2114,6.2331,6.1353,6.0538,5.9959,5.9434,5.9035,5.8746,5.8746,5.8474,5.7967,5.7677,5.7261,5.6717,5.5939,5.5432,5.516,5.4979,5.4255,5.3277,5.3277,5.277,5.1973,5.118,5.0687,5.0361,4.9854,4.9329,4.8764,4.795,4.7518,4.712,4.6323,4.5508,4.4693,4.3896,4.3299,4.2901,4.2901,4.2901,4.2901,4.2901,4.2901,4.2901,4.2901,4.2901,4.2901,4.2901,4.2901,4.2901,4.2901,4.2901,4.2538,4.1506,4.1796,4.2013,4.1687,4.1868,4.1651,4.0601,4.0274,3.9713,3.8699,3.8372,3.8209,3.8209,3.8274,3.8305,3.8305,3.8403,3.8421,3.8305,3.8403,3.8403,3.8305,3.8403,3.8435,3.8435,3.8435,3.8512,5.6888,5.9271,6.0999,6.2632,6.3026,6.3026,6.3026,6.2074,6.093,6.0017,5.885,5.7718,0.0,5.6771,5.6993,5.7567,5.8476,5.9987,6.2471,6.1544,6.1875,0.0,0.0,0.0,0.0,0.0,0.0,6.2078,0.0,6.1942,6.1996,6.1942,6.158,6.0828,6.0738,5.9941,5.842,5.8365,5.7949,5.7188,5.7188,5.717,5.7098,5.6337,5.5975,5.5884,5.516,5.4418,5.3766,5.449,5.3874,5.2498,5.2444,5.1973,5.1194,5.0365,4.9564,4.8891,4.8837,4.8837,4.871,4.7916,4.712,4.6341,4.549,4.4711,4.3914,4.3137,4.2901,4.2901,4.2901,4.2901,4.2901,4.2901,4.2901,4.2901,4.2901,4.2901,4.2901,4.2901,4.2901,4.2901,4.292,4.2902,4.2865,4.2884,4.2848,4.2014,3.9857,4.0148,4.0546,4.051,3.9857,3.9404,3.9385,3.8677,3.8242,3.8242,3.8417,3.8525,3.8525,3.8773,3.8788,3.8525,3.881,3.8825,3.8525,3.8825,3.8947,3.891,3.891,3.891,5.595,5.8371,6.0848,6.1862,6.2125,6.2125,6.2125,6.1429,6.017,5.811,5.6294,5.4631,5.3181,5.3674,5.4951,5.6934,5.9955,0.0,6.5379,6.5895,0.0,6.647,0.0,6.5416,6.5453,6.4248,0.0,0.0,6.2126,6.1362,6.196,6.1417,6.1,6.0828,5.9651,5.8818,5.8402,5.7804,5.7387,5.7188,5.7188,5.688,5.6283,5.6084,5.5703,5.5142,5.4345,5.3892,5.3675,5.3277,5.286,5.2444,5.1828,5.1466,5.1122,4.9727,4.9094,4.88,4.8203,4.8004,4.788,4.7083,4.6667,4.625,4.482,4.4258,4.3914,4.3137,4.2901,4.2901,4.2901,4.2901,4.2901,4.2901,4.2901,4.2901,4.2901,4.2901,4.2901,4.2901,4.2901,4.2957,4.316,4.2703,4.2371,4.2558,4.2094,4.1779,4.1996,4.1651,4.1234,4.0845,4.0095,3.9465,3.905,3.8842,3.8732,3.8732,3.8773,3.8803,3.8803,3.8862,3.8862,3.8803,3.9449,3.9468,3.8803,3.9468,3.9497,3.891,3.891,3.8979,5.7037,5.914,6.1149,6.1243,6.1262,6.098,5.9891,5.929,5.8164,5.531,5.3838,5.2686,5.1396,5.2322,5.3851,0.0,0.0,0.0,6.5013,6.557,6.6174,0.0,6.7386,0.0,6.6942,6.5717,6.4764,0.0,6.2787,6.185,6.1953,6.1532,6.0966,6.0254,5.9341,5.8702,5.8379,5.7922,5.7684,5.7684,5.7319,5.6917,5.646,5.5706,5.5158,5.472,0.0,5.3573,5.3537,5.308,5.2897,5.2787,5.1618,5.1179,5.0978,4.9371,4.8786,4.8713,4.8256,4.8092,4.7979,4.7257,4.6558,4.5798,4.4892,4.4132,4.3462,4.3028,4.2901,4.2901,4.2901,4.2901,4.292,4.305,4.3087,4.3124,4.3232,4.3249,4.3249,4.3249,4.3249,4.3303,4.3442,4.3091,4.2864,4.3012,4.2641,4.2562,4.3157,4.2245,4.1417,4.1109,4.0664,4.0286,3.9981,3.9959,3.9959,3.9959,3.9696,3.955,3.955,3.9333,3.9147,3.9017,3.9593,3.9775,3.955,4.0128,4.017,3.9728,3.9728,3.961,5.8915,6.036,6.1318,6.0755,6.0435,5.9647,5.7263,5.6643,5.561,5.2268,5.1668,5.1499,5.0691,5.1909,5.3309,5.4167,0.0,5.9317,6.3614,6.3593,6.4671,6.8709,6.8186,6.7761,6.8432,6.6754,6.5279,6.452,6.3613,6.2697,6.1786,6.1639,6.09,5.9405,5.9349,5.9017,5.8319,5.8301,5.8264,5.8134,5.7411,5.6968,5.671,5.527,5.4529,5.4402,0.0,0.0,5.3407,5.3407,5.3333,5.3133,5.1598,5.0951,5.0693,4.9178,4.8623,4.8605,4.8605,4.8605,4.8477,4.7735,4.6535,4.5373,4.5155,4.4102,4.3013,4.3013,4.3032,4.3032,4.3032,4.305,4.3123,4.3355,4.3407,4.3475,4.3693,4.3742,4.3761,4.3728,4.3744,4.3758,4.3777,4.3791,4.3807,4.3839,4.3855,4.3855,4.3855,4.2474,4.1499,4.1517,4.1437,4.1341,4.123,4.123,4.1193,4.1082,4.0584,4.029,4.0317,3.9839,3.9496,3.9277,3.9595,3.9933,4.029,4.0632,4.0741,4.0647,4.0766,4.0447,5.9215,5.9515,5.9872,6.0454,5.9572,5.8052,5.6231,5.531,0.0,5.0598,5.0447,5.0654,4.9865,5.1029,5.3059,5.5933,5.7847,6.0697,0.0,0.0,6.6852,0.0,0.0,0.0,0.0,0.0,0.0,0.0,0.0,6.2468,6.0978,6.0291,5.9479,5.8537,5.85,5.8426,5.8301,5.8301,5.7987,5.73,5.7174,5.6359,5.503,5.4734,5.4236,5.361,5.3462,0.0,5.3407,5.3407,5.3061,5.2474,5.1528,5.0749,5.0063,4.9116,4.8713,4.8605,4.8605,4.8605,4.8347,4.6855,4.6194,4.5697,4.439,4.3783,4.3562,4.3562,4.3625,4.3721,4.3721,4.3815,4.3903,4.3952,4.3967,4.3982,4.4013,4.4028,4.4001,4.3881,4.3955,4.4076,4.4173,4.4285,4.4443,4.4655,4.47,4.47,4.47,4.3385,4.25,4.262,4.2132,4.1552,4.0937,4.09,4.06,3.9939,3.9796,3.9758,3.9818,3.9682,3.9607,3.9611,4.0253,4.0315,3.9746,4.0447,4.0459,3.9833,4.0614,4.0828,5.9985,6.0285,6.0604,6.0604,5.9666,5.7957,5.5028,0.0,0.0,4.9509,4.949,4.9959,4.9565,5.0823,5.2569,5.4634,5.6324,5.914,0.0,0.0,0.0,0.0,0.0,0.0,0.0,0.0,0.0,0.0,0.0,6.165,6.1286,6.0073,5.9216,5.8826,5.8826,5.8826,5.8826,5.8416,5.7987,5.7595,5.6739,5.5958,5.5249,5.4801,5.4462,5.4193,5.4193,0.0,5.4138,5.3689,5.3311,5.2907,5.1649,5.0917,5.0466,4.9674,4.9327,4.9283,4.9283,4.9283,4.9059,4.7803,4.6813,4.5982,4.5271,4.4455,4.382,4.3881,4.3955,4.3998,4.3998,4.4058,4.4146,4.4276,4.4406,4.4525,4.4525,4.4525,4.4498,4.443,4.4471,4.4538,4.4597,4.4668,4.4745,4.4883,4.4895,4.4895,4.4895,4.4348,4.3954,4.3944,4.3653,4.3322,4.2951,4.2932,4.2775,4.2378,4.1975,4.1546,4.112,4.0677,4.0231,3.9804,4.0085,4.0275,4.0384,4.0727,4.0709,4.0403,4.1312,4.1463,6.0604,6.1186,6.1599,6.0811,5.9684,5.7751,5.3825,5.2792,5.1778,4.8589,4.8776,4.9434,4.9265,5.026,5.1442,5.2491,5.3733,5.6361,6.1562,0.0,0.0,0.0,0.0,0.0,0.0,0.0,0.0,0.0,0.0,0.0,6.1243,6.006,5.9345,5.9345,5.9419,5.9437,5.9437,5.8628,5.8121,5.7933,5.6428,5.5704,5.5665,5.4982,5.4742,5.4901,5.4901,0.0,0.0,5.3973,5.3532,5.3239,5.1726,5.1025,5.0811,5.0166,4.992,4.9912,4.9912,4.9912,4.9798,4.9102,4.7747,4.6359,4.6302,4.5267,4.414,4.4252,4.429,4.4304,4.4304,4.4332,4.4401,4.4624,4.4833,4.4998,4.4998,4.4998,4.4986,4.4943,4.4974,4.4986,4.4943,4.4955,4.4998,4.4998,4.4998,4.4998,4.4998,4.508,4.5103,4.501,4.4955,4.4856,4.4649,4.463,4.4478,4.4118,4.3504,4.2796,4.1954,4.1268,4.0604,3.9951,3.9815,4.0106,4.0847,4.0794,4.0794,4.0866,4.1753,4.1904,6.0604,6.1186,6.1599,6.0811,5.8858,5.6211,5.2794,0.0,5.0185,4.765,4.8382,4.9265,4.8457,4.8438,4.9058,5.067,5.1048,5.3132,5.884,0.0,0.0,0.0,0.0,0.0,0.0,0.0,0.0,0.0,0.0,0.0,5.9572,5.9567,5.9562,5.9562,5.9753,5.9853,5.9853,5.8987,5.8192,5.745,5.6503,5.567,5.4985,5.4909,5.4886,5.4901,5.4901,0.0,0.0,5.3973,5.3248,5.2612,5.1661,5.0843,5.0177,5.0101,4.9986,4.9912,4.9912,4.9912,4.9893,4.9817,4.8645,4.7154,4.6429,4.554,4.4802,4.4814,4.4912,4.4995,4.4995,4.5106,4.5213,4.5224,4.5246,4.5256,4.5256,4.5256,4.5243,4.5114,4.5181,4.5213,4.5103,4.5181,4.5256,4.5256,4.5256,4.5256,4.5256,4.5256,4.5286,4.5256,4.5159,4.4741,4.3876,4.382,4.3156,4.1628,4.1457,4.1084,4.0333,4.0125,4.0049,4.0067,3.9943,3.9927,4.0014,4.0003,4.0003,4.0033,4.0967,4.1716,6.0978,6.1787,6.2028,6.1762,5.9026,5.5799,5.3455,0.0,4.9792,4.8268,4.8905,4.9457,4.8507,4.8757,4.9122,4.9186,4.964,5.1493,5.586,0.0,0.0,0.0,0.0,0.0,0.0,0.0,0.0,0.0,0.0,0.0,5.9685,5.9753,5.9786,5.9786,5.9853,5.9639,5.9111,5.8278,5.746,5.6607,5.5773,5.5249,5.5028,5.5028,5.509,5.5192,5.5192,0.0,0.0,5.3478,5.2685,5.1916,5.1039,5.0505,5.0219,5.0219,5.0194,5.0126,5.0126,4.9834,4.9415,4.9415,4.826,4.6877,4.7015,4.6459,4.571,4.5278,4.5181,4.5213,4.5213,4.5265,4.5307,4.5307,4.5307,4.5307,4.5307,4.5307,4.5286,4.5224,4.5256,4.5286,4.5224,4.5256,4.5307,4.5307,4.5307,4.5307,4.5307,4.5307,4.5307,4.5307,4.5246,4.5069,4.4682,4.4652,4.4377,4.3711,4.3672,4.3302,4.2475,4.2396,4.2167,4.1731,4.1077,4.079,4.0851,4.0304,4.0304,4.087,4.1779,4.2359,6.038,6.1678,6.2237,6.2065,5.9033,5.5663,5.3992,0.0,4.9638,4.8786,4.9292,4.9606,4.8644,4.8971,4.915,4.8432,4.8817,5.035,5.3512,5.4362,0.0,0.0,0.0,0.0,0.0,0.0,0.0,0.0,0.0,0.0,0.0,5.9798,5.9747,5.9947,5.9766,5.9364,5.8741,5.7692,5.6871,5.623,5.5432,5.509,5.52,5.52,5.5273,5.5403,0.0,0.0,0.0,5.29,5.2117,5.1513,5.0646,5.0302,5.0302,5.0302,5.0302,5.0302,5.0302,4.992,4.9423,4.9186,4.8258,4.7261,4.7278,4.6721,4.602,4.5734,4.5468,4.5307,4.5307,4.5307,4.5307,4.5307,4.5307,4.5307,4.5307,4.5307,4.5307,4.5307,4.5307,4.5307,4.5307,4.5307,4.5307,4.5307,4.5307,4.5307,4.5307,4.5307,4.5307,4.5307,4.5307,4.5307,4.5307,4.5307,4.5182,4.4934,4.4914,4.4532,4.3682,4.3643,4.3386,4.2813,4.1846,4.1407,4.1495,4.0596,4.0501,4.117,4.2011,4.2545,5.8394,6.0437,6.2105,6.1309,5.8581,5.5659,5.3987,5.1675,4.9646,4.878,4.9305,4.9627,4.8761,4.8609,4.8609,4.8609,4.8609,4.95,5.2063,5.3777,0.0,0.0,0.0,0.0,0.0,0.0,0.0,0.0,0.0,0.0,0.0,5.9573,5.9407,6.008,5.9464,5.9095,5.9095,5.7447,5.6606,5.6587,5.5785,5.539,5.539,5.539,5.539,0.0,0.0,0.0,0.0,5.2308,5.1608,5.1513,5.0646,5.0302,5.0302,5.0302,5.0302,5.0302,5.0302,5.0283,5.0168,4.9358,4.9091,4.8747,4.7035,4.5946,4.5468,4.6271,4.5908,4.5307,4.5307,4.5307,4.5307,4.5307,4.5307,4.5307,4.5307,4.5307,4.5307,4.5307,4.5307,4.5307,4.5307,4.5307,4.5307,4.5307,4.5307,4.5307,4.5307,4.5307,4.5307,4.5307,4.5307,4.5307,4.5307,4.5307,4.4934,4.4064,4.4006,4.3643,4.2851,4.2813,4.2813,4.2794,4.1934,4.1495,4.1495,4.0692,4.0301,4.032,4.1132,4.1972,5.5537,5.6887,5.7658,5.7944,5.5505,5.2895,5.2342,5.0735,4.9267,4.9001,4.9591,4.9891,4.8967,4.9246,4.941,4.8712,4.9102,4.9806,0.0,0.0,0.0,0.0,0.0,0.0,0.0,0.0,0.0,0.0,0.0,0.0,0.0,5.9568,5.9463,6.028,5.8986,5.8288,5.8288,5.716,5.632,5.5785,5.5517,5.5403,5.5403,5.5403,0.0,0.0,0.0,0.0,0.0,5.2059,5.1257,5.0684,5.0417,5.0302,5.0302,5.0302,5.0302,5.0302,5.0302,4.9939,4.9454,4.9186,4.8697,4.8105,4.7559,4.6787,4.6061,4.5755,4.5488,4.5307,4.5307,4.5307,4.5307,4.5307,4.5307,4.5307,4.5307,4.5307,4.5307,4.5307,4.5307,4.5307,4.5307,4.5307,4.5307,4.5307,4.5307,4.5307,4.5307,4.5307,4.5307,4.5307,4.5307,4.5307,4.5307,4.5307,4.5182,4.4914,4.4895,4.4762,4.4513,4.4513,4.4513,4.4513,4.3654,4.3204,4.3204,4.2412,4.2297,4.2822,4.309,4.3357,5.2978,5.4332,5.5116,5.5938,5.4085,5.2059,5.2059,5.076,4.9538,4.9538,4.9939,5.003,4.9139,4.963,4.9872,4.8929,4.9486,5.019,0.0,0.0,0.0,0.0,0.0,0.0,0.0,0.0,0.0,0.0,0.0,0.0,0.0,5.9109,5.8899,5.9434,5.8135,5.7409,5.7409,5.6568,5.5899,5.5403,5.5403,5.5403,5.5403,5.5403,0.0,0.0,0.0,0.0,0.0,5.1448,5.0799,5.0302,5.0302,5.0302,5.0302,5.0302,5.0111,4.9843,4.9843,4.9289,4.8563,4.822,4.7551,4.6863,4.6863,4.6691,4.6328,4.5526,4.5307,4.5307,4.5307,4.5307,4.5307,4.5307,4.5307,4.5307,4.5307,4.5307,4.5307,4.5307,4.5307,4.5307,4.5307,4.5307,4.5307,4.5307,4.5307,4.5307,4.5307,4.5307,4.5307,4.5307,4.5307,4.5307,4.5307,4.5307,4.5307,4.5307,4.5307,4.5307,4.5307,4.5307,4.5307,4.5307,4.4437,4.4006,4.4006,4.3195,4.3214,4.3987,4.3682,4.3701,0.0,5.2594,5.4008,5.4772,5.3722,5.2537,5.2537,5.1334,0.0,5.0283,5.0245,4.9996,4.932,4.9748,4.9996,4.9301,4.9805,5.0608,0.0,0.0,0.0,0.0,0.0,0.0,0.0,0.0,0.0,0.0,0.0,0.0,0.0,5.8288,5.781,5.781,5.6969,5.653,5.6587,5.5804,5.5403,5.5403,5.5403,5.5403,5.5403,5.5403,0.0,0.0,0.0,0.0,0.0,5.0665,5.0302,5.0302,5.0302,5.0302,5.0283,5.0245,4.9729,4.9091,4.9033,4.8487,4.7674,4.6863,4.6042,4.5403,4.5403,4.587,4.6271,4.5507,4.5307,4.5307,4.5307,4.5307,4.5307,4.5307,4.5307,4.5307,4.5307,4.5307,4.5307,4.5307,4.5307,4.5307,4.5307,4.5307,4.5307,4.5307,4.5307,4.5307,4.5307,4.5307,4.5307,4.5307,4.5307,4.5307,4.5317,4.5307,4.5307,4.5307,4.5307,4.5307,4.5307,4.5317,4.5317,4.5307,4.4513,4.4083,4.4083,4.3348,4.3367,4.4064,4.3339,4.3377,4.9156,0.0,5.1085,5.0684,5.0264,4.997,0.0,4.9652,4.9557,5.0168,4.9805,4.95,4.9939,4.9671,4.9519,4.9939,5.0187,5.0608,0.0,0.0,0.0,0.0,0.0,0.0,0.0,0.0,0.0,0.0,0.0,5.9319,0.0,5.7695,5.6912,5.6912,5.611,5.5976,5.6587,5.5804,5.5403,5.5403,5.5403,5.5403,5.5403,5.5403,0.0,0.0,0.0,0.0,5.1544,5.0665,5.0302,5.0302,5.0302,5.0302,5.0225,4.9614,4.9263,4.9003,4.8334,4.796,4.7769,4.7559,4.692,4.6214,4.6214,4.5927,4.5545,4.5364,4.5307,4.5307,4.5307,4.5307,4.5307,4.5307,4.5307,4.5307,4.5307,4.5307,4.5307,4.5307,4.5307,4.5307,4.5307,4.5307,4.5307,4.5307,4.5307,4.5307,4.5307,4.5307,4.5307,4.5307,4.5307,4.5339,4.5438,4.536,4.5307,4.5307,4.5307,4.5307,4.5307,4.54,4.539,4.5307,4.5105,4.4991,4.4991,4.48,4.48,4.5001,4.4911,4.4968,4.8143,4.9117,4.9729,4.9671,4.9652,4.9538,4.9186,4.911,4.911,4.9156,4.8812,4.864,4.9079,4.9117,4.9232,4.9671,5.0397,0.0,0.0,0.0,0.0,0.0,0.0,0.0,0.0,0.0,0.0,0.0,0.0,5.8765,0.0,5.7084,5.6434,5.6052,5.5632,5.5613,5.6052,5.5632,5.5403,5.5403,5.5403,5.5193,5.4811,5.4811,5.4142,0.0,0.0,0.0,5.0971,5.0493,5.0302,5.0264,4.9882,4.9748,4.9652,4.8812,4.8258,4.7837,4.7379,4.6959,4.6653,4.6653,4.6381,4.6041,4.6041,4.6043,4.5937,4.5444,4.5564,4.5774,4.5403,4.5564,4.5755,4.5403,4.5307,4.5307,4.5307,4.5307,4.5307,4.5307,4.5307,4.5411,4.5793,4.5545,4.543,4.5793,4.5545,4.5309,4.539,4.54,4.5419,4.5476,4.5485,4.5513,4.5593,4.5531,4.5485,4.5485,4.5485,4.5485,4.5485,4.5558,4.5566,4.5485,4.5485,4.5485,4.5485,4.5485,4.5485,4.5485,4.5566,4.5601,4.7884,4.8716,4.9423,4.9977,5.0206,5.0092,4.927,4.8995,4.8754,4.8266,4.7979,4.7884,4.8132,4.8793,0.0,0.0,0.0,0.0,0.0,0.0,0.0,0.0,0.0,0.0,0.0,0.0,0.0,0.0,0.0,5.8249,0.0,5.6473,5.6091,5.5422,5.5403,5.5403,5.5403,5.5403,5.5403,5.5403,5.5269,5.4811,5.4104,5.3951,5.3053,5.1589,0.0,0.0,5.0302,5.0302,5.0302,5.0225,4.9438,4.9124,4.901,4.8037,4.7206,4.6536,4.6421,4.5924,4.536,4.536,4.5429,4.5531,4.5531,4.61,4.6546,4.5764,4.6028,4.6428,4.5854,4.6101,4.6339,4.5682,4.5509,4.5449,4.5326,4.5317,4.5319,4.5319,4.5454,4.5762,4.644,4.601,4.5781,4.6459,4.5876,4.5409,4.5522,4.5531,4.5565,4.5692,4.5708,4.5715,4.5731,4.5727,4.5742,4.5757,4.5712,4.5715,4.5731,4.5715,4.5715,4.5731,4.5715,4.5708,4.5708,4.5708,4.5696,4.5704,4.5727,4.5742,4.9289,5.0015,4.9977,4.9423,4.9805,5.0092,4.927,4.8525,4.8361,4.9652,4.8781,4.8227,4.9652,5.0034,5.0359,0.0,0.0,0.0,0.0,0.0,0.0,0.0,0.0,0.0,0.0,0.0,0.0,0.0,0.0,0.0,5.6645,5.5957,5.5536,5.5403,5.5403,5.5403,5.5403,5.5403,5.5403,5.5403,5.4658,5.4237,5.4065,5.3339,5.2499,5.1589,0.0,5.1123,5.0302,5.0302,5.0302,5.0237,4.9539,4.9266,4.9094,4.7585,4.6955,4.6752,4.6067,4.574,4.5643,4.5643,4.564,4.5676,4.5676,4.5769,4.5989,4.6508,4.6701,4.6877,4.7434,4.7056,4.6513,4.6551,4.6433,4.6137,4.5449,4.539,4.5467,4.5467,4.6105,4.6684,4.6818,4.6741,4.6703,4.6818,4.6144,4.5651,4.5676,4.5676,4.5684,4.57,4.5708,4.5746,4.5866,4.5867,4.5914,4.6027,4.5834,4.5754,4.5854,4.5761,4.5754,4.5873,4.5761,4.5708,4.5708,4.5708,4.57,4.5689,4.5822,4.5889,4.7818,4.8926,4.9671,4.9729,5.0703,5.1448,5.0627,5.0149,4.9805,4.9671,4.9041,4.8903,0.0,0.0,5.2017,0.0,0.0,0.0,0.0,0.0,0.0,0.0,0.0,0.0,0.0,0.0,0.0,0.0,0.0,0.0,5.5995,5.5594,5.5193,5.4715,5.4696,5.4467,5.4008,5.4008,5.4237,5.4696,5.3817,5.3168,5.2747,5.2327,5.1697,5.0913,0.0,5.0711,5.041,5.041,5.0185,4.9797,4.9009,4.8411,4.7853,4.6678,4.6259,4.6201,4.5843,4.5708,4.5708,4.5708,4.5754,4.5805,4.5805,4.6485,4.7333,4.7637,4.7645,4.764,4.8015,4.8115,4.7904,4.7064,4.6778,4.6608,4.6252,4.621,4.6408,4.6878,4.7315,4.7753,4.8216,4.7907,4.7753,4.8235,4.7579,4.6916,4.6506,4.6491,4.6364,4.5956,4.5953,4.5991,4.6066,4.6051,4.6098,4.615,4.6032,4.598,4.6005,4.5947,4.5947,4.6005,4.5947,4.5922,4.5975,4.5975,4.5966,4.5973,4.6032,4.6078,4.6538,4.7933,4.9263,4.9862,5.1276,5.2461,5.2251,5.2057,5.1645,5.0535,5.0369,0.0,0.0,5.176,0.0,0.0,0.0,0.0,0.0,0.0,0.0,0.0,0.0,0.0,0.0,0.0,0.0,0.0,0.0,0.0,5.554,5.531,5.4889,5.4219,5.4008,5.3587,5.2916,5.2706,5.3004,5.3779,5.2968,5.2138,5.1335,5.1178,5.0626,4.9822,5.0013,5.005,4.999,5.0384,5.0009,4.9125,4.8491,4.7616,4.6646,4.6228,4.5945,4.5771,4.5771,4.5771,4.5771,4.5771,4.5847,4.5951,4.6164,4.7208,4.8311,4.8412,4.8519,4.8635,4.8802,4.9186,4.917,4.787,4.7523,4.7457,4.7264,4.7245,4.7475,4.814,4.8472,4.8834,4.9497,4.9059,4.8854,4.9516,4.8692,4.781,4.7248,4.7043,4.6824,4.6437,4.6454,4.6495,4.6502,4.6326,4.6213,4.6222,4.6206,4.6185,4.6134,4.6111,4.6111,4.6111,4.6111,4.6146,4.6199,4.6199,4.6203,4.619,4.619,4.6216,4.7283,4.8391,4.911,4.9167,5.0455,5.2079,5.3588,5.343,5.317,5.3791,5.4072,0.0,0.0,0.0,0.0,0.0,0.0,0.0,0.0,0.0,0.0,0.0,0.0,0.0,0.0,0.0,0.0,0.0,0.0,0.0,5.5817,5.4998,5.4545,5.4468,5.3755,5.3321,5.3263,5.2463,5.2345,5.2893,5.2195,5.1416,5.0562,4.9932,4.9187,4.8407,4.9206,4.909,4.8493,5.0042,4.9734,4.8296,4.8365,4.743,4.6155,4.6907,4.6679,4.598,4.598,4.598,4.598,4.598,4.5986,4.6147,4.6957,4.7293,4.7564,4.8361,4.9151,4.9939,5.0615,5.0159,4.9503,4.9492,4.9408,4.9107,4.8368,4.8308,4.8404,4.8462,4.9235,4.9893,4.9952,4.9913,4.9893,4.9952,4.853,4.7443,4.7389,4.673,4.6539,4.7225,4.7306,4.734,4.741,4.6671,4.6236,4.6294,4.6234,4.6196,4.6192,4.6192,4.6192,4.6192,4.6192,4.6196,4.6199,4.6199,4.6196,4.6203,4.6203,4.6238,4.6122,4.7712,4.9157,4.916,5.0837,5.292,5.4677,5.5312,5.5644,5.6074,5.6662,0.0,0.0,0.0,0.0,0.0,0.0,0.0,0.0,0.0,0.0,0.0,0.0,0.0,0.0,0.0,0.0,0.0,0.0,0.0,0.0,5.468,5.4024,5.2982,5.2655,5.2257,5.1758,5.0868,5.0545,5.074,5.1,5.0682,4.9864,4.962,4.902,4.8259,4.9116,4.9051,4.8408,4.9595,4.9117,4.765,4.7694,4.7342,4.6851,4.7181,4.7084,4.6735,4.6196,4.6002,4.6002,4.6002,4.6002,4.6162,4.7087,4.7738,4.8351,4.9235,5.0095,5.0698,5.0401,5.0476,5.0506,4.9994,4.9858,4.9731,4.9425,4.9406,4.9593,5.0138,5.0544,5.0813,5.0813,5.0813,5.0813,5.0813,4.9781,4.8826,4.828,4.799,4.7729,4.7495,4.7942,4.8074,4.7594,4.7264,4.6858,4.6339,4.6286,4.6248,4.6192,4.6189,4.6189,4.6189,4.6189,4.622,4.6255,4.6255,4.626,4.6269,4.6269,4.6273,4.5399,4.7066,4.882,4.8822,5.0922,5.3648,5.6085,5.7311,5.8043,5.8462,5.8214,5.7657,5.6834,0.0,0.0,0.0,0.0,0.0,0.0,0.0,0.0,0.0,0.0,0.0,0.0,0.0,0.0,0.0,0.0,0.0,0.0,5.42,5.3367,5.2225,5.1915,5.1518,5.0959,5.0091,4.9658,4.9653,4.9949,4.9621,4.8779,4.8817,4.8363,4.7622,4.8461,4.8412,4.7783,4.8922,4.8563,4.7339,4.7303,4.7123,4.6929,4.7201,4.7134,4.6838,4.6241,4.6056,4.6071,4.6071,4.6071,4.627,4.7454,4.8221,4.8887,4.9753,5.0646,5.1117,5.0198,5.0626,5.1145,5.056,5.0435,5.0442,5.0442,5.0433,5.0615,5.1219,5.1336,5.1336,5.1336,5.1336,5.1336,5.1336,5.0596,4.9816,4.9211,4.8937,4.8677,4.8365,4.8847,4.8993,4.8445,4.8133,4.7725,4.7139,4.6846,4.6567,4.624,4.6238,4.6238,4.6238,4.6238,4.6247,4.63,4.63,4.63,4.63,4.63,4.63,4.541,4.6695,4.8018,4.8037,5.0568,5.403,5.7822,5.9323,6.0158,6.111,5.8714,5.6702,5.7563,0.0,0.0,0.0,0.0,0.0,0.0,0.0,0.0,0.0,0.0,0.0,0.0,0.0,0.0,0.0,0.0,0.0,0.0,5.3498,5.2606,5.2586,5.1749,5.13,5.1281,5.0424,4.9976,4.9976,4.9095,4.8156,4.7208,4.7335,4.6952,4.6238,4.7049,4.6932,4.6332,4.7984,4.8171,4.7388,4.7319,4.6773,4.6118,4.6987,4.681,4.6117,4.6098,4.6146,4.6199,4.6199,4.6199,4.6511,4.8183,4.869,4.8884,4.9761,5.0686,5.1199,5.0344,5.0706,5.13,5.13,5.1349,5.1394,5.1394,5.1396,5.1394,5.1394,5.1394,5.1394,5.1394,5.1394,5.1394,5.1394,5.0651,5.0104,5.0104,4.9345,4.915,5.0026,5.0104,5.0104,5.0104,4.9306,4.8818,4.8798,4.8057,4.7217,4.6358,4.63,4.63,4.63,4.63,4.63,4.63,4.63,4.63,4.63,4.63,4.63,4.6378,4.7626,4.921,5.0431,5.3369,5.6439,5.8284,5.8854,5.9478,6.1214,6.0805,5.9823,5.8867,0.0,0.0,0.0,0.0,0.0,0.0,0.0,0.0,0.0,0.0,0.0,0.0,0.0,0.0,0.0,0.0,0.0,0.0,5.2879,5.2314,5.171,5.1437,5.102,5.0462,4.9542,4.8801,4.8239,4.7356,4.7073,4.7348,4.7369,4.696,4.6238,4.7049,4.6932,4.6238,4.6741,4.6792,4.6606,4.7155,4.7205,4.7014,4.7283,4.7213,4.6937,4.6376,4.6189,4.6199,4.6199,4.6199,4.6514,4.8256,4.8769,4.9087,5.0569,5.1184,5.1345,5.1072,5.1184,5.1372,5.1372,5.1399,5.1403,5.1403,5.141,5.1394,5.1394,5.1394,5.1394,5.1394,5.1394,5.1394,5.1394,5.0651,5.0104,5.0104,4.987,5.0046,5.0926,5.1004,5.077,5.0143,4.985,4.9442,4.8837,4.8584,4.8076,4.7256,4.6632,4.63,4.63,4.63,4.63,4.63,4.63,4.63,4.63,4.63,4.63,4.681,4.8308,5.0288,5.2039,5.4877,5.7563,5.8985,0.0,0.0,0.0,6.1661,6.0978,6.0254,0.0,0.0,0.0,0.0,0.0,0.0,0.0,0.0,0.0,0.0,0.0,0.0,0.0,0.0,0.0,0.0,0.0,0.0,5.2318,5.1713,5.0855,5.0816,5.0416,4.9596,4.8703,4.802,4.7528,4.6655,4.649,4.6955,4.694,4.667,4.6276,4.6741,4.6683,4.6237,4.6206,4.62,4.6255,4.6725,4.6913,4.6913,4.6913,4.6924,4.6859,4.6375,4.6228,4.6237,4.6237,4.6237,4.6552,4.8287,4.8799,4.9152,5.0902,5.1394,5.1394,5.1394,5.1394,5.1394,5.1394,5.1394,5.1394,5.1394,5.1394,5.1394,5.1394,5.1394,5.1394,5.1394,5.1394,5.1394,5.1394,5.0945,5.0612,5.0612,5.0612,5.0828,5.1336,5.1394,5.1199,5.0651,5.0612,5.0399,4.9872,4.9501,4.9091,4.8601,4.7451,4.6651,4.63,4.63,4.63,4.63,4.63,4.63,4.63,4.63,4.63,4.7087,4.8932,5.1298,5.3265,5.5617,0.0,5.9995,6.1582,6.2637,6.2637,0.0,6.0627,0.0,0.0,0.0,0.0,0.0,0.0,0.0,0.0,0.0,0.0,0.0,0.0,0.0,0.0,0.0,0.0,0.0,0.0,0.0,5.1707,5.0887,5.0007,4.9987,4.9577,4.8701,4.7978,4.7567,4.7469,4.6671,4.63,4.63,4.624,4.6243,4.63,4.63,4.63,4.63,4.6221,4.6211,4.6209,4.62,4.6209,4.6209,4.6209,4.6209,4.6211,4.6211,4.6245,4.63,4.63,4.6358,4.6729,4.831,4.8857,4.9267,5.0926,5.1394,5.1394,5.1394,5.1394,5.1394,5.1394,5.1394,5.1394,5.1394,5.1394,5.1394,5.1394,5.1394,5.1394,5.1394,5.1394,5.1394,5.1394,5.1394,5.1394,5.1394,5.1394,5.1394,5.1394,5.1394,5.1394,5.1394,5.1394,5.1394,5.1394,5.0651,5.0182,5.0104,4.8562,4.7295,4.6436,4.6417,4.6378,4.63,4.63,4.63,4.63,4.6378,4.6378,4.8682,5.034,5.26,5.5623,5.7986,6.0054,6.1956,6.1125,5.9944,5.9944,6.0178,0.0,0.0,0.0,0.0,0.0,0.0,0.0,0.0,0.0,0.0,0.0,0.0,0.0,0.0,0.0,0.0,0.0,0.0,0.0,5.069,5.0475,4.9987,4.9111,4.9072,4.8681,4.7859,4.7684,4.7256,0.0,4.6397,4.63,4.63,4.6296,4.6296,4.63,4.63,4.63,4.63,4.6277,4.6275,4.6275,4.6288,4.6288,4.6288,4.6288,4.6271,4.6275,4.6275,4.6296,4.63,4.63,4.6768,4.751,4.8505,4.9286,5.0046,5.1102,5.1394,5.1394,5.1394,5.1394,5.1394,5.1394,5.1394,5.1394,5.1394,5.1394,5.1394,5.1394,5.1394,5.1394,5.1394,5.1394,5.1394,5.1394,5.1394,5.1394,5.1394,5.1394,5.1394,5.1394,5.1394,5.1394,5.1394,5.1394,5.1394,5.1394,5.1219,5.0809,5.0124,4.9091,4.8154,4.7332,4.7315,4.6983,4.63,4.63,4.63,4.6319,4.7002,4.6944,4.8722,5.0781,5.3627,5.7139,0.0,6.1075,6.1635,6.0373,5.8987,5.8558,0.0,0.0,0.0,0.0,0.0,0.0,0.0,0.0,0.0,0.0,0.0,0.0,0.0,0.0,0.0,0.0,0.0,0.0,0.0,5.1023,5.0143,5.0104,4.9519,4.8271,4.8232,4.7822,4.6983,4.6983,4.6749,4.63,4.63,4.63,4.63,4.63,4.63,4.63,4.63,4.63,4.63,4.63,4.63,4.63,4.63,4.63,4.63,4.63,4.63,4.63,4.63,4.63,4.63,4.63,4.6885,4.7742,4.8564,4.9403,5.028,5.116,5.1394,5.1394,5.1394,5.1394,5.1394,5.1394,5.1394,5.1394,5.1394,5.1394,5.1394,5.1394,5.1394,5.1394,5.1394,5.1394,5.1394,5.1394,5.1394,5.1394,5.1394,5.1394,5.1394,5.1394,5.1394,5.1394,5.1394,5.1394,5.1394,5.1394,5.1394,5.1199,5.0748,5.0282,4.9462,4.8193,4.7801,4.7372,4.6924,4.6495,4.63,4.63,4.6768,4.6963,4.8238,5.094,5.4581,5.8247,6.0106,0.0,6.049,5.9495,5.8499,5.7914,0.0,0.0,0.0,0.0,0.0,0.0,0.0,0.0,0.0,0.0,0.0,0.0,0.0,0.0,0.0,0.0,0.0,0.0,0.0,5.0809,4.9928,4.9733,4.8953,4.7411,4.7372,4.7022,4.63,4.63,4.63,4.63,4.63,4.63,4.63,4.63,4.63,4.63,4.63,4.63,4.63,4.63,4.63,4.63,4.63,4.63,4.63,4.63,4.63,4.63,4.63,4.63,4.6319,4.6475,4.712,4.7957,4.8779,4.9638,5.0475,5.1199,5.1394,5.1394,5.1394,5.1394,5.1394,5.1394,5.1394,5.1394,5.1394,5.1394,5.1394,5.1394,5.1394,5.1394,5.1394,5.1394,5.1394,5.1394,5.1394,5.1394,5.1394,5.1394,5.1394,5.1394,5.1394,5.1394,5.1394,5.1394,5.1394,5.1394,5.1394,5.1394,5.1394,5.1394,5.0711,4.9286,4.8447,4.7957,4.7801,4.7081,4.6729,4.6749,4.6885,4.7256,4.8068,5.1528,5.5734,5.9313,5.9256,5.8695,0.0,0.0,5.7094,0.0,0.0,0.0,0.0,0.0,0.0,0.0,0.0,0.0,0.0,0.0,0.0,0.0,0.0,0.0,0.0,0.0,0.0,0.0,5.069,4.9889,4.9013,4.831,4.749,4.6495,4.6475,4.6417,4.63,4.63,4.63,4.63,4.63,4.63,4.63,4.63,4.63,4.63,4.63,4.63,4.63,4.63,4.63,4.63,4.63,4.63,4.63,4.63,4.63,4.63,4.63,4.63,4.6417,4.7178,4.7978,4.8798,4.9655,5.0534,5.1258,5.1375,5.1394,5.1394,5.1394,5.1394,5.1394,5.1394,5.1394,5.1394,5.1394,5.1394,5.1394,5.1394,5.1394,5.1394,5.1394,5.1394,5.1394,5.1394,5.1394,5.1394,5.1394,5.1394,5.1394,5.1394,5.1394,5.1394,5.1394,5.1394,5.1394,5.1394,5.1394,5.1394,5.1394,5.1394,5.1297,5.1063,5.0202,4.9382,4.8642,4.8525,4.8466,4.8486,4.9247,4.9245,4.9975,5.1806,5.3864,5.7382,5.7699,5.7328,5.8109,0.0,5.7113,0.0,0.0,0.0,0.0,0.0,0.0,0.0,0.0,0.0,0.0,0.0,0.0,0.0,0.0,0.0,0.0,0.0,0.0,0.0,5.0592,4.9714,4.8857,4.8037,4.7198,4.6339,4.63,4.63,4.63,4.63,4.63,4.63,4.63,4.63,4.63,4.63,4.63,4.63,4.63,4.63,4.63,4.63,4.63,4.63,4.63,4.63,4.63,4.63,4.63,4.63,4.63,4.63,4.6436,4.7315,4.8135,4.8954,4.9831,5.0709,5.1394,5.1394,5.1394,5.1394,5.1394,5.1394,5.1394,5.1394,5.1394,5.1394,5.1394,5.1394,5.1394,5.1394,5.1394,5.1394,5.1394,5.1394,5.157,5.2058,5.2136,5.2292,5.28,5.2858,5.2663,5.2175,5.2136,5.1921,5.1433,5.1394,5.1394,5.1394,5.1394,5.1394,5.1394,5.1394,5.1394,5.1394,5.0534,4.9909,4.954,4.9032,4.8798,4.8818,4.9194,4.943,5.0668,5.1316,5.1804,5.4849,5.5786,5.5942,0.0,0.0,0.0,0.0,0.0,0.0,0.0,0.0,0.0,0.0,0.0,0.0,0.0,0.0,0.0,0.0,0.0,0.0,0.0,0.0,0.0,0.0,5.026,4.9401,4.8545,4.7725,4.6963,4.6319,4.63,4.63,4.63,4.63,4.63,4.63,4.63,4.63,4.63,4.63,4.63,4.63,4.63,4.63,4.63,4.63,4.63,4.63,4.63,4.63,4.63,4.63,4.63,4.63,4.63,4.63,4.6436,4.7315,4.8135,4.8954,4.9831,5.0709,5.1394,5.1394,5.1394,5.1394,5.1394,5.1394,5.1394,5.1394,5.1394,5.1394,5.1394,5.157,5.1726,5.1726,5.1902,5.2058,5.2058,5.2058,5.2273,5.2936,5.3034,5.3268,5.3912,5.3815,5.3424,5.2763,5.2509,5.2117,5.1453,5.1394,5.1394,5.1394,5.1396,5.1398,5.1398,5.14,5.1402,5.1402,5.0757,5.0424,5.0422,4.9778,4.9467,4.9469,4.9456,4.981,4.8401,4.9522,5.0612,5.2448,5.3522,5.4147,0.0,0.0,0.0,0.0,0.0,0.0,0.0,0.0,0.0,0.0,0.0,0.0,0.0,0.0,0.0,0.0,0.0,0.0,0.0,0.0,0.0,0.0,4.9364,4.8505,4.7703,4.6846,4.6358,4.63,4.63,4.63,4.63,4.63,4.63,4.63,4.63,4.63,4.63,4.63,4.63,4.63,4.63,4.63,4.63,4.63,4.63,4.63,4.63,4.63,4.63,4.63,4.63,4.63,4.63,4.63,4.6436,4.7315,4.8135,4.8954,4.9831,5.0709,5.1394,5.1394,5.1394,5.1394,5.1394,5.1394,5.1394,5.1394,5.1394,5.1394,5.1394,5.2058,5.2626,5.2626,5.3307,5.3854,5.3854,5.3854,5.3873,5.3932,5.3932,5.3951,5.399,5.3288,5.2743,5.2704,5.196,5.1453,5.1394,5.1394,5.1394,5.1394,5.1403,5.1408,5.1408,5.1395,5.1397,5.1397,5.1358,5.1337,5.133,5.1291,5.1256,5.1261,5.1261,5.1281,4.7662,4.783,4.8193,5.0477,5.1277,5.1646,5.2195,0.0,0.0,0.0,0.0,0.0,0.0,0.0,0.0,0.0,0.0,0.0,0.0,0.0,0.0,0.0,0.0,0.0,0.0,0.0,0.0,0.0,0.0,4.7899,4.7625,4.6768,4.63,4.63,4.63,4.63,4.63,4.63,4.63,4.63,4.63,4.63,4.63,4.63,4.63,4.63,4.63,4.63,4.63,4.63,4.63,4.63,4.63,4.63,4.63,4.63,4.63,4.63,4.63,4.63,4.6436,4.7315,4.7781,4.8289,4.9675,5.0319,5.067,5.1238,5.1394,5.1394,5.1394,5.1824,5.237,5.2936,5.2644,5.239,5.2956,5.2878,5.288,5.3424,5.3795,5.401,5.401,5.401,5.4186,5.4752,5.483,5.5044,5.5591,5.4908,5.4147,5.358,5.2741,5.2019,5.1453,5.14,5.1639,5.2205,5.1705,5.1649,5.2216,5.169,5.1398,5.1398,5.1398,5.1397,5.1395,5.1395,5.1396,5.1398,5.1402,5.1403,4.6202,0.0,0.0,0.0,4.9031,4.948,5.0321,0.0,0.0,0.0,0.0,0.0,0.0,0.0,0.0,0.0,0.0,0.0,0.0,0.0,0.0,0.0,0.0,0.0,0.0,0.0,0.0,0.0,0.0,0.0,4.7178,4.6612,4.63,4.63,4.63,4.63,4.63,4.63,4.63,4.63,4.63,4.63,4.63,4.63,4.63,4.63,4.63,4.63,4.63,4.63,4.63,4.63,4.63,4.63,4.63,4.63,4.63,4.63,4.63,4.63,4.6436,4.7315,4.7781,4.8269,4.9675,5.0299,5.0651,5.1238,5.1394,5.1394,5.1394,5.2058,5.2919,5.3795,5.3561,5.3385,5.4244,5.3971,5.3739,5.4322,5.4674,5.4869,5.4869,5.4869,5.5064,5.565,5.5747,5.5942,5.6528,5.5576,5.464,5.4055,5.2963,5.203,5.1442,5.1409,5.1764,5.2644,5.216,5.2221,5.31,5.2574,5.2145,5.1832,5.1832,5.1695,5.1402,5.1402,5.1402,5.1402,5.1405,5.1387,0.0,0.0,0.0,0.0,0.0,0.0,4.8545,0.0,0.0,0.0,0.0,0.0,0.0,0.0,0.0,0.0,0.0,0.0,0.0,0.0,0.0,0.0,0.0,0.0,0.0,0.0,0.0,0.0,4.7586,4.7198,4.6358,4.63,4.63,4.63,4.63,4.63,4.63,4.63,4.63,4.63,4.63,4.63,4.63,4.63,4.63,4.63,4.63,4.63,4.63,4.63,4.63,4.63,4.63,4.63,4.63,4.63,4.63,4.63,4.63,4.6319,4.6475,4.7332,4.8135,4.8954,4.9831,5.069,5.1375,5.1394,5.1394,5.1414,5.1453,5.2097,5.2958,5.3854,5.4068,5.4283,5.5142,5.5337,5.5337,5.5337,5.602,5.6606,5.6606,5.6606,5.6606,5.6606,5.6606,5.6606,5.6606,5.5093,5.4045,5.4045,5.2508,5.1476,5.1476,5.1476,5.1847,5.2727,5.2751,5.3123,5.4002,5.4004,5.3594,5.2754,5.2734,5.2324,5.1465,5.1425,5.1406,5.1406,5.1406,5.1362,4.3938,0.0,0.0,0.0,0.0,0.0,0.0,0.0,0.0,0.0,0.0,0.0,0.0,0.0,0.0,0.0,0.0,0.0,0.0,0.0,0.0,0.0,0.0,0.0,0.0,0.0,0.0,0.0,4.7022,4.6554,4.63,4.63,4.63,4.63,4.63,4.63,4.63,4.63,4.63,4.63,4.63,4.63,4.63,4.63,4.63,4.63,4.63,4.63,4.63,4.63,4.63,4.63,4.63,4.63,4.63,4.63,4.63,4.63,4.63,4.671,4.7276,4.7528,4.8135,4.8954,4.9831,5.026,5.0592,5.1219,5.1394,5.1687,5.2956,5.3463,5.4029,5.5513,5.5396,5.5181,5.6059,5.6235,5.6235,5.6235,5.645,5.6606,5.6606,5.6593,5.6596,5.6596,5.6603,5.6606,5.6606,5.5632,5.4932,5.4932,5.3937,5.3274,5.3274,5.3277,5.365,5.4528,5.3983,5.4023,5.4902,5.4336,5.3887,5.3652,5.3633,5.3494,5.3203,5.1991,5.1385,5.133,5.1282,5.1252,0.0,0.0,0.0,0.0,0.0,0.0,4.6222,4.6768,0.0,0.0,0.0,0.0,0.0,0.0,0.0,0.0,0.0,0.0,0.0,0.0,0.0,0.0,0.0,0.0,0.0,4.8582,4.7606,4.7606,4.6788,4.63,4.63,4.63,4.63,4.63,4.63,4.63,4.63,4.63,4.63,4.63,4.63,4.63,4.63,4.63,4.63,4.63,4.63,4.63,4.63,4.63,4.63,4.63,4.63,4.63,4.6339,4.671,4.6612,4.6358,4.6729,4.6944,4.7178,4.7861,4.8427,4.9032,5.0262,5.0635,5.0756,5.126,5.1668,5.2255,5.3645,5.4268,5.489,5.628,5.6202,5.5989,5.6481,5.6598,5.6598,5.6593,5.6593,5.6595,5.6598,5.6603,5.6606,5.6606,5.6591,5.6593,5.6593,5.5833,5.5308,5.5308,5.4528,5.4001,5.4001,5.4003,5.4374,5.5234,5.4824,5.4922,5.5801,5.5351,5.4902,5.4505,5.4505,5.4277,5.3816,5.2539,5.1681,5.1263,5.1592,5.1704,0.0,0.0,0.0,0.0,0.0,0.0,4.5853,4.5482,4.4972,0.0,0.0,0.0,0.0,0.0,0.0,0.0,0.0,0.0,0.0,0.0,0.0,0.0,0.0,0.0,5.0104,4.866,4.7703,4.7606,4.6788,4.63,4.63,4.63,4.63,4.63,4.63,4.63,4.63,4.6202,4.6202,4.63,4.6202,4.6202,4.63,4.63,4.63,4.63,4.63,4.63,4.63,4.63,4.63,4.63,4.63,4.63,4.6397,4.7178,4.7022,4.6534,4.7217,4.7061,4.6807,4.8214,4.8781,4.923,5.0791,5.1325,5.1408,5.14,5.2023,5.2905,5.3771,5.4646,5.5519,5.6387,5.6603,5.6605,5.6592,5.6593,5.6592,5.6605,5.6603,5.6605,5.6592,5.6593,5.6594,5.6594,5.6594,5.6595,5.6595,5.5915,5.5447,5.5447,5.4746,5.4297,5.4297,5.4297,5.4629,5.539,5.5449,5.5781,5.6562,5.6601,5.6207,5.5355,5.5323,5.4821,5.3827,5.3088,5.2288,5.1479,5.2241,5.2557,0.0,0.0,0.0,0.0,0.0,0.0,4.4321,4.4612,4.4805,0.0,0.0,0.0,0.0,0.0,0.0,0.0,0.0,0.0,0.0,0.0,0.0,0.0,0.0,0.0,5.0163,4.9169,4.8291,4.7645,4.6788,4.63,4.63,4.63,4.63,4.63,4.63,4.63,4.63,4.5597,4.5617,4.628,4.5597,4.5617,4.63,4.63,4.63,4.63,4.63,4.63,4.63,4.63,4.63,4.63,4.63,4.63,4.6319,4.6495,4.6885,4.7276,4.6749,4.7334,4.8254,4.7946,4.875,4.9903,5.0241,5.0848,5.1396,5.1395,5.2039,5.29,5.378,5.4657,5.5515,5.6395,5.6591,5.6592,5.6593,5.6593,5.6594,5.6597,5.6594,5.6592,5.6593,5.6596,5.6598,5.6598,5.66,5.6601,5.6601,5.6445,5.6347,5.6347,5.6191,5.6094,5.6094,5.6094,5.6172,5.6348,5.6348,5.6426,5.6582,5.6601,5.6481,5.6255,5.6085,5.5555,5.4663,5.3825,5.3314,5.3135,5.3242,5.3286,0.0,0.0,0.0,4.5755,0.0,0.0,0.0,4.4696,4.4754,4.3873,0.0,0.0,0.0,0.0,0.0,0.0,0.0,0.0,0.0,0.0,0.0,0.0,0.0,0.0,5.0104,4.8953,4.7842,4.7002,4.6554,4.63,4.63,4.63,4.63,4.63,4.63,4.63,4.63,4.587,4.587,4.628,4.5851,4.587,4.63,4.63,4.63,4.63,4.63,4.63,4.63,4.63,4.6303,4.6306,4.6302,4.63,4.636,4.6793,4.7224,4.7595,4.7599,4.8147,4.8852,4.8854,4.9422,5.0183,5.0616,5.1047,5.1399,5.1403,5.2339,5.345,5.3881,5.4974,5.6066,5.6498,5.6597,5.6597,5.6599,5.6599,5.66,5.6601,5.66,5.6599,5.6599,5.66,5.6601,5.6601,5.6601,5.6601,5.6601,5.6601,5.6601,5.6601,5.6601,5.6601,5.6601,5.6601,5.6601,5.6601,5.6601,5.6601,5.6601,5.6579,5.6491,5.6351,5.6194,5.5889,5.5443,5.5009,5.4369,5.3555,5.3964,5.4155,0.0,0.0,0.0,0.0,0.0,4.6069,0.0,0.0,0.0,4.39,0.0,0.0,0.0,0.0,0.0,0.0,0.0,0.0,0.0,0.0,0.0,0.0,0.0,0.0,0.0,4.8582,4.7313,4.6593,4.6397,4.63,4.63,4.63,4.63,4.63,4.63,4.63,4.63,4.6124,4.6124,4.63,4.6124,4.6144,4.63,4.63,4.63,4.63,4.6302,4.6303,4.6303,4.6305,4.6309,4.6294,4.6306,4.6303,4.6384,4.7092,4.7563,4.7897,4.8272,4.8723,4.9173,4.9505,4.9857,5.0288,5.1147,5.1401,5.1402,5.1406,5.2538,5.3784,5.3963,5.5172,5.6382,5.656,5.66,5.6601,5.6601,5.6601,5.6601,5.6601,5.6601,5.6601,5.6601,5.6601,5.6601,5.6601,5.6601,5.6601,5.6601,5.6601,5.6601,5.6601,5.6601,5.6601,5.6601,5.6601,5.6601,5.6601,5.6601,5.6582,5.6581,5.6491,5.6379,5.6201,5.6064,5.6012,5.6012,5.6012,5.5296,5.4,5.4697,5.5026,0.0,0.0,0.0,0.0,4.6308,0.0,0.0,0.0,4.5681,4.4038,0.0,0.0,0.0,0.0,0.0,0.0,0.0,0.0,0.0,0.0,0.0,0.0,0.0,0.0,0.0,4.8582,4.7567,4.745,4.6749,4.63,4.63,4.63,4.63,4.63,4.63,4.63,4.63,4.5539,4.5539,4.628,4.5519,4.5558,4.63,4.63,4.63,4.6302,4.6308,4.6291,4.6293,4.6297,4.6301,4.6301,4.6294,4.6295,4.6319,4.6418,4.7433,4.8546,4.7102,4.8078,4.9739,4.8337,4.8925,5.0332,5.1152,5.1406,5.1406,5.1406,5.2109,5.3027,5.3808,5.4726,5.5644,5.6426,5.6601,5.6601,5.6601,5.6601,5.6601,5.6601,5.6601,5.6601,5.6601,5.6601,5.6601,5.6601,5.6601,5.6601,5.6601,5.6601,5.6601,5.6601,5.6601,5.6601,5.6601,5.6601,5.6601,5.6601,5.6601,5.6579,5.6516,5.6333,5.6226,5.6194,5.6064,5.6012,5.6012,5.6012,5.5896,5.5722,5.5818,5.5857,0.0,0.0,0.0,0.0,0.0,0.0,4.4218,0.0,4.5331,0.0,0.0,0.0,0.0,0.0,0.0,0.0,4.6123,0.0,0.0,0.0,0.0,0.0,0.0,0.0,0.0,0.0,0.0,0.0,4.6515,4.63,4.63,4.63,4.63,4.63,4.63,4.63,4.63,4.5948,4.5948,4.63,4.5934,4.5957,4.6308,4.6293,4.6295,4.6295,4.6297,4.6299,4.6299,4.6301,4.6303,4.6305,4.6303,4.6302,4.6302,4.6305,4.7399,4.8805,4.8064,4.9159,5.0741,5.0038,5.0293,5.0957,5.1308,5.1758,5.2148,5.2148,5.3144,5.4297,5.4668,5.539,5.6152,5.6504,5.6601,5.6601,5.6601,5.6601,5.6601,5.6601,5.6601,5.6601,5.6601,5.6601,5.6601,5.6601,5.6601,5.6601,5.6601,5.6601,5.6601,5.6601,5.6601,5.6601,5.6601,5.6601,5.6601,5.6601,5.7007,5.7165,5.7025,5.743,5.7623,5.7598,5.7033,5.6738,5.6738,5.6255,5.6012,5.6012,5.6012,5.6012,4.5391,0.0,0.0,0.0,0.0,0.0,0.0,0.0,0.0,0.0,0.0,0.0,0.0,0.0,0.0,0.0,0.0,4.6342,0.0,0.0,0.0,0.0,0.0,0.0,0.0,0.0,0.0,0.0,0.0,4.63,4.63,4.63,4.63,4.63,4.63,4.63,4.63,4.63,4.6302,4.6305,4.629,4.6294,4.6296,4.63,4.6301,4.6301,4.6303,4.6303,4.6303,4.6305,4.6306,4.6307,4.6307,4.6307,4.6325,4.6561,4.7616,4.8905,4.8906,4.9844,5.1113,5.1328,5.1406,5.1406,5.1406,5.1836,5.2383,5.2637,5.3789,5.5,5.5234,5.5957,5.6601,5.6601,5.6601,5.6601,5.6601,5.6601,5.6601,5.6601,5.6601,5.6601,5.6601,5.6601,5.6601,5.6601,5.6601,5.6601,5.6601,5.6601,5.6601,5.6601,5.6601,5.6601,5.6601,5.6601,5.6699,5.6892,5.7606,5.795,5.7768,5.8341,5.8653,5.8593,5.7985,5.754,5.7299,5.6661,5.6235,5.6012,5.6012,5.6012,0.0,0.0,0.0,4.4785,0.0,0.0,0.0,0.0,4.373,0.0,0.0,0.0,0.0,0.0,0.0,4.3925,0.0,0.0,0.0,0.0,0.0,0.0,0.0,0.0,0.0,0.0,0.0,0.0,0.0,0.0,4.63,4.63,4.63,4.63,4.63,4.63,4.63,4.63,4.6305,4.6293,4.6293,4.6296,4.6301,4.6301,4.6301,4.6301,4.6306,4.6307,4.6307,4.6308,4.6308,4.6308,4.6308,4.6308,4.6406,4.7246,4.8125,4.8906,4.8906,4.9492,5.0371,5.1152,5.1406,5.1406,5.1406,5.1426,5.1621,5.2461,5.3359,5.4238,5.5078,5.5957,5.6601,5.6601,5.6601,5.6601,5.6601,5.6601,5.6601,5.6601,5.6601,5.6601,5.6601,5.6601,5.6601,5.6601,5.6601,5.6601,5.6601,5.6601,5.6601,5.6601,5.6601,5.6601,5.6601,5.6601,5.6892,5.7623,5.8421,5.8797,5.8654,5.8629,5.8593,5.8613,5.8574,5.8139,5.7299,5.726,5.6815,5.6012,5.6012,5.6012,0.0,0.0,4.0801,4.2773,0.0,0.0,0.0,0.0,0.0,0.0,0.0,0.0,0.0,0.0,4.5762,4.5469,4.5918,4.6093,0.0,0.0,0.0,0.0,0.0,0.0,0.0,0.0,0.0,0.0,0.0,0.0,0.0,4.5987,4.63,4.63,4.63,4.6303,4.6309,4.6309,4.6293,4.63,4.6302,4.6305,4.6306,4.6307,4.6308,4.6308,4.6308,4.6308,4.6308,4.6308,4.6308,4.6308,4.6308,4.6308,4.6406,4.7285,4.8144,4.9062,5.0176,5.0742,5.1035,5.1308,5.1406,5.1406,5.1406,5.2207,5.3183,5.3476,5.4609,5.5781,5.6074,5.6387,5.6601,5.6601,5.6601,5.6601,5.6601,5.6601,5.6601,5.6601,5.6601,5.6601,5.6601,5.6601,5.6601,5.6601,5.6601,5.6601,5.6601,5.6601,5.6601,5.6601,5.7129,5.7461,5.7461,5.7903,5.8287,5.848,5.922,5.9593,5.9492,5.9974,6.0248,6.0248,5.9725,5.9029,5.8159,5.7579,5.6854,5.6012,5.6012,5.6012,4.0117,3.9453,0.0,4.1406,4.0742,0.0,4.1601,0.0,0.0,0.0,0.0,0.0,0.0,0.0,0.0,4.543,4.5898,4.6308,0.0,4.6308,0.0,0.0,0.0,0.0,0.0,0.0,0.0,0.0,0.0,0.0,0.0,0.0,4.6306,4.6309,4.6309,4.6293,4.6296,4.6296,4.63,4.6304,4.6306,4.6307,4.6308,4.6308,4.6308,4.6308,4.6308,4.6308,4.6308,4.6308,4.6308,4.6308,4.6308,4.6308,4.6445,4.7637,4.8808,4.9941,5.1035,5.1406,5.1406,5.1406,5.1406,5.1465,5.1777,5.2656,5.3672,5.4297,5.5273,5.6211,5.6523,5.6601,5.6601,5.6601,5.6601,5.6601,5.6601,5.6836,5.7051,5.7051,5.7051,5.7051,5.7051,5.6816,5.6601,5.6601,5.6601,5.6719,5.7012,5.7051,5.7187,5.748,5.8027,5.8339,5.8296,5.9001,5.9401,5.9298,6.0028,6.0414,6.0334,6.0828,6.1099,6.1099,6.0596,5.9899,5.9048,5.8197,5.7308,5.6448,5.6139,5.6012]}]]